[[{"header":{"parameterUnit":"m.s-1","parameterCategory":1,"la1":31.0,"la2":29.5877,"lo1":-88.7671,"lo2":-86.6584,"dy":0.0162,"dx":0.0185,"nx":115,"ny":88,"refTime":"2023-04-03T12:00:00:Z","depth":0,"parameterNumber":2,"parameterNumberName":"U-component_of_WINDS"},"data":[0.0,0.0,0.0,0.0,0.0,0.0,0.0,0.0,0.0,0.0,0.0,0.0,0.0,0.0,0.0,0.0,0.0,0.0,0.0,0.0,0.0,0.0,0.0,0.0,0.0,0.0,0.0,0.0,0.0,0.0,0.0,0.0,0.0,0.0,0.0,0.0,0.0,0.0,0.0,0.0,0.0,0.0,0.0,0.0,0.0,0.0,0.0,0.0,0.0,0.0,0.0,0.0,0.0,0.0,0.0,0.0,0.0,0.0,0.0,0.0,0.0,0.0,0.0,0.0,0.0,0.0,0.0,0.0,0.0,0.0,0.0,0.0,0.0,0.0,0.0,0.0,0.0,0.0,0.0,0.0,0.0,0.0,0.0,0.0,0.0,0.0,0.0,0.0,0.0,0.0,0.0,0.0,0.0,0.0,0.0,0.0,0.0,0.0,0.0,0.0,0.0,0.0,0.0,0.0,0.0,0.0,0.0,0.0,0.0,0.0,0.0,0.0,0.0,0.0,0.0,0.0,0.0,0.0,0.0,0.0,0.0,0.0,0.0,0.0,0.0,0.0,0.0,0.0,0.0,0.0,0.0,0.0,0.0,0.0,0.0,0.0,0.0,0.0,0.0,0.0,0.0,0.0,0.0,0.0,0.0,0.0,0.0,0.0,0.0,0.0,0.0,0.0,0.0,0.0,0.0,0.0,0.0,0.0,0.0,0.0,0.0,0.0,0.0,0.0,0.0,0.0,0.0,0.0,0.0,0.0,0.0,0.0,0.0,0.0,0.0,0.0,0.0,0.0,0.0,0.0,0.0,0.0,0.0,0.0,0.0,0.0,0.0,0.0,0.0,0.0,0.0,0.0,0.0,0.0,0.0,0.0,0.0,0.0,0.0,0.0,0.0,0.0,0.0,0.0,0.0,0.0,0.0,0.0,0.0,0.0,0.0,0.0,0.0,0.0,0.0,0.0,0.0,0.0,0.0,0.0,0.0,0.0,0.0,0.0,0.0,0.0,0.0,0.0,0.0,0.0,0.0,0.0,0.0,0.0,0.0,0.0,0.0,0.0,0.0,0.0,0.0,0.0,0.0,0.0,0.0,0.0,0.0,0.0,0.0,0.0,0.0,0.0,0.0,0.0,0.0,0.0,0.0,0.0,0.0,0.0,0.0,0.0,0.0,0.0,0.0,0.0,0.0,0.0,0.0,0.0,0.0,0.0,0.0,0.0,0.0,0.0,0.0,0.0,0.0,0.0,0.0,0.0,0.0,0.0,0.0,0.0,0.0,0.0,0.0,0.0,0.0,0.0,0.0,0.0,0.0,0.0,0.0,0.0,0.0,0.0,0.0,0.0,0.0,0.0,0.0,0.0,0.0,0.0,0.0,0.0,0.0,0.0,0.0,0.0,0.0,0.0,0.0,0.0,0.0,0.0,0.0,0.0,0.0,0.0,0.0,0.0,0.0,0.0,0.0,0.0,0.0,0.0,0.0,0.0,0.0,0.0,0.0,0.0,0.0,0.0,0.0,0.0,0.0,0.0,0.0,0.0,0.0,0.0,0.0,0.0,0.0,0.0,0.0,0.0,0.0,0.0,0.0,0.0,0.0,0.0,0.0,0.0,0.0,0.0,0.0,0.0,0.0,0.0,0.0,0.0,0.0,0.0,0.0,0.0,0.0,0.0,0.0,0.0,0.0,0.0,0.0,0.0,0.0,0.0,0.0,0.0,0.0,0.0,0.0,0.0,0.0,0.0,0.0,0.0,0.0,0.0,0.0,0.0,0.0,0.0,0.0,0.0,0.0,0.0,0.0,0.0,0.0,0.0,0.0,0.0,0.0,0.0,0.0,0.0,0.0,0.0,0.0,0.0,0.0,0.0,0.0,0.0,0.0,0.0,0.0,0.0,0.0,0.0,0.0,0.0,0.0,0.0,0.0,0.0,0.0,0.0,0.0,0.0,0.0,0.0,0.0,0.0,0.0,0.0,0.0,0.0,0.0,0.0,0.0,0.0,0.0,0.0,0.0,0.0,0.0,0.0,0.0,0.0,0.0,0.0,0.0,0.0,0.0,0.0,0.0,0.0,0.0,0.0,0.0,0.0,0.0,0.0,0.0,0.0,0.0,0.0,0.0,0.0,0.0,0.0,0.0,0.0,0.0,0.0,0.0,0.0,0.0,0.0,0.0,0.0,0.0,0.0,0.0,0.0,0.0,0.0,0.0,0.0,0.0,0.0,0.0,0.0,0.0,0.0,0.0,0.0,0.0,0.0,0.0,0.0,0.0,0.0,0.0,0.0,0.0,0.0,0.0,0.0,0.0,0.0,0.0,0.0,0.0,0.0,0.0,0.0,0.0,0.0,0.0,0.0,0.0,0.0,0.0,0.0,0.0,0.0,0.0,0.0,0.0,0.0,0.0,0.0,0.0,0.0,0.0,0.0,0.0,0.0,0.0,0.0,0.0,0.0,0.0,0.0,0.0,0.0,0.0,0.0,0.0,0.0,0.0,0.0,0.0,0.0,0.0,0.0,0.0,0.0,0.0,0.0,0.0,0.0,0.0,0.0,0.0,0.0,0.0,0.0,0.0,0.0,0.0,0.0,0.0,0.0,0.0,0.0,0.0,0.0,0.0,0.0,0.0,0.0,0.0,0.0,0.0,0.0,0.0,0.0,0.0,0.0,0.0,0.0,0.0,0.0,0.0,0.0,0.0,0.0,0.0,0.0,0.0,0.0,0.0,0.0,0.0,0.0,0.0,0.0,0.0,0.0,0.0,0.0,0.0,0.0,0.0,0.0,0.0,0.0,0.0,0.0,0.0,0.0,0.0,0.0,0.0,0.0,0.0,0.0,0.0,0.0,0.0,0.0,0.0,0.0,0.0,0.0,0.0,0.0,0.0,0.0,0.0,0.0,0.0,0.0,0.0,0.0,0.0,0.0,0.0,0.0,0.0,0.0,0.0,0.0,0.0,0.0,0.0,0.0,0.0,0.0,0.0,0.0,0.0,0.0,0.0,0.0,0.0,0.0,0.0,0.0,0.0,0.0,0.0,0.0,0.0,0.0,0.0,0.0,0.0,0.0,0.0,0.0,0.0,0.0,0.0,0.0,0.0,0.0,0.0,0.0,0.0,0.0,0.0,0.0,0.0,0.0,0.0,0.0,0.0,0.0,0.0,0.0,0.0,0.0,0.0,0.0,0.0,0.0,0.0,0.0,0.0,0.0,0.0,0.0,0.0,0.0,0.0,0.0,0.0,0.0,0.0,0.0,0.0,0.0,0.0,0.0,0.0,0.0,0.0,0.0,0.0,0.0,0.0,0.0,0.0,0.0,0.0,0.0,0.0,0.0,0.0,0.0,0.0,0.0,0.0,0.0,0.0,0.0,0.0,0.0,0.0,0.0,0.0,0.0,0.0,0.0,0.0,0.0,0.0,0.0,0.0,0.0,0.0,0.0,0.0,0.0,0.0,0.0,0.0,0.0,0.0,0.0,0.0,0.0,0.0,0.0,0.0,0.0,0.0,0.0,0.0,0.0,0.0,0.0,0.0,0.0,0.0,0.0,0.0,0.0,0.0,0.0,0.0,0.0,0.0,0.0,0.0,0.0,0.0,0.0,0.0,0.0,0.0,0.0,0.0,0.0,0.0,0.0,0.0,0.0,0.0,0.0,0.0,0.0,0.0,0.0,0.0,0.0,0.0,0.0,0.0,0.0,0.0,0.0,0.0,0.0,0.0,0.0,0.0,0.0,0.0,0.0,0.0,0.0,0.0,0.0,0.0,0.0,0.0,0.0,0.0,0.0,0.0,0.0,0.0,0.0,0.0,0.0,0.0,0.0,0.0,0.0,0.0,0.0,0.0,0.0,0.0,0.0,0.0,0.0,0.0,0.0,0.0,0.0,0.0,0.0,0.0,0.0,0.0,0.0,0.0,0.0,0.0,0.0,0.0,0.0,0.0,0.0,0.0,0.0,0.0,0.0,0.0,0.0,0.0,0.0,0.0,0.0,0.0,0.0,0.0,0.0,0.0,0.0,0.0,0.0,0.0,0.0,0.0,0.0,0.0,0.0,0.0,0.0,0.0,0.0,0.0,0.0,0.0,0.0,0.0,0.0,0.0,0.0,0.0,0.0,0.0,0.0,0.0,0.0,0.0,0.0,0.0,0.0,0.0,0.0,0.0,0.0,0.0,0.0,0.0,0.0,0.0,0.0,0.0,0.0,0.0,0.0,0.0,0.0,0.0,0.0,0.0,0.0,0.0,0.0,0.0,0.0,0.0,0.0,0.0,0.0,0.0,0.0,0.0,0.0,3.119,0.0,0.0,0.0,0.0,0.0,0.0,0.0,0.0,0.0,0.0,0.0,0.0,0.0,0.0,0.0,0.0,0.0,0.0,0.0,0.0,0.0,0.0,0.0,0.0,0.0,0.0,0.0,0.0,0.0,0.0,0.0,0.0,0.0,0.0,0.0,0.0,0.0,0.0,0.0,0.0,0.0,0.0,0.0,0.0,0.0,0.0,0.0,0.0,0.0,0.0,0.0,0.0,0.0,0.0,0.0,0.0,0.0,0.0,0.0,0.0,0.0,0.0,0.0,0.0,0.0,0.0,0.0,0.0,0.0,0.0,0.0,0.0,0.0,0.0,0.0,0.0,0.0,0.0,0.0,0.0,0.0,0.0,0.0,0.0,0.0,0.0,0.0,0.0,0.0,0.0,0.0,0.0,0.0,0.0,0.0,0.0,0.0,0.0,0.0,0.0,0.0,0.0,0.0,0.0,0.0,0.0,0.0,0.0,0.0,0.0,3.119,3.119,3.119,3.119,3.119,0.0,0.0,0.0,0.0,0.0,0.0,0.0,0.0,0.0,0.0,0.0,0.0,0.0,0.0,0.0,0.0,0.0,0.0,0.0,0.0,0.0,0.0,0.0,0.0,0.0,0.0,0.0,0.0,0.0,0.0,0.0,0.0,0.0,0.0,0.0,0.0,0.0,0.0,0.0,0.0,0.0,0.0,0.0,0.0,0.0,0.0,0.0,0.0,0.0,0.0,0.0,0.0,0.0,0.0,0.0,0.0,0.0,0.0,0.0,0.0,0.0,0.0,0.0,0.0,0.0,0.0,0.0,0.0,0.0,0.0,0.0,0.0,0.0,0.0,0.0,0.0,0.0,0.0,0.0,0.0,0.0,0.0,0.0,0.0,0.0,0.0,0.0,0.0,0.0,0.0,0.0,0.0,0.0,0.0,0.0,0.0,0.0,0.0,0.0,0.0,0.0,0.0,0.0,0.0,0.0,0.0,0.0,0.0,0.0,0.0,0.0,0.0,3.119,3.1134,3.1035,0.0,0.0,0.0,0.0,0.0,0.0,0.0,0.0,0.0,0.0,0.0,0.0,0.0,0.0,0.0,0.0,0.0,0.0,0.0,0.0,0.0,0.0,0.0,0.0,0.0,0.0,0.0,0.0,0.0,0.0,0.0,0.0,0.0,0.0,0.0,0.0,0.0,0.0,0.0,0.0,0.0,0.0,0.0,0.0,0.0,0.0,0.0,0.0,0.0,0.0,0.0,0.0,0.0,0.0,0.0,0.0,0.0,0.0,0.0,0.0,0.0,0.0,0.0,0.0,0.0,0.0,0.0,0.0,0.0,0.0,0.0,0.0,0.0,0.0,0.0,0.0,0.0,0.0,0.0,0.0,0.0,0.0,0.0,0.0,0.0,0.0,0.0,0.0,0.0,0.0,0.0,0.0,0.0,0.0,0.0,0.0,0.0,0.0,0.0,0.0,0.0,0.0,0.0,0.0,0.0,0.0,0.0,0.0,0.0,0.0,3.119,3.119,3.119,0.0,3.059,0.0,0.0,0.0,0.0,0.0,0.0,0.0,0.0,0.0,0.0,0.0,0.0,0.0,0.0,0.0,0.0,0.0,0.0,0.0,0.0,0.0,0.0,0.0,0.0,0.0,0.0,0.0,0.0,0.0,0.0,0.0,0.0,0.0,0.0,0.0,0.0,0.0,0.0,0.0,0.0,0.0,0.0,0.0,0.0,0.0,0.0,0.0,0.0,0.0,0.0,0.0,0.0,0.0,0.0,0.0,0.0,0.0,0.0,0.0,0.0,0.0,0.0,0.0,0.0,0.0,0.0,0.0,0.0,0.0,0.0,0.0,0.0,0.0,0.0,0.0,0.0,0.0,0.0,0.0,0.0,0.0,0.0,0.0,0.0,0.0,0.0,0.0,0.0,0.0,0.0,0.0,0.0,0.0,0.0,0.0,0.0,0.0,0.0,0.0,0.0,0.0,0.0,0.0,0.0,0.0,0.0,0.0,0.0,0.0,0.0,3.119,3.119,3.119,3.0978,0.0,0.0,0.0,0.0,0.0,0.0,0.0,0.0,0.0,0.0,0.0,0.0,0.0,0.0,0.0,0.0,0.0,0.0,0.0,0.0,0.0,0.0,0.0,0.0,0.0,0.0,0.0,0.0,0.0,0.0,0.0,0.0,0.0,0.0,0.0,0.0,0.0,0.0,0.0,0.0,0.0,0.0,0.0,0.0,0.0,0.0,0.0,0.0,0.0,0.0,0.0,0.0,0.0,0.0,0.0,0.0,0.0,0.0,0.0,0.0,0.0,0.0,0.0,0.0,0.0,0.0,0.0,0.0,0.0,0.0,0.0,0.0,0.0,0.0,0.0,0.0,0.0,0.0,0.0,0.0,0.0,0.0,0.0,0.0,0.0,0.0,0.0,0.0,0.0,0.0,0.0,0.0,0.0,0.0,0.0,0.0,0.0,0.0,0.0,0.0,0.0,0.0,0.0,0.0,0.0,0.0,0.0,0.0,0.0,0.0,3.2165,3.1403,3.1207,3.1082,3.0787,3.0303,0.0,0.0,0.0,0.0,0.0,0.0,0.0,0.0,0.0,0.0,0.0,0.0,0.0,0.0,0.0,0.0,0.0,0.0,0.0,0.0,0.0,0.0,0.0,0.0,0.0,0.0,0.0,0.0,0.0,0.0,0.0,0.0,0.0,0.0,0.0,0.0,0.0,0.0,0.0,0.0,0.0,0.0,0.0,0.0,0.0,0.0,0.0,0.0,0.0,0.0,0.0,0.0,0.0,0.0,0.0,0.0,0.0,0.0,0.0,0.0,0.0,0.0,0.0,0.0,0.0,0.0,0.0,0.0,0.0,0.0,0.0,0.0,0.0,0.0,0.0,0.0,0.0,0.0,0.0,0.0,0.0,0.0,0.0,0.0,0.0,0.0,0.0,0.0,0.0,0.0,0.0,0.0,0.0,0.0,0.0,0.0,0.0,0.0,0.0,0.0,0.0,0.0,0.0,0.0,0.0,0.0,0.0,0.0,3.3396,3.2621,3.1911,3.1214,3.076,3.0309,0.0,0.0,0.0,0.0,0.0,0.0,0.0,0.0,0.0,0.0,0.0,0.0,0.0,0.0,0.0,0.0,0.0,0.0,0.0,0.0,0.0,0.0,0.0,0.0,0.0,0.0,0.0,0.0,0.0,0.0,0.0,0.0,0.0,0.0,0.0,0.0,0.0,0.0,0.0,0.0,0.0,0.0,0.0,0.0,0.0,0.0,0.0,0.0,0.0,0.0,0.0,0.0,0.0,0.0,0.0,0.0,0.0,0.0,0.0,0.0,0.0,0.0,0.0,0.0,0.0,0.0,0.0,0.0,0.0,0.0,0.0,0.0,0.0,0.0,0.0,0.0,0.0,0.0,0.0,0.0,0.0,0.0,0.0,0.0,0.0,0.0,0.0,0.0,0.0,0.0,0.0,0.0,0.0,0.0,0.0,0.0,0.0,0.0,0.0,0.0,0.0,0.0,0.0,0.0,0.0,0.0,0.0,0.0,0.0,3.3385,3.1926,3.1028,3.0757,3.0299,2.9837,0.0,0.0,0.0,0.0,0.0,0.0,0.0,0.0,0.0,0.0,0.0,0.0,0.0,0.0,0.0,0.0,0.0,0.0,0.0,0.0,0.0,0.0,0.0,0.0,0.0,0.0,0.0,0.0,0.0,0.0,0.0,0.0,0.0,0.0,0.0,0.0,0.0,0.0,0.0,0.0,0.0,0.0,0.0,0.0,0.0,0.0,0.0,0.0,0.0,0.0,0.0,0.0,0.0,0.0,0.0,0.0,0.0,0.0,0.0,0.0,0.0,0.0,0.0,0.0,0.0,0.0,0.0,0.0,0.0,0.0,0.0,0.0,0.0,0.0,0.0,0.0,0.0,0.0,0.0,0.0,0.0,0.0,0.0,0.0,0.0,0.0,0.0,0.0,0.0,0.0,0.0,0.0,0.0,0.0,0.0,0.0,0.0,0.0,0.0,0.0,0.0,0.0,0.0,0.0,0.0,0.0,0.0,0.0,0.0,3.347,0.0,3.0602,3.0575,2.9929,2.9416,0.0,0.0,0.0,0.0,0.0,0.0,0.0,0.0,0.0,0.0,0.0,0.0,0.0,0.0,0.0,0.0,0.0,0.0,0.0,0.0,0.0,0.0,0.0,0.0,0.0,0.0,0.0,0.0,0.0,0.0,0.0,0.0,0.0,0.0,0.0,0.0,0.0,0.0,0.0,0.0,0.0,0.0,0.0,0.0,0.0,0.0,0.0,0.0,0.0,0.0,0.0,0.0,0.0,0.0,0.0,0.0,0.0,0.0,0.0,0.0,0.0,0.0,0.0,0.0,0.0,0.0,0.0,0.0,0.0,0.0,0.0,0.0,0.0,0.0,0.0,0.0,0.0,0.0,0.0,0.0,0.0,0.0,0.0,0.0,0.0,0.0,0.0,0.0,0.0,0.0,0.0,0.0,0.0,0.0,0.0,0.0,0.0,0.0,0.0,0.0,0.0,0.0,0.0,0.0,0.0,0.0,0.0,0.0,3.44,3.3622,3.1777,3.0729,3.0745,2.9676,2.9085,0.0,0.0,0.0,0.0,0.0,0.0,0.0,0.0,0.0,0.0,0.0,0.0,0.0,0.0,0.0,0.0,0.0,0.0,0.0,0.0,0.0,0.0,0.0,0.0,0.0,0.0,0.0,0.0,0.0,0.0,0.0,0.0,0.0,0.0,0.0,0.0,0.0,0.0,0.0,0.0,0.0,0.0,0.0,0.0,0.0,0.0,0.0,0.0,0.0,0.0,0.0,0.0,0.0,0.0,0.0,0.0,0.0,0.0,0.0,0.0,0.0,0.0,0.0,0.0,0.0,0.0,0.0,0.0,0.0,0.0,0.0,0.0,0.0,0.0,0.0,0.0,0.0,0.0,0.0,0.0,0.0,0.0,0.0,0.0,0.0,0.0,0.0,0.0,0.0,0.0,0.0,0.0,0.0,0.0,0.0,0.0,0.0,0.0,0.0,0.0,0.0,0.0,0.0,0.0,0.0,0.0,0.0,0.0,0.0,3.245,3.1064,3.0092,2.9642,2.8959,2.8633,0.0,0.0,0.0,0.0,0.0,0.0,0.0,0.0,0.0,0.0,0.0,0.0,0.0,0.0,0.0,0.0,0.0,0.0,0.0,0.0,0.0,0.0,0.0,0.0,0.0,0.0,0.0,0.0,0.0,0.0,0.0,0.0,0.0,0.0,0.0,0.0,0.0,0.0,0.0,0.0,0.0,0.0,0.0,0.0,0.0,0.0,0.0,0.0,0.0,0.0,0.0,0.0,0.0,0.0,0.0,0.0,0.0,0.0,0.0,0.0,0.0,0.0,0.0,0.0,0.0,0.0,0.0,0.0,0.0,0.0,0.0,0.0,0.0,0.0,0.0,0.0,0.0,0.0,0.0,0.0,0.0,0.0,0.0,0.0,0.0,0.0,0.0,0.0,0.0,0.0,0.0,0.0,0.0,0.0,0.0,0.0,0.0,0.0,0.0,0.0,0.0,0.0,0.0,0.0,0.0,0.0,0.0,0.0,0.0,3.1729,3.0976,3.0269,2.9612,2.9048,2.8661,2.8411,0.0,0.0,0.0,0.0,0.0,0.0,0.0,0.0,0.0,0.0,0.0,0.0,0.0,0.0,0.0,0.0,0.0,0.0,0.0,0.0,0.0,0.0,0.0,0.0,0.0,0.0,0.0,0.0,0.0,0.0,0.0,0.0,0.0,0.0,0.0,0.0,0.0,0.0,0.0,0.0,0.0,0.0,0.0,0.0,0.0,0.0,0.0,0.0,0.0,0.0,0.0,0.0,0.0,0.0,0.0,0.0,0.0,0.0,0.0,0.0,0.0,0.0,0.0,0.0,0.0,0.0,0.0,0.0,0.0,0.0,0.0,0.0,0.0,0.0,0.0,0.0,0.0,0.0,0.0,0.0,0.0,0.0,0.0,0.0,0.0,0.0,0.0,0.0,0.0,0.0,0.0,0.0,0.0,0.0,0.0,0.0,0.0,0.0,0.0,0.0,0.0,0.0,0.0,0.0,0.0,0.0,0.0,0.0,3.1459,3.1457,3.1103,3.0415,2.9738,2.9095,0.0,0.0,0.0,0.0,0.0,0.0,0.0,0.0,0.0,0.0,0.0,0.0,0.0,0.0,0.0,0.0,0.0,0.0,0.0,0.0,0.0,0.0,0.0,0.0,0.0,0.0,0.0,0.0,0.0,0.0,0.0,0.0,0.0,0.0,0.0,0.0,0.0,0.0,0.0,0.0,0.0,0.0,0.0,0.0,0.0,0.0,0.0,0.0,0.0,0.0,0.0,0.0,0.0,0.0,0.0,0.0,0.0,0.0,0.0,0.0,0.0,0.0,0.0,0.0,0.0,0.0,0.0,0.0,0.0,0.0,0.0,0.0,0.0,0.0,0.0,0.0,0.0,0.0,0.0,0.0,0.0,0.0,0.0,0.0,0.0,0.0,0.0,0.0,0.0,0.0,0.0,0.0,0.0,0.0,0.0,0.0,0.0,0.0,0.0,0.0,0.0,0.0,0.0,0.0,0.0,0.0,0.0,0.0,0.0,3.2014,3.2095,3.1582,3.0432,2.9753,2.9322,0.0,0.0,0.0,0.0,0.0,0.0,0.0,0.0,0.0,0.0,0.0,0.0,0.0,0.0,0.0,0.0,0.0,0.0,0.0,0.0,0.0,0.0,0.0,0.0,0.0,0.0,0.0,0.0,0.0,0.0,0.0,0.0,0.0,0.0,0.0,0.0,0.0,0.0,0.0,0.0,0.0,0.0,0.0,0.0,0.0,0.0,0.0,0.0,0.0,0.0,0.0,0.0,0.0,0.0,0.0,0.0,0.0,0.0,0.0,0.0,0.0,0.0,0.0,0.0,0.0,0.0,0.0,0.0,0.0,0.0,0.0,0.0,0.0,0.0,0.0,0.0,0.0,0.0,0.0,0.0,0.0,0.0,0.0,0.0,0.0,0.0,0.0,0.0,0.0,0.0,0.0,0.0,0.0,0.0,0.0,0.0,0.0,0.0,0.0,0.0,0.0,0.0,0.0,0.0,0.0,0.0,0.0,0.0,3.2372,3.2302,3.2356,3.2013,3.1261,3.0599,2.9968,0.0,0.0,0.0,0.0,0.0,0.0,0.0,0.0,0.0,0.0,0.0,0.0,0.0,0.0,0.0,0.0,0.0,0.0,0.0,0.0,0.0,0.0,0.0,0.0,0.0,0.0,0.0,0.0,0.0,0.0,0.0,0.0,0.0,0.0,0.0,0.0,0.0,0.0,0.0,0.0,0.0,0.0,0.0,0.0,0.0,0.0,0.0,0.0,0.0,0.0,0.0,0.0,0.0,0.0,0.0,0.0,0.0,0.0,0.0,0.0,0.0,0.0,0.0,0.0,0.0,0.0,0.0,0.0,0.0,0.0,0.0,0.0,0.0,0.0,0.0,0.0,0.0,0.0,0.0,0.0,0.0,0.0,0.0,0.0,0.0,0.0,0.0,0.0,0.0,0.0,0.0,0.0,0.0,0.0,0.0,0.0,0.0,0.0,0.0,0.0,0.0,0.0,0.0,0.0,0.0,0.0,0.0,0.0,3.2384,3.2356,3.2384,3.2382,3.2368,3.1738,3.0804,0.0,0.0,0.0,0.0,0.0,0.0,0.0,0.0,0.0,0.0,0.0,0.0,0.0,0.0,0.0,0.0,0.0,0.0,0.0,0.0,0.0,0.0,0.0,0.0,0.0,0.0,0.0,0.0,0.0,0.0,0.0,0.0,0.0,0.0,0.0,0.0,0.0,0.0,0.0,0.0,0.0,0.0,0.0,0.0,0.0,0.0,0.0,0.0,0.0,0.0,0.0,0.0,0.0,0.0,0.0,0.0,0.0,0.0,0.0,0.0,0.0,0.0,0.0,0.0,0.0,0.0,0.0,0.0,0.0,0.0,0.0,0.0,0.0,0.0,0.0,0.0,0.0,0.0,0.0,0.0,0.0,0.0,0.0,0.0,0.0,0.0,0.0,0.0,0.0,0.0,0.0,0.0,0.0,0.0,0.0,0.0,0.0,0.0,0.0,0.0,0.0,0.0,0.0,0.0,0.0,0.0,0.0,0.0,3.2302,3.2094,3.2287,3.2356,3.2247,3.1588,3.0952,0.0,0.0,0.0,0.0,0.0,0.0,0.0,0.0,0.0,0.0,0.0,0.0,0.0,0.0,0.0,0.0,0.0,0.0,0.0,0.0,0.0,0.0,0.0,0.0,0.0,0.0,0.0,0.0,0.0,0.0,0.0,0.0,0.0,0.0,0.0,0.0,0.0,0.0,0.0,0.0,0.0,0.0,0.0,0.0,0.0,0.0,0.0,0.0,1.8605,0.0,0.0,0.0,0.0,0.0,0.0,0.0,0.0,0.0,0.0,0.0,0.0,0.0,0.0,0.0,0.0,0.0,0.0,0.0,0.0,0.0,0.0,0.0,0.0,0.0,0.0,0.0,0.0,0.0,0.0,0.0,0.0,0.0,0.0,0.0,0.0,0.0,0.0,0.0,0.0,0.0,0.0,0.0,0.0,0.0,0.0,0.0,0.0,0.0,0.0,0.0,0.0,0.0,0.0,0.0,0.0,0.0,0.0,0.0,3.1823,3.1967,3.1894,3.1765,3.1622,3.0992,3.0536,0.0,0.0,0.0,0.0,0.0,0.0,0.0,0.0,0.0,0.0,0.0,0.0,0.0,0.0,0.0,0.0,0.0,0.0,0.0,0.0,0.0,0.0,0.0,0.0,0.0,0.0,0.0,0.0,0.0,0.0,0.0,0.0,0.0,0.0,0.0,0.0,0.0,0.0,0.0,0.0,0.0,0.0,0.0,0.0,0.0,0.0,0.0,0.0,0.0,0.0,0.0,0.0,0.0,0.0,0.0,0.0,0.0,0.0,0.0,0.0,0.0,0.0,0.0,0.0,0.0,0.0,0.0,0.0,0.0,0.0,0.0,0.0,0.0,0.0,0.0,0.0,0.0,0.0,0.0,0.0,0.0,0.0,0.0,0.0,0.0,0.0,0.0,0.0,0.0,0.0,0.0,0.0,0.0,0.0,0.0,0.0,0.0,0.0,0.0,0.0,0.0,0.0,0.0,0.0,0.0,0.0,0.0,3.1363,3.1262,3.1653,3.1262,3.0984,3.0852,3.0179,2.986,2.9958,0.0,0.0,0.0,0.0,0.0,0.0,0.0,0.0,0.0,0.0,0.0,0.0,0.0,0.0,0.0,0.0,0.0,0.0,0.0,0.0,0.0,0.0,0.0,0.0,0.0,0.0,0.0,0.0,0.0,0.0,0.0,0.0,0.0,0.0,0.0,0.0,0.0,0.0,1.9013,1.9013,0.0,0.0,0.0,0.0,0.0,0.0,0.0,0.0,1.8045,0.0,0.0,0.0,0.0,0.0,0.0,0.0,0.0,0.0,0.0,0.0,0.0,0.0,0.0,0.0,0.0,0.0,0.0,0.0,0.0,0.0,0.0,0.0,0.0,0.0,0.0,0.0,0.0,0.0,0.0,0.0,0.0,0.0,0.0,0.0,0.0,0.0,0.0,0.0,0.0,0.0,0.0,0.0,0.0,0.0,0.0,0.0,0.0,0.0,0.0,0.0,0.0,0.0,0.0,0.0,0.0,3.0807,3.1189,3.1072,3.0359,3.036,3.0286,3.0148,2.9407,2.9004,2.9006,0.0,0.0,0.0,0.0,0.0,0.0,0.0,0.0,0.0,0.0,0.0,0.0,0.0,0.0,0.0,0.0,0.0,0.0,0.0,0.0,0.0,0.0,0.0,0.0,0.0,0.0,0.0,0.0,0.0,0.0,0.0,0.0,0.0,0.0,0.0,0.0,0.0,0.0,0.0,1.9013,1.9013,0.0,0.0,0.0,0.0,0.0,0.0,0.0,0.0,1.7815,0.0,0.0,0.0,0.0,0.0,0.0,0.0,0.0,0.0,0.0,0.0,0.0,0.0,0.0,0.0,0.0,0.0,0.0,0.0,0.0,0.0,0.0,0.0,0.0,0.0,0.0,0.0,0.0,0.0,0.0,0.0,0.0,0.0,0.0,0.0,0.0,0.0,0.0,0.0,0.0,0.0,0.0,0.0,0.0,0.0,0.0,0.0,0.0,0.0,0.0,0.0,0.0,0.0,0.0,0.0,3.0133,3.0011,2.9873,2.975,2.9551,2.938,2.9235,2.8627,2.8252,0.0,0.0,0.0,0.0,0.0,0.0,0.0,0.0,0.0,0.0,0.0,0.0,0.0,0.0,0.0,0.0,0.0,0.0,0.0,0.0,0.0,0.0,0.0,0.0,0.0,0.0,0.0,0.0,0.0,0.0,0.0,0.0,0.0,0.0,0.0,0.0,0.0,0.0,0.0,0.0,1.81,1.8125,1.8125,0.0,0.0,0.0,0.0,0.0,0.0,1.7678,1.7604,0.0,0.0,0.0,0.0,0.0,0.0,0.0,0.0,0.0,0.0,0.0,0.0,0.0,0.0,0.0,0.0,0.0,0.0,0.0,0.0,0.0,0.0,0.0,0.0,0.0,0.0,0.0,0.0,0.0,0.0,0.0,0.0,0.0,0.0,0.0,0.0,0.0,0.0,0.0,0.0,0.0,0.0,0.0,0.0,0.0,0.0,0.0,0.0,0.0,0.0,0.0,0.0,0.0,0.0,0.0,2.9503,2.8919,2.8776,2.9129,2.8789,2.853,2.8368,2.7957,2.7656,0.0,0.0,0.0,0.0,0.0,0.0,0.0,0.0,0.0,0.0,0.0,0.0,0.0,0.0,0.0,0.0,0.0,0.0,0.0,0.0,0.0,0.0,0.0,0.0,0.0,0.0,0.0,0.0,0.0,0.0,0.0,0.0,0.0,0.0,0.0,0.0,0.0,0.0,0.0,0.0,0.0,1.7292,1.7239,1.7267,0.0,0.0,0.0,0.0,1.7306,1.725,0.0,0.0,0.0,0.0,0.0,0.0,0.0,0.0,0.0,0.0,0.0,0.0,0.0,0.0,0.0,0.0,0.0,0.0,0.0,0.0,0.0,0.0,0.0,0.0,0.0,0.0,0.0,0.0,0.0,0.0,0.0,0.0,0.0,0.0,0.0,0.0,0.0,0.0,0.0,0.0,0.0,0.0,0.0,0.0,0.0,0.0,0.0,0.0,0.0,0.0,0.0,0.0,0.0,0.0,0.0,0.0,2.8704,2.8842,2.8631,2.8039,2.7957,2.7908,2.7875,2.7656,2.7536,0.0,0.0,0.0,0.0,0.0,0.0,0.0,0.0,0.0,0.0,0.0,0.0,0.0,0.0,0.0,0.0,0.0,0.0,0.0,0.0,0.0,0.0,0.0,0.0,0.0,0.0,0.0,0.0,0.0,0.0,0.0,0.0,0.0,0.0,0.0,0.0,0.0,0.0,0.0,0.0,0.0,1.7225,1.7053,1.7186,1.7239,0.0,0.0,1.7092,1.7253,1.7054,0.0,0.0,0.0,0.0,0.0,0.0,0.0,0.0,0.0,0.0,0.0,0.0,0.0,0.0,0.0,0.0,0.0,0.0,0.0,0.0,0.0,0.0,0.0,0.0,0.0,0.0,0.0,0.0,0.0,0.0,0.0,0.0,0.0,0.0,0.0,0.0,0.0,0.0,0.0,0.0,0.0,0.0,0.0,0.0,0.0,0.0,0.0,0.0,0.0,0.0,0.0,0.0,0.0,0.0,0.0,2.9043,2.8452,2.8252,2.7977,2.7656,2.7623,2.764,2.7623,2.754,2.7503,0.0,0.0,0.0,0.0,0.0,0.0,0.0,0.0,0.0,0.0,0.0,0.0,0.0,0.0,0.0,0.0,0.0,0.0,0.0,0.0,0.0,0.0,0.0,0.0,0.0,0.0,0.0,0.0,0.0,0.0,0.0,0.0,0.0,0.0,0.0,0.0,0.0,0.0,0.0,0.0,0.0,0.0,1.7025,1.7092,0.0,0.0,0.0,1.7008,1.7018,0.0,0.0,0.0,0.0,0.0,0.0,0.0,0.0,0.0,0.0,0.0,0.0,0.0,0.0,0.0,0.0,0.0,0.0,0.0,0.0,0.0,0.0,0.0,0.0,0.0,0.0,0.0,0.0,0.0,0.0,0.0,0.0,0.0,0.0,0.0,0.0,0.0,0.0,0.0,0.0,0.0,0.0,0.0,0.0,0.0,0.0,0.0,0.0,0.0,0.0,0.0,0.0,0.0,0.0,0.0,0.0,0.0,2.839,2.7794,2.7503,2.7503,2.7503,2.7503,2.7503,2.7503,0.0,0.0,0.0,0.0,0.0,0.0,0.0,0.0,0.0,0.0,0.0,0.0,0.0,0.0,0.0,0.0,0.0,0.0,0.0,0.0,0.0,0.0,0.0,0.0,0.0,0.0,0.0,1.9965,0.0,0.0,0.0,0.0,0.0,0.0,0.0,0.0,0.0,0.0,0.0,0.0,0.0,0.0,1.6969,1.6913,1.6927,1.6909,0.0,0.0,1.687,1.6807,1.6733,1.6708,0.0,0.0,0.0,0.0,0.0,0.0,0.0,0.0,0.0,0.0,0.0,0.0,0.0,0.0,0.0,0.0,0.0,0.0,0.0,0.0,0.0,0.0,0.0,0.0,0.0,0.0,0.0,0.0,0.0,0.0,0.0,0.0,0.0,0.0,0.0,0.0,0.0,0.0,0.0,0.0,0.0,0.0,0.0,0.0,0.0,0.0,0.0,0.0,0.0,0.0,0.0,0.0,0.0,0.0,0.0,2.839,2.7811,2.7503,2.7503,2.7503,2.7503,2.7503,2.7503,2.7503,0.0,0.0,0.0,0.0,0.0,0.0,0.0,0.0,0.0,0.0,0.0,0.0,0.0,0.0,0.0,0.0,0.0,0.0,0.0,0.0,0.0,0.0,0.0,0.0,0.0,0.0,0.0,0.0,0.0,0.0,0.0,0.0,0.0,0.0,0.0,0.0,0.0,0.0,0.0,0.0,0.0,1.6913,1.6655,1.6737,1.6765,0.0,0.0,1.6655,1.679,1.6577,1.6516,1.6751,0.0,0.0,0.0,0.0,0.0,0.0,0.0,0.0,0.0,0.0,0.0,0.0,0.0,0.0,0.0,0.0,0.0,0.0,0.0,0.0,0.0,0.0,0.0,0.0,0.0,0.0,0.0,0.0,0.0,0.0,0.0,0.0,0.0,0.0,0.0,0.0,0.0,0.0,0.0,0.0,0.0,0.0,0.0,0.0,0.0,0.0,0.0,0.0,0.0,0.0,0.0,0.0,0.0,2.9523,2.897,2.8364,2.7872,2.7516,2.7503,2.7503,2.7503,2.7503,2.7503,0.0,0.0,0.0,0.0,0.0,0.0,0.0,0.0,0.0,0.0,0.0,0.0,0.0,0.0,0.0,0.0,0.0,0.0,0.0,0.0,0.0,0.0,0.0,0.0,0.0,0.0,0.0,0.0,2.0025,1.9749,1.9162,0.0,0.0,0.0,0.0,0.0,0.0,0.0,0.0,0.0,0.0,1.6726,1.6609,1.6641,0.0,0.0,1.6538,1.6595,1.6563,1.6459,1.6441,1.6531,1.6484,0.0,0.0,0.0,0.0,0.0,0.0,0.0,0.0,0.0,0.0,0.0,0.0,0.0,0.0,0.0,0.0,0.0,0.0,0.0,0.0,0.0,0.0,0.0,0.0,0.0,0.0,0.0,0.0,0.0,0.0,0.0,0.0,0.0,0.0,0.0,0.0,0.0,0.0,0.0,0.0,0.0,0.0,0.0,0.0,0.0,0.0,0.0,0.0,0.0,0.0,0.0,0.0,2.991,2.9554,2.8795,2.8194,2.7798,2.7581,2.7503,2.7503,2.7503,2.7503,0.0,0.0,0.0,0.0,0.0,0.0,0.0,0.0,0.0,0.0,0.0,0.0,0.0,0.0,0.0,0.0,0.0,0.0,0.0,0.0,0.0,0.0,0.0,0.0,0.0,0.0,0.0,0.0,1.9878,1.964,1.9164,0.0,0.0,0.0,0.0,0.0,0.0,0.0,0.0,0.0,0.0,1.6581,1.6538,1.6538,1.6506,1.6416,1.6477,1.6506,1.6416,1.6388,1.6388,1.6388,0.0,0.0,0.0,0.0,0.0,0.0,0.0,0.0,0.0,0.0,0.0,0.0,0.0,0.0,0.0,0.0,0.0,0.0,0.0,0.0,0.0,0.0,0.0,0.0,0.0,0.0,0.0,3.1005,0.0,0.0,3.1005,0.0,0.0,0.0,0.0,0.0,0.0,0.0,0.0,0.0,0.0,0.0,0.0,0.0,0.0,0.0,0.0,0.0,0.0,0.0,0.0,0.0,0.0,3.0087,3.0061,2.8987,2.8403,2.8351,2.7824,2.7533,2.7503,2.7503,2.7503,2.7469,0.0,0.0,0.0,0.0,0.0,0.0,0.0,0.0,0.0,0.0,0.0,0.0,0.0,0.0,0.0,0.0,0.0,0.0,0.0,0.0,0.0,0.0,0.0,0.0,0.0,0.0,1.9605,1.9615,1.9605,0.0,0.0,0.0,0.0,0.0,0.0,0.0,0.0,0.0,0.0,1.6609,1.6552,1.6431,1.6416,1.6402,1.6388,1.6416,1.6416,1.6388,1.6388,1.6388,0.0,0.0,0.0,0.0,0.0,0.0,0.0,0.0,0.0,0.0,0.0,0.0,0.0,0.0,0.0,0.0,0.0,0.0,0.0,0.0,0.0,0.0,0.0,0.0,0.0,0.0,0.0,3.1005,3.1005,0.0,0.0,0.0,0.0,0.0,0.0,0.0,0.0,0.0,0.0,0.0,2.8195,2.7614,0.0,0.0,0.0,0.0,0.0,0.0,0.0,0.0,0.0,0.0,0.0,0.0,3.0497,3.01,2.974,2.9157,2.8416,2.8207,2.7915,2.7516,2.7503,2.7192,2.6573,0.0,0.0,0.0,0.0,0.0,0.0,0.0,0.0,0.0,0.0,0.0,0.0,0.0,0.0,0.0,0.0,0.0,0.0,0.0,0.0,0.0,0.0,0.0,0.0,0.0,1.955,0.0,0.0,0.0,0.0,0.0,0.0,0.0,0.0,0.0,0.0,0.0,1.7115,1.7072,1.6708,1.6445,1.6402,1.6388,1.6388,0.0,0.0,0.0,0.0,0.0,0.0,0.0,0.0,0.0,0.0,0.0,0.0,0.0,0.0,1.269,1.2606,1.2606,1.2575,1.2413,0.0,0.0,0.0,0.0,0.0,0.0,0.0,0.0,0.0,0.0,0.0,0.0,0.0,0.0,3.0171,0.0,2.9884,0.0,0.0,0.0,0.0,0.0,0.0,0.0,0.0,2.7622,2.7209,2.7066,2.6504,2.6545,0.0,2.718,2.7686,0.0,0.0,0.0,0.0,0.0,0.0,0.0,0.0,3.0822,3.0419,3.021,2.974,2.8995,2.8356,2.7829,2.7451,2.6926,2.6188,2.5234,2.4726,2.4115,0.0,0.0,0.0,0.0,0.0,0.0,0.0,0.0,0.0,0.0,0.0,0.0,0.0,0.0,0.0,0.0,0.0,0.0,0.0,0.0,0.0,0.0,0.0,1.9363,0.0,0.0,0.0,0.0,0.0,0.0,0.0,0.0,0.0,1.8291,1.7793,1.745,1.745,1.711,1.6864,1.6864,0.0,0.0,0.0,0.0,0.0,0.0,0.0,1.6388,1.6388,1.6206,1.5894,1.5464,1.4543,1.3692,1.3253,0.0,0.0,1.2483,1.2467,1.239,1.2243,1.2228,1.2197,1.2112,1.2042,1.1996,0.0,0.0,0.0,0.0,0.0,0.0,0.0,0.0,2.9081,2.8624,0.0,2.7872,0.0,0.0,0.0,0.0,0.0,2.729,0.0,0.0,2.5694,2.5221,2.5221,2.5221,2.52,2.52,2.5485,2.5904,2.6524,2.7481,0.0,0.0,0.0,0.0,0.0,0.0,3.0917,3.0835,3.0308,3.0059,2.9962,2.8237,2.7268,2.7188,2.5759,2.4517,2.3569,2.3489,2.3132,2.244,2.2402,0.0,0.0,0.0,0.0,0.0,0.0,0.0,0.0,0.0,0.0,0.0,0.0,0.0,0.0,0.0,0.0,0.0,0.0,0.0,0.0,1.9058,0.0,0.0,0.0,0.0,0.0,0.0,0.0,0.0,0.0,0.0,1.8486,1.8019,1.773,1.7735,0.0,0.0,0.0,0.0,1.7699,1.7688,1.7327,1.7022,1.7037,1.6715,1.645,1.645,0.0,0.0,1.3767,1.3042,1.2636,1.2598,1.256,1.2521,1.2344,1.2228,1.212,1.2096,1.2073,1.2096,1.2058,1.1918,1.1794,3.0362,0.0,0.0,0.0,0.0,2.9825,2.9387,2.9062,2.8434,2.8044,2.7804,2.7804,0.0,0.0,0.0,0.0,0.0,0.0,2.7055,2.6235,2.6163,2.5736,2.4988,2.4988,2.4988,2.4978,2.5084,2.5179,2.5369,2.5673,2.7055,2.9427,0.0,0.0,0.0,0.0,2.9561,2.8986,2.9213,2.9239,2.8963,2.7693,2.6672,2.5948,2.4634,2.3734,2.3294,2.2771,2.2411,2.2195,2.2176,0.0,0.0,0.0,0.0,0.0,0.0,0.0,0.0,0.0,0.0,0.0,0.0,0.0,0.0,0.0,0.0,0.0,0.0,0.0,1.9108,1.8155,1.7952,0.0,0.0,0.0,0.0,0.0,0.0,0.0,0.0,0.0,1.8922,1.8491,1.8211,0.0,0.0,1.7709,1.7709,1.7709,1.7709,1.7709,1.7595,0.0,1.7502,1.7414,1.7331,1.7331,1.6407,1.5318,1.4192,1.3381,1.275,1.2344,1.2135,1.2095,1.2252,1.2281,1.2174,1.1949,1.188,1.1856,1.1763,1.17,1.1661,2.9548,2.9651,2.9806,2.9838,2.969,2.8846,2.8207,2.7755,2.7238,2.6821,2.6492,2.6492,2.6739,2.7136,2.7227,0.0,0.0,0.0,2.6214,2.5463,2.5631,2.538,2.4764,2.4743,2.4743,2.4743,2.4839,2.4839,2.4743,2.4839,2.5965,2.8024,0.0,0.0,2.875,2.8762,2.8505,2.8024,2.8374,2.8486,2.8205,2.7078,2.5802,2.4393,2.3621,2.3042,2.2652,2.2241,2.1968,2.1978,2.1997,2.1978,0.0,0.0,0.0,0.0,0.0,0.0,0.0,0.0,0.0,0.0,0.0,2.0542,2.1061,0.0,0.0,0.0,1.938,1.9295,1.9119,1.829,0.0,0.0,0.0,0.0,0.0,0.0,0.0,1.9098,1.9098,1.9098,1.9098,1.9015,1.8874,1.8714,1.8423,1.8252,1.8268,0.0,1.8241,1.8252,1.8086,1.7962,1.7973,1.7828,1.7497,1.6882,1.6178,1.519,1.3928,1.3304,1.2885,1.2534,1.2358,1.2322,1.246,1.2495,1.243,1.2142,1.2078,1.2053,1.1973,1.1941,1.1957,2.8419,2.8403,2.8708,2.8767,2.8593,2.775,2.6771,2.5798,2.5714,2.5263,2.4518,2.4507,2.5052,2.5976,2.6246,0.0,2.4861,2.4871,2.4754,2.4507,2.4507,2.4507,2.4507,2.4497,2.4507,2.4507,2.4764,2.4743,2.4518,2.4764,2.5253,2.5955,2.5976,2.6534,2.7602,2.7651,2.7643,2.7562,2.7622,2.7611,2.7518,2.6376,2.4825,2.297,2.2807,2.2488,2.1899,2.1818,2.1788,2.1788,2.1788,2.1788,2.1788,0.0,0.0,0.0,0.0,0.0,0.0,0.0,0.0,0.0,0.0,0.0,0.0,0.0,0.0,0.0,1.9739,0.0,1.9074,1.8969,0.0,0.0,0.0,1.9098,1.9098,1.9139,1.916,1.915,0.0,0.0,1.9212,1.9585,1.9672,1.9241,1.9195,1.9191,1.916,1.915,1.9166,1.9056,1.8702,1.8433,1.8449,1.8112,1.7414,1.6142,1.5506,1.4886,1.3578,1.3003,1.2983,1.2902,1.294,1.2914,1.2826,1.2801,1.2756,1.2609,1.2516,1.2504,1.2465,1.2451,1.2443,2.7774,2.7395,2.6821,2.6935,2.7435,2.6565,2.6048,2.5767,2.5084,2.47,2.4507,2.4507,2.4636,2.4892,2.4946,2.4818,2.4604,2.4594,2.4561,2.4507,2.4507,2.4507,2.4507,2.4507,2.4507,2.4507,2.4561,2.4561,2.4507,2.4561,2.4679,2.4861,2.4861,2.5432,2.6472,2.6556,2.6257,2.5589,2.6027,2.5944,2.5316,2.5341,2.4789,2.368,2.2943,2.2508,2.2335,2.1994,2.1788,2.1788,2.1788,2.1788,2.1788,2.1788,0.0,0.0,0.0,0.0,0.0,0.0,0.0,0.0,0.0,1.9895,2.0574,0.0,1.943,0.0,1.704,1.6919,1.8484,1.7906,0.0,0.0,1.9098,1.9098,1.9108,1.9419,1.9637,1.9637,1.9893,2.0092,2.01,2.0203,2.0163,1.9892,1.9994,1.9986,1.9699,1.9637,1.9502,1.9174,1.8886,1.8771,1.8862,1.8711,1.8228,1.7445,1.6301,1.5232,1.4568,1.341,1.262,1.2627,1.262,1.2699,1.2907,1.2961,1.3047,1.3188,1.2852,1.2509,1.2509,1.2516,1.2516,2.738,2.7071,2.6217,2.6131,2.6484,2.5604,2.5221,2.5179,2.4722,2.4507,2.4507,2.4507,2.4507,2.4507,2.4507,2.4507,2.4507,2.4507,2.4507,2.4507,2.4507,2.4507,2.4507,2.4507,2.4507,2.4507,2.4507,2.4507,2.4507,2.4507,2.4507,2.4507,2.4507,2.4807,2.5369,2.5422,2.52,2.4754,2.5041,2.4978,2.4519,2.4756,2.4576,2.3919,2.3401,2.2915,2.2501,2.2252,2.2025,2.1818,2.1788,2.1788,2.1788,2.1788,2.1788,0.0,0.0,0.0,0.0,0.0,0.0,0.0,0.0,0.0,0.0,0.0,1.9506,1.9136,1.8331,1.8238,1.9237,1.8795,1.879,1.9589,1.9675,1.9675,1.9675,1.9893,2.0076,2.0065,2.0265,2.0374,2.0403,2.0589,2.064,2.0433,2.0687,2.0622,1.9966,1.9805,1.9703,1.9441,1.9168,1.8931,1.8865,1.8741,1.8409,1.7662,1.6803,1.5924,1.4942,1.4064,1.3336,1.3045,1.294,1.2991,1.3184,1.3221,1.3294,1.3375,1.3214,1.2969,1.294,1.2958,1.2958,2.7093,2.6951,2.6213,2.5908,2.5835,2.5015,2.4642,2.458,2.4528,2.4507,2.4507,2.4507,2.4507,2.4507,2.4507,2.4507,2.4507,2.4507,2.4507,2.4507,2.4507,2.4507,2.4507,2.4507,2.4507,2.4507,2.4507,2.4507,2.4507,2.4507,2.4507,2.4507,2.4507,2.4507,2.4507,2.4507,2.4507,2.4507,2.4507,2.4507,2.4507,2.4507,2.4311,2.4002,2.3929,2.3525,2.2738,2.2553,2.2315,2.1921,2.1838,2.1788,2.1788,2.1788,2.1788,0.0,2.1788,0.0,0.0,0.0,0.0,0.0,0.0,0.0,0.0,1.9697,1.9771,2.0931,2.0886,2.0663,2.0347,2.0301,2.0306,2.0385,2.0374,2.0374,2.0374,2.0436,2.0496,2.0478,2.0547,2.0589,2.063,2.0922,2.1077,2.0903,2.1112,2.0956,2.0136,1.9925,1.9899,1.9815,1.946,1.9042,1.8655,1.8515,1.8158,1.732,1.6887,1.6394,1.4846,1.447,1.4199,1.3644,1.344,1.3462,1.3492,1.3477,1.3477,1.3484,1.3462,1.344,1.344,1.3433,1.3492,2.649,2.6135,2.5955,2.5908,2.5887,2.5711,2.543,2.5034,2.4652,2.4507,2.4507,2.4507,2.4507,2.4507,2.4507,2.4507,2.4507,2.4507,2.4507,2.4507,2.4507,2.4507,2.4507,2.4507,2.4507,2.4507,2.4507,2.4507,2.4507,2.4507,2.4507,2.4507,2.4507,2.4507,2.4507,0.0,0.0,0.0,2.4507,2.4507,2.4507,2.4507,2.4487,2.4394,2.4074,0.0,2.3629,2.2914,2.2459,2.2366,2.2004,0.0,0.0,0.0,0.0,0.0,0.0,0.0,0.0,0.0,0.0,0.0,2.0362,2.007,1.958,1.9383,1.967,2.0497,1.9793,1.944,1.9934,1.9691,1.9755,2.0331,2.0385,2.0374,2.0395,2.0734,2.099,2.0971,2.1292,2.1519,2.148,2.148,2.135,2.1131,2.1059,2.0865,2.0505,2.0387,2.0234,1.9873,1.9474,1.9056,1.864,1.8466,1.8061,1.7131,1.6359,1.5684,1.4841,1.4122,1.3739,1.3492,1.3492,1.3492,1.3492,1.3492,1.3492,1.3492,1.3492,1.3492,1.3492,1.3492,1.3492,2.6799,2.6604,2.6604,2.6592,0.0,2.6343,2.6125,2.5854,2.5409,2.5202,2.518,2.517,2.518,2.5159,2.4963,2.4848,2.4828,2.46,2.4507,2.4507,2.4507,2.4507,2.4507,2.4507,2.4507,2.4507,2.4507,2.4507,2.4507,2.4507,2.4507,2.4507,2.4507,2.4507,2.4507,2.4507,2.4507,2.4507,2.4507,2.4507,2.4507,2.4507,2.4507,2.4497,2.4301,0.0,0.0,0.0,0.0,0.0,0.0,0.0,0.0,2.1788,0.0,2.1788,2.1788,2.1788,2.1788,2.1788,2.1424,2.0586,2.0723,2.0565,1.9933,2.0294,2.0711,2.1088,2.0601,2.0415,2.0776,2.065,2.0687,2.103,2.1085,2.1085,2.1106,2.1292,2.1399,2.1326,2.1511,2.1617,2.1531,2.1425,2.1273,2.108,2.0964,2.0819,2.0634,2.0573,2.0372,1.9927,1.97,1.9398,1.9028,1.8646,1.8345,1.7743,1.6921,1.6053,1.5278,1.4545,1.3941,1.3593,1.3492,1.3492,1.3492,1.3492,1.3492,1.3492,1.3492,1.3492,1.3492,1.3492,1.3492,2.74,2.7389,2.7306,2.732,2.7278,2.6905,2.6716,2.6698,0.0,0.0,0.0,2.5908,2.5908,2.5877,2.5502,2.5325,2.5294,2.4922,2.4745,2.4735,2.4756,2.4756,2.4756,2.4767,2.4693,2.4621,2.4611,2.4569,2.4507,2.4507,2.4507,2.4507,2.4507,2.4507,2.4507,2.4507,2.4507,2.4507,2.4507,2.4507,2.4507,2.4507,2.4507,2.4507,2.4507,2.4353,2.4033,2.395,2.3546,2.2791,2.2656,2.2408,2.1943,2.1932,2.188,2.1818,2.188,2.1902,2.1921,2.2004,2.1756,2.1026,2.1332,2.1342,2.0888,2.1579,2.2037,2.1977,2.1988,2.1968,2.193,2.1911,2.1911,2.194,2.193,2.1911,2.1911,2.193,2.1854,2.1698,2.1719,2.1641,2.1516,2.1438,2.129,2.1064,2.0996,2.0849,2.0664,2.0586,2.0468,2.0136,1.994,1.9756,1.9443,1.9043,1.8708,1.8429,1.7569,1.6643,1.5836,1.5024,1.4315,1.373,1.3568,1.3499,1.3492,1.3492,1.3492,1.3492,1.3492,1.3492,1.3492,1.3492,1.3473,2.7821,2.78,2.7441,2.732,2.7299,2.7213,2.7206,2.7109,2.6281,2.5908,2.5908,2.5908,2.5908,2.5897,2.5846,2.5804,2.5804,2.5742,2.5721,2.5721,2.5721,2.5711,2.5711,2.5711,2.5492,2.5117,2.5118,2.4879,2.4538,2.4518,2.4507,2.4507,2.4507,2.4507,2.4507,2.4507,2.4507,2.4507,2.4507,2.4507,2.4507,2.4507,2.4507,2.4507,2.4507,2.4476,2.4404,2.4084,2.3846,2.3701,2.3318,2.2884,2.2439,2.2397,2.2221,2.1869,2.218,2.2397,2.2408,2.277,2.2947,2.2847,2.2868,2.2734,2.2302,2.27,2.2907,2.2685,2.2624,2.2585,2.2423,2.2403,2.2382,2.2382,2.2382,2.2413,2.2372,2.2362,2.2352,2.2302,2.2362,2.2322,2.2201,2.2099,2.1828,2.1481,2.1233,2.1006,2.0693,2.0596,2.0586,2.0459,2.0146,1.9903,1.9805,1.9473,1.9028,1.835,1.7539,1.6664,1.5957,1.49,1.4179,1.3946,1.3744,1.3583,1.3536,1.3492,1.3536,1.355,1.3536,1.3521,1.3506,1.3473,1.3437,2.8272,2.8251,2.8079,2.7852,2.7627,2.7389,2.732,2.7278,2.684,2.6654,2.6654,2.6643,2.6677,2.6646,2.6384,2.6281,2.627,2.6011,2.5908,2.5908,2.5908,2.5908,2.5908,2.5908,2.5804,2.5585,2.5585,2.5471,2.5285,2.5242,2.5128,2.4879,2.4653,2.4507,2.4507,2.4507,2.4507,2.4507,2.4507,2.4507,2.4507,2.4507,2.4507,2.4507,2.4507,2.4507,2.4507,2.4322,2.4126,2.3909,2.3712,2.3309,2.2714,2.2803,2.271,2.2396,2.269,2.2813,2.2653,2.2777,2.2819,2.2819,2.3063,2.3114,2.289,2.3063,2.3143,2.3032,2.3012,2.291,2.2696,2.2666,2.2625,2.2502,2.2482,2.2482,2.2482,2.2482,2.2471,2.2369,2.2328,2.2307,2.2184,2.2081,2.1991,2.1714,2.1436,2.1084,2.0683,2.0596,2.0596,2.0576,2.0429,2.0293,2.0263,1.9912,1.9509,1.9154,1.7882,1.6901,1.6299,1.5248,1.4414,1.4264,1.4144,1.4059,1.4011,1.4045,1.3979,1.3784,1.3781,1.373,1.3572,1.3328,1.3174,2.8737,2.8737,2.8624,2.8376,2.8024,2.7731,2.7534,2.7441,2.7431,2.7379,2.732,2.732,2.732,2.7268,2.6902,2.6747,2.6729,2.6374,2.6229,2.6219,2.6208,2.6219,2.6219,2.6231,2.6156,2.6074,2.6063,2.6011,2.5918,2.5908,2.5709,2.5368,2.4994,2.4777,2.4652,2.4652,2.46,2.4507,2.4507,2.4507,2.4507,2.4507,2.4507,2.4507,2.4507,2.4507,2.4507,2.4507,2.4363,2.4064,2.4022,2.3711,2.3043,2.3166,2.3104,2.2808,2.3033,2.3156,2.3032,2.2897,2.2794,2.2814,2.3115,2.3338,2.3329,2.3349,2.333,2.3279,2.3268,2.3165,2.2917,2.2855,2.2815,2.2659,2.2628,2.2657,2.2648,2.2628,2.2566,2.242,2.2388,2.2355,2.2231,2.2168,2.2169,2.2032,2.163,2.1221,2.084,2.0732,2.0713,2.0625,2.0596,2.0566,2.0586,2.0303,2.0069,2.003,1.8662,1.7773,1.7261,1.6074,1.5011,1.4918,1.4623,1.4479,1.447,1.4404,1.4256,1.404,1.3951,1.3841,1.3634,1.3334,1.3058,2.9239,2.9177,2.8814,2.8572,2.852,2.8458,2.8235,2.7869,2.7838,2.7634,2.7382,2.732,2.732,2.7309,2.7247,2.7226,2.7203,2.7172,2.7154,2.7154,2.7185,2.7185,2.7133,2.7164,2.6944,2.6581,2.6529,2.6343,2.6001,2.5929,2.5887,2.5846,2.5771,2.5533,2.519,2.5139,2.4921,2.4518,2.4507,2.4507,2.4507,2.4507,2.4507,2.4507,2.4507,2.4507,2.4507,2.4507,2.4487,2.4445,2.4425,2.4122,2.3523,2.344,2.3195,2.2624,2.2957,2.334,2.3649,2.3708,2.3615,2.3687,2.3655,2.3685,2.3717,2.372,2.3645,2.3507,2.3453,2.3348,2.3104,2.3065,2.3059,2.3008,2.2995,2.3061,2.3024,2.3039,2.3049,2.3049,2.2942,2.3018,2.2908,2.2898,2.2791,2.2401,2.207,2.167,2.1249,2.1142,2.1025,2.0732,2.0625,2.0625,2.0595,2.0566,2.0468,2.042,1.9711,1.8993,1.8442,1.7316,1.6028,1.5742,1.5147,1.4634,1.4518,1.4328,1.4193,1.4143,1.4002,1.3805,1.3765,1.3573,1.3334,2.9715,2.9684,2.9508,2.927,2.9011,2.8731,2.8514,2.8313,2.8313,2.8224,2.8038,2.7779,2.7524,2.732,2.732,2.732,2.732,2.732,2.732,2.732,2.732,2.732,2.732,2.732,2.7195,2.704,2.7029,2.6926,2.6695,2.6447,2.6312,2.627,2.6043,2.5815,2.5616,2.5616,2.5366,2.4921,2.4801,2.4667,2.4538,2.4507,2.4507,2.4507,2.4507,2.4507,2.4497,2.439,2.4335,2.4314,2.4175,2.3921,2.3525,2.36,2.351,2.3137,2.3265,2.3444,2.3614,2.3493,2.3385,2.3396,2.3385,2.3375,2.3375,2.3375,2.3363,2.3319,2.3515,2.358,2.3363,2.3319,2.3254,2.3144,2.3101,2.3101,2.3101,2.3101,2.3101,2.3101,2.3101,2.3101,2.3101,2.3101,2.2937,2.2586,2.2344,2.21,2.1699,2.1621,2.1426,2.1084,2.0967,2.083,2.0664,2.0596,2.0596,2.045,1.9873,1.9312,1.9078,1.7783,1.6504,1.6537,1.5685,1.51,1.5052,1.4851,1.4667,1.4409,1.4026,1.3797,1.3797,1.3633,1.3436,2.9879,2.9905,2.9968,2.9808,2.9466,2.9135,2.8893,2.8804,2.8779,2.8706,2.8551,2.8231,2.7945,2.7648,2.7434,2.732,2.732,2.732,2.732,2.732,2.732,2.732,2.732,2.732,2.732,2.732,2.7309,2.7309,2.7278,2.6998,2.6788,2.6726,2.6436,2.6241,2.6094,2.6026,2.5741,2.5307,2.4973,2.4695,2.4497,2.4387,2.4347,2.4411,2.4325,2.4325,2.4325,2.4185,2.4088,2.4088,2.3884,2.3711,2.3525,2.3655,2.3602,2.3438,2.3394,2.3385,2.3385,2.321,2.3101,2.3101,2.3101,2.3101,2.3101,2.3101,2.3101,2.3144,2.3396,2.3515,2.3428,2.3385,2.3297,2.3113,2.3101,2.3101,2.3101,2.3101,2.3101,2.3101,2.3101,2.3101,2.3101,2.3091,2.2974,2.2752,2.2674,2.2518,2.2178,2.2051,2.1904,2.1474,2.1396,2.1172,2.0723,2.0596,2.0596,2.0508,2.003,1.9755,1.9598,1.8298,1.72,1.7304,1.637,1.5581,1.5196,1.5045,1.4831,1.4509,1.4156,1.3876,1.3898,1.3749,1.3688,2.9606,2.9659,2.9889,2.9937,2.9916,2.9885,2.9637,2.9229,2.928,2.9042,2.8686,2.8607,2.8566,2.8462,2.7731,2.733,2.7351,2.7361,2.7351,2.7351,2.732,2.732,2.732,2.732,2.732,2.732,2.732,2.7296,2.7275,2.7255,2.7255,2.7223,2.7127,2.6964,2.6553,2.6292,2.5938,2.5488,2.4921,2.4547,2.4456,2.4072,2.3989,2.4172,2.397,2.3884,2.3841,2.3819,2.3819,2.3841,2.3776,2.3689,2.3525,2.3503,2.3385,2.3188,2.3144,2.3144,2.3144,2.3123,2.3101,2.3101,2.3101,2.3101,2.3101,2.3101,2.3101,2.3101,2.3144,2.3157,2.3166,2.3166,2.3135,2.3113,2.3101,2.3101,2.3101,2.3101,2.3101,2.3101,2.3101,2.3101,2.3101,2.3101,2.3081,2.3033,2.3042,2.2918,2.2586,2.2459,2.2295,2.2013,2.1817,2.1583,2.082,2.0693,2.0674,2.0508,2.0391,2.0333,2.0187,1.9785,1.8818,1.7876,1.678,1.5891,1.5305,1.4866,1.4587,1.4323,1.4184,1.404,1.4007,1.4058,1.4011,2.929,2.929,2.9369,2.9432,2.9432,2.9432,2.9425,2.9475,2.9501,2.9497,2.943,2.9187,2.9037,2.8996,2.8411,2.8131,2.809,2.7831,2.7686,2.7655,2.742,2.732,2.732,2.732,2.732,2.732,2.732,2.719,2.7071,2.7225,2.7119,2.6856,2.6986,2.687,2.6594,2.6445,2.6162,2.5691,2.5304,2.5058,2.4839,2.4182,2.391,2.4099,2.3926,2.3797,2.3797,2.3677,2.3602,2.3612,2.3428,2.3319,2.3254,2.3254,2.321,2.3113,2.3101,2.3101,2.3101,2.3101,2.3101,2.3101,2.3101,2.3101,2.3101,2.3101,2.3101,2.3101,2.3101,2.3101,2.3101,2.3101,2.3101,2.3101,2.3101,2.3101,2.3101,2.3101,2.3101,2.3101,2.3101,2.3101,2.3101,2.3101,2.3101,2.3101,2.3101,2.3023,2.2925,2.2867,2.2713,2.2412,2.2266,2.2017,2.1309,2.1052,2.0908,2.0556,2.0303,1.9814,1.9549,1.8858,1.7888,1.7127,1.6329,1.5739,1.4992,1.4727,1.4405,1.4229,1.4109,1.4109,1.4103,1.4109,1.4109,2.8999,2.9105,2.9105,2.9105,2.9105,2.9105,2.9237,2.9422,2.9448,2.9527,2.9634,2.9367,2.9234,2.9183,2.8906,2.8747,2.8691,2.8218,2.7955,2.784,2.7671,2.7528,2.738,2.7383,2.7301,2.7174,2.7095,2.6928,2.6818,2.6952,2.6866,2.6554,2.6675,2.6675,2.652,2.6424,2.6182,2.5898,2.5559,2.5274,2.5027,2.4369,2.4062,2.4129,2.3952,2.3732,2.359,2.345,2.3363,2.3351,2.3188,2.3101,2.3101,2.3101,2.3101,2.3101,2.3101,2.3101,2.3101,2.3101,2.3101,2.3101,2.3101,2.3101,2.3101,2.3101,2.3101,2.3101,2.3101,2.3101,2.3101,2.3101,2.3101,2.3101,2.3101,2.3101,2.3101,2.3101,2.3101,2.3101,2.3101,2.3101,2.3101,2.3101,2.3101,2.3101,2.3057,2.3013,2.3079,2.3016,2.2935,2.2675,2.2596,2.2264,2.175,2.1433,2.1073,2.0695,2.0214,1.9615,1.8814,1.8014,1.718,1.6419,1.5767,1.5235,1.4824,1.4552,1.4328,1.4145,1.4109,1.4109,1.4109,1.4109,1.4109,2.885,2.9052,2.9069,2.9052,2.9026,2.9036,2.9079,2.9105,2.9105,2.9132,2.9201,2.9118,2.914,2.9118,2.908,2.9051,2.8896,2.8329,2.7991,2.789,2.803,2.7861,2.7525,2.7568,2.7353,2.6972,2.6681,2.655,2.652,2.6544,2.6544,2.6472,2.6472,2.6472,2.6448,2.6221,2.6091,2.5933,2.548,2.5145,2.5043,2.4648,2.4424,2.4375,2.4059,2.3668,2.3223,2.3164,2.3144,2.3135,2.3123,2.3101,2.3101,2.3101,2.3101,2.3101,2.3101,2.3101,2.3101,2.3101,2.3101,2.3101,2.3101,2.3101,2.3101,2.3101,2.3101,2.3101,2.3101,2.3101,2.3101,2.3101,2.3101,2.3101,2.3101,2.3101,2.3101,2.3101,2.3101,2.3101,2.3101,2.3101,2.3101,2.3079,2.3057,2.3035,2.2904,2.2816,2.2947,2.286,2.2794,2.2765,2.2666,2.2378,2.2054,2.1726,2.1256,2.0813,2.027,1.9679,1.8673,1.7787,1.689,1.6103,1.5553,1.5019,1.4552,1.4307,1.425,1.4109,1.4109,1.4109,1.4109,1.4109,1.4109,2.8478,2.8521,2.8548,2.8531,2.8558,2.8558,2.8648,2.8834,2.8834,2.893,2.9089,2.9105,2.9105,2.9105,2.9105,2.8973,2.8751,2.7827,2.7643,2.8077,2.8,2.7839,2.7743,2.7728,2.7496,2.7083,2.6949,2.6646,2.6319,2.64,2.6328,2.6048,2.6125,2.6135,2.5975,2.5878,2.583,2.581,2.563,2.5503,2.5474,2.5098,2.4896,2.4848,2.4443,2.4128,2.3991,2.3435,2.311,2.311,2.3101,2.3101,2.3101,2.3101,2.3101,2.3101,2.3101,2.3101,2.3101,2.3101,2.3101,2.3101,2.3101,2.3101,2.3101,2.3101,2.3101,2.3101,2.3101,2.3101,2.3101,2.3101,2.3101,2.3101,2.3101,2.3101,2.3079,2.3101,2.3101,2.3101,2.3101,2.3101,2.3079,2.2991,2.2882,2.286,2.2684,2.2564,2.2596,2.2596,2.252,2.253,2.2479,2.2337,2.1851,2.1534,2.1222,2.0639,2.0065,1.9378,1.8422,1.745,1.6539,1.5752,1.5234,1.4831,1.4363,1.4166,1.4124,1.4109,1.4109,1.4109,1.4109,1.4109,1.4109,2.8301,2.8301,2.8301,2.8301,2.8211,2.7879,2.7718,2.7789,2.7403,2.7321,2.7419,2.7446,2.7734,2.7958,2.767,2.7653,2.7709,2.6635,2.6461,2.7119,2.7457,2.7589,2.78,2.7712,2.7467,2.7112,2.6918,2.6626,2.6236,2.619,2.6058,2.5805,2.5868,2.5893,2.5708,2.5708,2.5708,2.5708,2.5698,2.5708,2.5659,2.5459,2.5312,2.5254,2.4883,2.4678,2.4609,2.3952,2.3513,2.3367,2.322,2.3101,2.3101,2.3101,2.3101,2.3101,2.3101,2.3101,2.3101,2.3101,2.3101,2.3101,2.3101,2.3101,2.3101,2.3101,2.3101,2.3101,2.3101,2.3101,2.3101,2.3101,2.3101,2.3101,2.3101,2.3069,2.3013,2.2991,2.2925,2.286,2.2806,2.285,2.2816,2.275,2.264,2.2608,2.2441,2.2353,2.2353,2.2331,2.2309,2.2287,2.2287,2.198,2.1494,2.126,2.1132,2.0488,1.9783,1.896,1.8034,1.698,1.6021,1.5139,1.451,1.451,1.4145,1.4124,1.4109,1.4109,1.4109,1.4109,1.4109,1.4109,1.4109,2.8301,2.8301,2.8301,2.8211,2.7987,2.7052,2.6554,2.6236,2.537,2.4994,2.4939,2.5132,2.5534,2.6036,2.558,2.5644,2.6045,2.5205,2.4829,2.5262,2.5955,2.6788,2.7588,2.7611,2.745,2.7104,2.6785,2.6525,2.6348,2.607,2.5728,2.5718,2.5732,2.5708,2.5708,2.5708,2.5708,2.5708,2.5708,2.5708,2.5708,2.5664,2.5669,2.5635,2.5312,2.5131,2.5039,2.4639,2.4199,2.3809,2.3376,2.3191,2.3132,2.3101,2.3101,2.3101,2.3101,2.3101,2.3101,2.3101,2.3101,2.3101,2.3101,2.3101,2.3101,2.3069,2.3057,2.3035,2.3003,2.3003,2.3013,2.3013,2.3013,2.3047,2.3035,2.2969,2.2825,2.2803,2.2684,2.2508,2.2419,2.2419,2.2454,2.2441,2.2397,2.2344,2.223,2.2176,2.2198,2.2132,2.2097,2.2074,2.2052,2.1588,2.1091,2.0953,2.0726,1.9838,1.9134,1.8326,1.7551,1.6529,1.5626,1.4738,1.4232,1.417,1.4109,1.4116,1.4109,1.4109,1.4109,1.4109,1.4109,1.4109,1.4109,2.8301,2.8301,2.8301,2.7799,2.7025,2.6609,2.5963,2.5205,2.4837,2.4525,2.4635,2.4691,2.4782,2.5094,2.4837,2.4893,2.4837,2.3994,2.3986,2.4497,2.4125,2.5197,2.6795,2.7723,2.7868,2.7536,2.7263,2.7012,2.6426,2.6185,2.6005,2.5693,2.5718,2.5708,2.5708,2.5708,2.5708,2.5708,2.5708,2.5684,2.5659,2.5635,2.5708,2.5698,2.5509,2.5465,2.5493,2.5137,2.4541,2.3857,2.3701,2.3435,2.3159,2.311,2.3101,2.3101,2.3101,2.3101,2.3101,2.3101,2.3101,2.3101,2.3101,2.3101,2.3101,2.2969,2.2904,2.2847,2.2728,2.2586,2.2586,2.2608,2.2596,2.2618,2.275,2.2838,2.2759,2.2627,2.2463,2.2397,2.2375,2.2375,2.2331,2.2252,2.2185,2.2132,2.1998,2.1874,2.1932,2.1932,2.1874,2.182,2.1709,2.1177,2.0786,2.0642,2.0155,1.9152,1.8361,1.7584,1.6846,1.6063,1.528,1.4524,1.4477,1.4422,1.4243,1.4123,1.4116,1.4148,1.4088,1.4095,1.4109,1.4109,1.4109,2.7547,2.7493,2.7015,2.64,2.568,2.5241,2.4633,2.3958,2.3435,2.3211,2.3219,2.3247,2.3519,2.3902,2.3463,2.3547,2.3791,2.2785,2.2623,2.3051,2.3115,2.4384,2.6327,2.7709,2.8154,2.7877,2.7261,2.6968,2.6746,2.6135,2.5783,2.5927,2.5806,2.5708,2.5708,2.5708,2.5684,2.5708,2.5684,2.5528,2.5079,2.5011,2.4667,2.4486,2.4387,2.4486,2.4899,2.5097,2.48,2.4183,2.3887,2.3662,2.3415,2.3201,2.3101,2.3101,2.3101,2.3101,2.3101,2.3101,2.3101,2.3069,2.3025,2.2969,2.2925,2.2772,2.2618,2.2627,2.2485,2.2419,2.2397,2.2397,2.2397,2.2441,2.2463,2.2508,2.2517,2.2384,2.223,2.2163,2.2119,2.2109,2.2109,2.1998,2.1932,2.1909,2.182,2.1754,2.1731,2.1687,2.1687,2.1687,2.123,2.0605,1.9999,1.9749,1.8941,1.8002,1.7538,1.6775,1.6368,1.5723,1.53,1.4816,1.475,1.4656,1.4476,1.4344,1.4295,1.4295,1.4182,1.4122,1.4135,1.4236,1.4216,2.6327,2.6209,2.5141,2.4616,2.4394,2.3472,2.3059,2.2623,2.1845,2.1403,2.1432,2.1289,2.2008,2.2728,2.2008,2.1866,2.2757,2.1845,2.1461,2.1845,2.251,2.4086,2.5634,2.6907,2.7428,2.7326,2.6339,2.6517,2.6506,2.5398,2.5216,2.5574,2.5501,2.5425,2.5226,2.5274,2.5382,2.5348,2.5069,2.4633,2.4072,2.389,2.3592,2.3044,2.3119,2.3269,2.3865,2.4436,2.4649,2.4081,2.3912,2.3839,2.3745,2.3346,2.312,2.3081,2.304,2.3025,2.3035,2.2991,2.3035,2.2969,2.2806,2.275,2.2706,2.253,2.2397,2.2375,2.2344,2.2264,2.2264,2.2309,2.2264,2.2242,2.2163,2.2084,2.2074,2.2074,2.1963,2.1754,2.1718,2.1709,2.1687,2.1687,2.1709,2.1798,2.1731,2.1709,2.1687,2.1687,2.1687,2.1687,2.0975,1.9977,1.9361,1.8765,1.7677,1.6692,1.652,1.6112,1.6012,1.557,1.5369,1.5144,1.505,1.495,1.4859,1.4716,1.4603,1.4514,1.4489,1.4349,1.427,1.4404,1.4451,2.5094,2.5058,2.481,2.4181,2.3416,2.3087,2.2454,2.1596,2.1354,2.1211,2.1211,2.1211,2.1375,2.1624,2.1375,2.1375,2.1653,2.1346,2.1211,2.1382,2.2462,2.3115,2.4002,2.4984,2.548,2.548,2.5208,2.545,2.5654,2.4825,2.4258,2.4882,2.412,2.3626,2.4279,2.3809,2.3667,2.4122,2.3701,2.3219,2.2944,2.2785,2.2634,2.2307,2.2877,2.2819,2.2517,2.3201,2.3221,2.2851,2.335,2.3754,2.348,2.3243,2.3046,2.2961,2.29,2.2791,2.264,2.2747,2.2781,2.2618,2.2542,2.2485,2.2454,2.2287,2.2185,2.2119,2.1985,2.1919,2.1909,2.1865,2.1887,2.1887,2.1865,2.1807,2.1785,2.1776,2.1763,2.1741,2.1687,2.1687,2.1687,2.1687,2.1687,2.1687,2.1687,2.1687,2.1664,2.1664,2.1499,2.1387,2.028,1.927,1.8696,1.801,1.7037,1.6228,1.5967,1.5795,1.5681,1.5621,1.5511,1.5411,1.5324,1.526,1.518,1.5019,1.4892,1.4859,1.4796,1.4705,1.4638,1.4698,1.4678,2.3883,2.3819,2.3295,2.27,2.2207,2.2121,2.1788,2.1289,2.1211,2.1211,2.1211,2.1211,2.1211,2.1211,2.1211,2.1211,2.1211,2.1211,2.1211,2.1318,2.1902,2.2093,2.2207,2.2862,2.3463,2.4347,2.4125,2.4442,2.4658,2.3825,2.3248,2.4092,2.3029,2.2895,2.326,2.2743,2.2869,2.311,2.2693,2.2114,2.1667,2.1396,2.0989,2.0861,2.1422,2.1566,2.1075,2.1819,2.1971,2.1854,2.2245,2.2652,2.2706,2.2972,2.3037,2.2612,2.2817,2.2811,2.2761,2.2622,2.2552,2.2419,2.2331,2.2274,2.2198,2.2052,2.1919,2.1874,2.1776,2.1709,2.1687,2.1709,2.1687,2.1687,2.1687,2.1687,2.1687,2.1687,2.1687,2.1687,2.1687,2.1687,2.1687,2.1642,2.162,2.1597,2.162,2.162,2.1441,2.1365,2.0988,2.0551,1.943,1.8542,1.7994,1.7318,1.6527,1.6038,1.5872,1.5801,1.5755,1.5741,1.5728,1.5621,1.5545,1.5565,1.5484,1.5334,1.518,1.5146,1.5099,1.5068,1.5001,1.4919,1.4892,2.2728,2.2644,2.1624,2.1211,2.1211,2.1239,2.1268,2.1211,2.1211,2.1211,2.1211,2.1211,2.1211,2.1211,2.1211,2.1211,2.1211,2.1211,2.1211,2.1261,2.1318,2.1403,2.1432,2.1681,2.2284,2.393,2.3199,2.3363,2.364,2.2735,2.2266,2.2995,2.2339,2.192,2.2064,2.1962,2.1802,2.1895,2.1447,2.092,2.0295,1.9919,1.9409,1.9034,1.9694,1.9989,1.9886,2.04,2.0843,2.0749,2.0672,2.0575,2.089,2.2042,2.3001,2.1965,2.2376,2.2546,2.2648,2.2535,2.2353,2.2309,2.2141,2.203,2.1976,2.1865,2.1763,2.1741,2.1687,2.1687,2.1687,2.1687,2.1687,2.1687,2.1687,2.1642,2.1508,2.1486,2.1441,2.162,2.1154,2.0786,2.1275,2.1477,2.1508,2.1486,2.1486,2.1365,2.1118,2.0794,2.0303,1.9795,1.875,1.7707,1.7115,1.6904,1.6086,1.5944,1.5801,1.5801,1.5801,1.5788,1.5775,1.5788,1.5741,1.5728,1.5695,1.5555,1.5458,1.5418,1.5378,1.536,1.526,1.5133,1.514,2.1518,2.1489,2.1268,2.1211,2.1211,2.1211,2.1211,2.1211,2.1211,2.1211,2.1211,2.1211,2.1211,2.1211,2.1211,2.1211,2.1211,2.1211,2.1211,2.1211,2.1211,2.1211,2.1211,2.1175,2.1503,2.1596,2.1624,2.2199,2.2564,2.1555,2.1236,2.1695,2.0739,2.0241,2.0449,2.0078,2.0071,2.0349,1.9816,1.919,1.8982,1.8781,1.8598,1.8167,1.9042,1.9008,1.8506,1.8942,1.9124,1.8401,1.9053,1.8939,1.892,2.004,2.104,2.1559,2.1542,2.1691,2.2075,2.2127,2.2,2.1865,2.162,2.1696,2.1687,2.1655,2.153,2.1597,2.1642,2.1687,2.1687,2.1664,2.1674,2.1696,2.1553,2.1298,2.0741,2.047,2.0727,2.1096,2.0393,1.9818,2.0393,2.0763,2.0605,2.0515,2.0515,2.0221,1.9849,1.9552,1.9155,1.865,1.8087,1.7091,1.6211,1.6157,1.5849,1.5872,1.5801,1.5801,1.5801,1.5801,1.5801,1.5801,1.5801,1.5781,1.5748,1.5715,1.5688,1.5631,1.5638,1.5621,1.5545,1.5444,1.5531,2.1211,2.1211,2.1211,2.1211,2.1211,2.1211,2.1211,2.1211,2.1211,2.1211,2.1211,2.1211,2.1211,2.1211,2.1211,2.1211,2.1211,2.1211,2.1211,2.1211,2.1211,2.1211,2.1146,2.1024,2.096,2.0931,2.0881,2.1074,2.1641,2.0634,2.0327,2.0224,1.9367,1.9056,1.925,1.8997,1.8866,1.9001,1.8572,1.8193,1.8167,1.8082,1.7905,1.8036,1.8265,1.8187,1.7943,1.7963,1.8146,1.7838,1.812,1.8022,1.8027,1.8386,1.9406,2.0246,2.0468,2.0576,2.0844,2.0663,2.0275,2.0212,2.0243,2.0492,2.0817,2.0943,2.0975,2.1064,2.153,2.1477,2.1011,2.1365,2.1432,2.1087,2.0975,2.0492,1.9727,1.9132,1.9453,2.0076,1.9521,1.9201,1.9575,1.9735,1.959,1.9521,1.9521,1.9132,1.8657,1.8303,1.8025,1.7731,1.7295,1.6692,1.595,1.5872,1.5801,1.5801,1.5801,1.5801,1.5801,1.5801,1.5801,1.5801,1.5801,1.5801,1.5795,1.5761,1.5788,1.5801,1.5755,1.5721,1.5768,1.5795,1.5778,2.1211,2.1211,2.1211,2.1211,2.1211,2.1211,2.1211,2.1211,2.1211,2.1211,2.1211,2.1211,2.1211,2.1211,2.1211,2.1175,2.1117,2.1089,2.1081,2.106,2.1003,2.1003,2.0996,2.0816,2.0601,2.0608,2.05,2.0379,2.0501,2.0022,1.9628,1.9372,1.872,1.8351,1.8377,1.8403,1.8318,1.8187,1.8036,1.7938,1.7878,1.7747,1.7615,1.7615,1.7615,1.7635,1.7635,1.7687,1.774,1.7641,1.7661,1.7641,1.7615,1.7615,1.7995,1.8699,1.9219,1.9526,1.9694,1.9302,1.914,1.914,1.8911,1.9293,1.9689,1.9985,2.0008,2.0136,2.0484,2.0727,2.019,2.0619,2.0628,2.0257,1.9931,1.9613,1.8696,1.8102,1.7824,1.8141,1.8187,1.8557,1.8926,1.868,1.8519,1.8519,1.8496,1.8072,1.7591,1.7241,1.6967,1.681,1.6511,1.618,1.5849,1.5849,1.5801,1.5801,1.5801,1.5801,1.5801,1.5801,1.5801,1.5801,1.5801,1.5801,1.5801,1.5801,1.5801,1.5801,1.5801,1.5801,1.5801,1.573,1.5635,2.1211,2.1211,2.1211,2.1211,2.1211,2.1211,2.1211,2.1211,2.1211,2.1211,2.1211,2.1211,2.1203,2.1175,2.1182,2.1024,2.0845,2.0752,2.078,2.0759,2.0615,2.0615,2.0694,2.0472,2.0357,2.0299,2.027,2.0131,1.9885,1.9563,1.9261,1.8893,1.8528,1.8272,1.8062,1.8036,1.7938,1.774,1.7687,1.7661,1.7661,1.7635,1.7615,1.7615,1.7615,1.7615,1.7615,1.7615,1.7615,1.7615,1.7615,1.7615,1.7615,1.7615,1.7481,1.7657,1.806,1.8779,1.9267,1.8816,1.8419,1.8373,1.8511,1.8811,1.8949,1.9086,1.9132,1.8995,1.9224,1.9224,1.9086,1.9178,1.9086,1.9063,1.8949,1.845,1.7668,1.7295,1.699,1.6756,1.6983,1.7707,1.8265,1.7831,1.7466,1.7466,1.7396,1.7021,1.6716,1.6457,1.6292,1.6251,1.6204,1.592,1.5801,1.5801,1.5801,1.5801,1.5801,1.5801,1.5801,1.5801,1.5784,1.5784,1.5778,1.5754,1.5761,1.5761,1.5778,1.5801,1.5801,1.5801,1.5801,1.5659,1.535,2.1211,2.1211,2.1211,2.1211,2.1211,2.1211,2.1211,2.1211,2.1211,2.1211,2.1211,2.1211,2.111,2.096,2.0931,2.0759,2.0522,2.0465,2.0465,2.0472,2.0357,2.0328,2.0378,2.0184,2.0018,1.9989,1.9818,1.9436,1.9227,1.9092,1.8899,1.84,1.8114,1.7898,1.7826,1.7773,1.7714,1.7635,1.7615,1.7615,1.7615,1.7615,1.7615,1.7615,1.7615,1.7615,1.7615,1.7615,1.7615,1.7615,1.7615,1.7615,1.7615,1.7588,1.7507,1.7245,1.7271,1.7496,1.7646,1.7386,1.7306,1.7147,1.7217,1.7288,1.7824,1.8403,1.8427,1.7994,1.8496,1.8488,1.8218,1.8519,1.8334,1.8195,1.7963,1.7404,1.6857,1.6581,1.6251,1.5991,1.5872,1.6685,1.7264,1.6967,1.6669,1.6669,1.6645,1.6433,1.6221,1.6086,1.5967,1.592,1.5896,1.5825,1.5801,1.5801,1.5784,1.5784,1.5784,1.5784,1.5801,1.5801,1.5713,1.5642,1.5611,1.5611,1.5642,1.5713,1.5778,1.5801,1.5801,1.573,1.5588,1.489,1.4478,2.1211,2.1211,2.1211,2.1211,2.1211,2.1211,2.1211,2.1211,2.1211,2.1153,2.106,2.1003,2.0823,2.0666,2.0579,2.0472,2.0184,2.0184,2.0184,2.0191,2.0126,2.0097,2.004,1.9873,1.97,1.9693,1.9434,1.9085,1.8742,1.8563,1.8374,1.7909,1.7775,1.7648,1.7615,1.7641,1.7608,1.7615,1.7615,1.7615,1.7615,1.7615,1.7615,1.7615,1.7615,1.7615,1.7615,1.7615,1.7615,1.7615,1.7615,1.7615,1.7615,1.7602,1.7394,1.7107,1.6931,1.6693,1.6507,1.6215,1.5852,1.5801,1.5825,1.6362,1.6857,1.7684,1.787,1.6951,1.7404,1.7404,1.7271,1.7591,1.7412,1.7108,1.6904,1.641,1.6038,1.6038,1.6015,1.5896,1.5778,1.5754,1.6126,1.5984,1.5872,1.5849,1.5801,1.5801,1.5801,1.5801,1.5801,1.5801,1.5808,1.5801,1.5778,1.5778,1.5784,1.5713,1.5713,1.5666,1.5594,1.5547,1.5482,1.5428,1.5404,1.5404,1.5387,1.5571,1.5761,1.5778,1.5754,1.5564,1.5224,1.4358,1.3685,2.1211,2.1211,2.1175,2.1182,2.1211,2.1211,2.1211,2.1153,2.1175,2.0996,2.0723,2.0529,2.0414,2.0328,2.0299,2.0126,1.9844,1.9844,1.9844,1.9764,1.962,1.9678,1.9678,1.962,1.9446,1.9399,1.918,1.8838,1.8497,1.8264,1.7983,1.7675,1.7615,1.7622,1.7615,1.7615,1.7615,1.7615,1.7615,1.7615,1.7615,1.7615,1.7615,1.7615,1.7615,1.7615,1.7615,1.7615,1.7615,1.7615,1.7615,1.7615,1.7615,1.7615,1.7374,1.6914,1.676,1.6446,1.6028,1.5861,1.5821,1.5801,1.5825,1.5872,1.618,1.6038,1.5967,1.6103,1.6497,1.6339,1.6109,1.5991,1.6339,1.6339,1.6292,1.6157,1.5896,1.5896,1.5872,1.5825,1.5754,1.5659,1.5571,1.5547,1.5659,1.5683,1.5801,1.5801,1.5801,1.5801,1.5784,1.5784,1.5784,1.5784,1.5761,1.5713,1.5594,1.5499,1.5475,1.5387,1.5274,1.5226,1.5298,1.5172,1.5124,1.5124,1.5077,1.4992,1.5105,1.5588,1.5581,1.4884,1.3884,1.2823,1.249,2.0895,2.0874,2.0737,2.0859,2.1211,2.1211,2.1089,2.0902,2.0874,2.073,2.0436,2.0328,2.0184,2.004,1.9989,1.9851,1.9591,1.9562,1.9562,1.954,1.9482,1.9482,1.9482,1.9482,1.9417,1.9328,1.9065,1.8778,1.849,1.8136,1.7883,1.7702,1.7615,1.7615,1.7615,1.7615,1.7615,1.7615,1.7615,1.7615,1.7615,1.7615,1.7615,1.7615,1.7615,1.7615,1.7615,1.7615,1.7615,1.7615,1.7615,1.7615,1.7615,1.7615,1.7275,1.68,1.6714,1.6375,1.5941,1.5801,1.5801,1.5801,1.5801,1.5801,1.5801,1.5801,1.5801,1.5825,1.5801,1.5801,1.5801,1.5825,1.592,1.5825,1.5801,1.5778,1.5754,1.573,1.5666,1.5618,1.5571,1.5499,1.5387,1.5291,1.5428,1.5564,1.5706,1.5801,1.5754,1.5713,1.5666,1.5618,1.5618,1.5529,1.5506,1.5434,1.5363,1.5315,1.5244,1.5124,1.5011,1.5107,1.5124,1.4987,1.4742,1.4616,1.4442,1.4214,1.443,1.4962,1.4478,1.3577,1.2484,1.1365,1.115,2.0579,2.0551,2.0385,2.0536,2.0917,2.0945,2.0795,2.0608,2.0579,2.0414,2.0155,2.0075,1.9902,1.97,1.9671,1.962,1.9453,1.9424,1.9424,1.9424,1.9424,1.9395,1.9395,1.9395,1.9388,1.9308,1.8965,1.8644,1.8484,1.8069,1.7809,1.7635,1.7615,1.7615,1.7615,1.7615,1.7615,1.7615,1.7615,1.7615,1.7615,1.7615,1.7615,1.7615,1.7615,1.7615,1.7615,1.7615,1.7615,1.7615,1.7615,1.7615,1.7615,1.7535,1.728,1.6927,1.6622,1.6402,1.5981,1.5801,1.5801,1.5801,1.5801,1.5801,1.5801,1.5801,1.5801,1.5801,1.5801,1.5778,1.573,1.573,1.573,1.5706,1.5659,1.5635,1.5618,1.5571,1.5475,1.5387,1.5339,1.5291,1.5124,1.5029,1.5148,1.5333,1.5547,1.5571,1.5482,1.5458,1.5434,1.541,1.538,1.5267,1.5155,1.5178,1.5172,1.5022,1.4951,1.4879,1.4831,1.4807,1.4466,1.398,1.3811,1.3908,1.3516,1.2872,1.3463,1.4346,1.3366,1.2115,1.1507,1.0485,0.9903,2.0292,2.0299,2.027,2.0299,2.0335,2.0328,2.0328,2.0299,2.027,2.0097,1.9815,1.9591,1.9511,1.9453,1.9475,1.9453,1.9424,1.9395,1.9395,1.9395,1.9395,1.9395,1.9395,1.9395,1.9388,1.9247,1.8871,1.8557,1.8477,1.7943,1.7655,1.7602,1.7615,1.7615,1.7615,1.7615,1.7615,1.7615,1.7615,1.7615,1.7615,1.7615,1.7615,1.7615,1.7615,1.7615,1.7615,1.7615,1.7615,1.7615,1.7615,1.7615,1.7615,1.7615,1.7321,1.6787,1.672,1.6388,1.5881,1.5828,1.5801,1.5801,1.5801,1.5801,1.5801,1.5801,1.5754,1.573,1.5713,1.5642,1.5642,1.5618,1.5564,1.554,1.5499,1.5475,1.5428,1.538,1.5291,1.5148,1.5107,1.5035,1.4838,1.4742,1.4861,1.5046,1.5333,1.5387,1.5244,1.522,1.5244,1.5148,1.5094,1.5005,1.4909,1.4981,1.4957,1.479,1.4466,1.4148,1.395,1.3733,1.3342,1.2901,1.278,1.278,1.2096,1.1317,1.1853,1.2169,1.156,1.0607,1.0121,0.9706,0.9171,1.9982,1.996,1.9764,1.9707,1.9764,2.014,2.0191,1.996,1.9793,1.962,1.9533,1.9424,1.9395,1.9395,1.9395,1.9395,1.9395,1.9395,1.9395,1.9395,1.9395,1.9395,1.9395,1.9395,1.9388,1.9234,1.8846,1.849,1.8484,1.7903,1.7655,1.7615,1.7589,1.7615,1.7615,1.7615,1.7615,1.7615,1.7615,1.7615,1.7615,1.7615,1.7615,1.7615,1.7615,1.7615,1.7615,1.7615,1.7615,1.7589,1.7562,1.7562,1.7556,1.7556,1.7275,1.6822,1.6662,1.6402,1.5981,1.5801,1.5801,1.5801,1.5778,1.5778,1.5784,1.5683,1.5635,1.554,1.5475,1.5363,1.5267,1.5291,1.5267,1.5244,1.522,1.5226,1.5202,1.5172,1.51,1.4927,1.4814,1.4712,1.4544,1.4568,1.4664,1.4742,1.4975,1.5142,1.5077,1.5083,1.5083,1.4903,1.4807,1.4712,1.4616,1.4226,1.3854,1.3511,1.3191,1.2877,1.2708,1.2659,1.2247,1.1804,1.1707,1.1556,1.095,1.0366,0.9879,0.9682,0.9632,0.946,0.9069,0.8796,0.8531,1.9642,1.9649,1.9475,1.9395,1.9453,1.9822,1.9844,1.9642,1.9482,1.9395,1.9395,1.9395,1.9395,1.9395,1.9395,1.9395,1.9395,1.9395,1.9395,1.9395,1.9395,1.9395,1.9395,1.9374,1.9308,1.9147,1.8812,1.8457,1.829,1.7856,1.7642,1.7589,1.751,1.751,1.7562,1.7615,1.7615,1.7615,1.7615,1.7615,1.7615,1.7615,1.7615,1.7615,1.7615,1.7615,1.7615,1.7582,1.7556,1.7503,1.7457,1.743,1.7371,1.7226,1.699,1.6609,1.6175,1.5934,1.5639,1.5523,1.5499,1.5499,1.5635,1.5642,1.5571,1.5434,1.538,1.5291,1.5172,1.5053,1.4981,1.4981,1.5029,1.5029,1.4957,1.4963,1.4957,1.4909,1.479,1.464,1.4568,1.4442,1.437,1.4418,1.4496,1.4544,1.4592,1.4664,1.4736,1.4712,1.4496,1.4148,1.3878,1.3589,1.3294,1.2955,1.2587,1.2242,1.1999,1.1804,1.1804,1.178,1.1248,1.0759,1.0656,1.046,0.9973,0.9464,0.9044,0.88,0.8751,0.8482,0.8038,0.8038,0.8088,1.9424,1.9395,1.9395,1.9395,1.9424,1.9453,1.9417,1.9395,1.9395,1.9395,1.9395,1.9395,1.9395,1.9395,1.9395,1.9395,1.9395,1.9395,1.9395,1.9395,1.9395,1.9395,1.9381,1.9348,1.9178,1.8918,1.8597,1.8222,1.7989,1.7556,1.743,1.7457,1.7246,1.7298,1.7378,1.7424,1.745,1.7483,1.751,1.7457,1.7404,1.7239,1.7232,1.7232,1.7206,1.7265,1.7318,1.7424,1.7318,1.7246,1.7179,1.7008,1.6836,1.6697,1.6354,1.5948,1.5482,1.5287,1.5222,1.5226,1.5148,1.5196,1.5309,1.5285,1.5244,1.5155,1.51,1.5053,1.4957,1.4838,1.476,1.4807,1.4885,1.4783,1.4688,1.4688,1.4664,1.4592,1.4448,1.437,1.437,1.4322,1.4322,1.4376,1.4106,1.3932,1.3835,1.3637,1.3757,1.4004,1.3637,1.2853,1.2587,1.2271,1.2004,1.1901,1.1536,1.1263,1.1121,1.0974,1.0979,1.071,1.0121,0.9706,0.9608,0.9361,0.9044,0.8676,0.8283,0.8137,0.8258,0.8212,0.7988,0.7988,0.8038,1.9395,1.9395,1.9395,1.9395,1.9395,1.9395,1.9395,1.9395,1.9395,1.9395,1.9395,1.9395,1.9395,1.9395,1.9395,1.9395,1.9395,1.9395,1.9395,1.9395,1.9395,1.9395,1.9328,1.9185,1.8996,1.8721,1.8387,1.7973,1.7639,1.7263,1.6968,1.6895,1.6789,1.6842,1.6862,1.6909,1.6968,1.7054,1.7028,1.6948,1.6597,1.6133,1.6346,1.6564,1.624,1.6352,1.6723,1.6889,1.6783,1.6703,1.6763,1.673,1.673,1.6684,1.6462,1.591,1.547,1.5107,1.5107,1.5107,1.4957,1.476,1.4801,1.5029,1.5005,1.4838,1.4736,1.479,1.4544,1.4298,1.4124,1.4148,1.4124,1.4004,1.3926,1.3902,1.3878,1.3854,1.3733,1.3739,1.3763,1.3739,1.3811,1.3908,1.3637,1.3342,1.3047,1.2756,1.2708,1.2926,1.2684,1.1853,1.1512,1.1243,1.1292,1.1219,1.073,1.0317,1.0145,0.9854,0.941,0.9118,0.8821,0.8751,0.8796,0.8577,0.8233,0.7988,0.7988,0.7988,0.8088,0.8038,0.7988,0.7988,0.7988,1.9395,1.9395,1.9395,1.9395,1.9395,1.9395,1.9395,1.9395,1.9395,1.9395,1.9395,1.9395,1.9395,1.9395,1.9395,1.9395,1.9395,1.9395,1.9395,1.9395,1.9366,1.9395,1.9265,1.8887,1.8666,1.8394,1.7987,1.7497,1.7158,1.6876,1.6583,1.6677,1.6332,1.598,1.5841,1.5509,1.5242,1.5515,1.5734,1.5841,1.5355,1.4754,1.5188,1.5601,1.512,1.5441,1.5867,1.598,1.5787,1.5322,1.5156,1.5076,1.4927,1.4803,1.4632,1.4083,1.4152,1.396,1.4028,1.4544,1.4346,1.41,1.3902,1.3661,1.3902,1.3908,1.4244,1.449,1.4004,1.3589,1.3468,1.3318,1.3173,1.2998,1.2998,1.2998,1.2998,1.2998,1.2974,1.2955,1.2931,1.2883,1.298,1.3125,1.2974,1.2412,1.1926,1.156,1.1536,1.1712,1.139,1.0734,1.0513,1.0366,1.0366,1.0219,0.9702,0.9238,0.9044,0.8651,0.8038,0.8063,0.8308,0.8233,0.8113,0.7988,0.7988,0.7988,0.7988,0.7988,0.7988,0.7988,0.7988,0.7988,0.7988,1.9395,1.9395,1.9307,1.9278,1.9372,1.9127,1.901,1.922,1.8952,1.9214,1.9336,1.9395,1.9395,1.9395,1.9395,1.9395,1.9366,1.9336,1.9272,1.9301,1.9191,1.9078,1.8631,1.8526,1.7569,1.7429,1.7197,1.6576,1.646,1.6066,1.5853,1.6299,1.5087,1.4492,1.4519,1.3976,1.3539,1.321,1.3782,1.4056,1.3593,1.3378,1.362,1.4492,1.4524,1.4551,1.4685,1.4551,1.4191,1.3291,1.2859,1.2891,1.2756,1.248,1.2232,1.2191,1.2634,1.268,1.2877,1.3294,1.3221,1.2901,1.2581,1.2344,1.2538,1.2901,1.3294,1.3342,1.2859,1.2635,1.2514,1.2296,1.2096,1.2047,1.2047,1.2047,1.2047,1.2047,1.2047,1.2028,1.2028,1.2004,1.2004,1.2096,1.1877,1.1341,1.095,1.0563,1.0268,1.0415,1.017,0.9657,0.9509,0.9312,0.8994,0.8821,0.8503,0.8159,0.8159,0.8162,0.8013,0.7988,0.7988,0.7988,0.7988,0.7988,0.7988,0.7988,0.7988,0.7988,0.7988,0.7988,0.7988,0.7988,0.7988,1.9395,1.9307,1.835,1.8467,1.9039,1.732,1.7109,1.7812,1.6903,1.7613,1.9098,1.9336,1.9249,1.9039,1.9039,1.901,1.9039,1.8554,1.8939,1.8664,1.8512,1.7757,1.7163,1.6695,1.5923,1.5237,1.5072,1.5367,1.5083,1.4771,1.4239,1.3604,1.3009,1.3063,1.309,1.2516,1.2028,1.1347,1.1592,1.2304,1.2358,1.1837,1.181,1.2408,1.2598,1.2571,1.2733,1.3009,1.2874,1.2521,1.2521,1.2494,1.2398,1.1954,1.1796,1.1795,1.1561,1.1546,1.1682,1.195,1.195,1.178,1.1536,1.1414,1.1487,1.178,1.1926,1.1877,1.1785,1.1663,1.1463,1.1219,1.0999,1.0999,1.1023,1.1023,1.1023,1.1023,1.1023,1.1048,1.1048,1.1023,1.0999,1.0877,1.0681,1.0391,1.0096,0.9682,0.9019,0.8895,0.9069,0.8701,0.8528,0.8283,0.7988,0.7988,0.7988,0.7988,0.8063,0.8038,0.7988,0.7988,0.7988,0.7988,0.7988,0.7988,0.7988,0.7988,0.7988,0.7988,0.7988,0.7988,0.7988,0.7988,0.7988,1.8561,1.8409,1.7197,1.7044,1.7379,1.6161,1.6013,1.642,1.5747,1.6125,1.7373,1.7613,1.7642,1.7519,1.749,1.7549,1.7425,1.7067,1.6768,1.6791,1.6862,1.617,1.549,1.4915,1.4457,1.3789,1.3663,1.3717,1.3631,1.3496,1.296,1.2282,1.201,1.1655,1.1569,1.1191,1.0652,0.9943,0.997,1.0351,1.0977,1.046,1.0511,1.0973,1.1242,1.116,1.1273,1.1574,1.1273,1.1032,1.0731,1.0707,1.0571,1.0304,1.0242,1.03,1.0348,1.0489,1.0583,1.0754,1.0832,1.0656,1.0485,1.0366,0.9558,0.985,1.0705,1.071,1.0636,1.0513,1.0219,0.9977,0.9534,0.9386,0.9386,0.9386,0.9386,0.9386,0.9386,0.939,0.9386,0.9386,0.9361,0.9336,0.9188,0.9164,0.8924,0.897,0.8308,0.7988,0.7988,0.7988,0.7988,0.7988,0.7988,0.7988,0.7988,0.7988,0.7988,0.7988,0.7988,0.7988,0.7988,0.7988,0.7988,0.7988,0.7988,0.7988,0.7988,0.7988,0.7988,0.7988,0.7988,0.7988,0.7988,1.722,1.7009,1.5806,1.5391,1.5397,1.503,1.5006,1.5095,1.4703,1.4465,1.455,1.4822,1.4882,1.5084,1.5025,1.4842,1.4846,1.5221,1.4888,1.4738,1.4568,1.4198,1.3803,1.3309,1.2925,1.2658,1.2456,1.235,1.225,1.2168,1.2064,1.1819,1.1191,1.0453,1.0155,0.9644,0.9099,0.9154,0.9154,0.9047,0.8992,0.8909,0.962,1.0186,1.048,1.0457,1.0457,1.0292,0.9805,0.9561,0.9292,0.9372,0.9275,0.9187,0.8981,0.905,0.9252,0.9376,0.9534,1.0002,0.985,0.9657,0.9484,0.9044,0.8308,0.8531,0.939,0.9583,0.9509,0.9386,0.9093,0.8874,0.8432,0.8184,0.8184,0.8184,0.8184,0.8184,0.8162,0.8162,0.8162,0.8184,0.8159,0.8113,0.8063,0.8013,0.7988,0.7988,0.7988,0.7988,0.7988,0.7988,0.7988,0.7988,0.7988,0.7988,0.7988,0.7988,0.7988,0.7988,0.7988,0.7988,0.7988,0.7988,0.7988,0.7988,0.7988,0.7988,0.7988,0.7988,0.7988,0.7988,0.7988,0.7988,0.7988,1.5806,1.544,1.4163,1.4073,1.4401,1.2672,1.2281,1.2967,1.2131,1.1623,1.1834,1.1894,1.2607,1.4658,1.4693,1.4376,1.3783,1.3741,1.3927,1.4053,1.3231,1.2557,1.2033,1.1684,1.1415,1.1234,1.1112,1.1067,1.1004,1.0973,1.0539,0.9781,0.9671,0.9316,0.9261,0.8909,0.8909,0.8909,0.8909,0.8909,0.8909,0.8937,0.8968,0.921,0.9237,0.9237,0.9237,0.9237,0.9103,0.8992,0.8909,0.8909,0.8811,0.8669,0.8549,0.8463,0.8603,0.8496,0.8775,0.892,0.8751,0.8701,0.8552,0.8482,0.8038,0.8063,0.8577,0.8577,0.8528,0.8528,0.8333,0.8333,0.8063,0.8063,0.8063,0.8063,0.8063,0.8063,0.8063,0.8063,0.8063,0.8063,0.8063,0.8038,0.8038,0.7988,0.7988,0.7988,0.7988,0.7988,0.7988,0.7988,0.7988,0.7988,0.7988,0.7988,0.7988,0.7988,0.7988,0.7988,0.7988,0.7988,0.7988,0.7988,0.7988,0.7988,0.7988,0.7988,0.7988,0.7988,0.7988,0.7988,0.7988,0.7988,0.7988]},{"header":{"parameterUnit":"m.s-1","parameterCategory":1,"la1":31.0,"la2":29.5877,"lo1":-88.7671,"lo2":-86.6584,"dy":0.0162,"dx":0.0185,"nx":115,"ny":88,"refTime":"2023-04-03T12:00:00:Z","depth":0,"parameterNumber":3,"parameterNumberName":"V-component_of_WINDS"},"data":[0.0,0.0,0.0,0.0,0.0,0.0,0.0,0.0,0.0,0.0,0.0,0.0,0.0,0.0,0.0,0.0,0.0,0.0,0.0,0.0,0.0,0.0,0.0,0.0,0.0,0.0,0.0,0.0,0.0,0.0,0.0,0.0,0.0,0.0,0.0,0.0,0.0,0.0,0.0,0.0,0.0,0.0,0.0,0.0,0.0,0.0,0.0,0.0,0.0,0.0,0.0,0.0,0.0,0.0,0.0,0.0,0.0,0.0,0.0,0.0,0.0,0.0,0.0,0.0,0.0,0.0,0.0,0.0,0.0,0.0,0.0,0.0,0.0,0.0,0.0,0.0,0.0,0.0,0.0,0.0,0.0,0.0,0.0,0.0,0.0,0.0,0.0,0.0,0.0,0.0,0.0,0.0,0.0,0.0,0.0,0.0,0.0,0.0,0.0,0.0,0.0,0.0,0.0,0.0,0.0,0.0,0.0,0.0,0.0,0.0,0.0,0.0,0.0,0.0,0.0,0.0,0.0,0.0,0.0,0.0,0.0,0.0,0.0,0.0,0.0,0.0,0.0,0.0,0.0,0.0,0.0,0.0,0.0,0.0,0.0,0.0,0.0,0.0,0.0,0.0,0.0,0.0,0.0,0.0,0.0,0.0,0.0,0.0,0.0,0.0,0.0,0.0,0.0,0.0,0.0,0.0,0.0,0.0,0.0,0.0,0.0,0.0,0.0,0.0,0.0,0.0,0.0,0.0,0.0,0.0,0.0,0.0,0.0,0.0,0.0,0.0,0.0,0.0,0.0,0.0,0.0,0.0,0.0,0.0,0.0,0.0,0.0,0.0,0.0,0.0,0.0,0.0,0.0,0.0,0.0,0.0,0.0,0.0,0.0,0.0,0.0,0.0,0.0,0.0,0.0,0.0,0.0,0.0,0.0,0.0,0.0,0.0,0.0,0.0,0.0,0.0,0.0,0.0,0.0,0.0,0.0,0.0,0.0,0.0,0.0,0.0,0.0,0.0,0.0,0.0,0.0,0.0,0.0,0.0,0.0,0.0,0.0,0.0,0.0,0.0,0.0,0.0,0.0,0.0,0.0,0.0,0.0,0.0,0.0,0.0,0.0,0.0,0.0,0.0,0.0,0.0,0.0,0.0,0.0,0.0,0.0,0.0,0.0,0.0,0.0,0.0,0.0,0.0,0.0,0.0,0.0,0.0,0.0,0.0,0.0,0.0,0.0,0.0,0.0,0.0,0.0,0.0,0.0,0.0,0.0,0.0,0.0,0.0,0.0,0.0,0.0,0.0,0.0,0.0,0.0,0.0,0.0,0.0,0.0,0.0,0.0,0.0,0.0,0.0,0.0,0.0,0.0,0.0,0.0,0.0,0.0,0.0,0.0,0.0,0.0,0.0,0.0,0.0,0.0,0.0,0.0,0.0,0.0,0.0,0.0,0.0,0.0,0.0,0.0,0.0,0.0,0.0,0.0,0.0,0.0,0.0,0.0,0.0,0.0,0.0,0.0,0.0,0.0,0.0,0.0,0.0,0.0,0.0,0.0,0.0,0.0,0.0,0.0,0.0,0.0,0.0,0.0,0.0,0.0,0.0,0.0,0.0,0.0,0.0,0.0,0.0,0.0,0.0,0.0,0.0,0.0,0.0,0.0,0.0,0.0,0.0,0.0,0.0,0.0,0.0,0.0,0.0,0.0,0.0,0.0,0.0,0.0,0.0,0.0,0.0,0.0,0.0,0.0,0.0,0.0,0.0,0.0,0.0,0.0,0.0,0.0,0.0,0.0,0.0,0.0,0.0,0.0,0.0,0.0,0.0,0.0,0.0,0.0,0.0,0.0,0.0,0.0,0.0,0.0,0.0,0.0,0.0,0.0,0.0,0.0,0.0,0.0,0.0,0.0,0.0,0.0,0.0,0.0,0.0,0.0,0.0,0.0,0.0,0.0,0.0,0.0,0.0,0.0,0.0,0.0,0.0,0.0,0.0,0.0,0.0,0.0,0.0,0.0,0.0,0.0,0.0,0.0,0.0,0.0,0.0,0.0,0.0,0.0,0.0,0.0,0.0,0.0,0.0,0.0,0.0,0.0,0.0,0.0,0.0,0.0,0.0,0.0,0.0,0.0,0.0,0.0,0.0,0.0,0.0,0.0,0.0,0.0,0.0,0.0,0.0,0.0,0.0,0.0,0.0,0.0,0.0,0.0,0.0,0.0,0.0,0.0,0.0,0.0,0.0,0.0,0.0,0.0,0.0,0.0,0.0,0.0,0.0,0.0,0.0,0.0,0.0,0.0,0.0,0.0,0.0,0.0,0.0,0.0,0.0,0.0,0.0,0.0,0.0,0.0,0.0,0.0,0.0,0.0,0.0,0.0,0.0,0.0,0.0,0.0,0.0,0.0,0.0,0.0,0.0,0.0,0.0,0.0,0.0,0.0,0.0,0.0,0.0,0.0,0.0,0.0,0.0,0.0,0.0,0.0,0.0,0.0,0.0,0.0,0.0,0.0,0.0,0.0,0.0,0.0,0.0,0.0,0.0,0.0,0.0,0.0,0.0,0.0,0.0,0.0,0.0,0.0,0.0,0.0,0.0,0.0,0.0,0.0,0.0,0.0,0.0,0.0,0.0,0.0,0.0,0.0,0.0,0.0,0.0,0.0,0.0,0.0,0.0,0.0,0.0,0.0,0.0,0.0,0.0,0.0,0.0,0.0,0.0,0.0,0.0,0.0,0.0,0.0,0.0,0.0,0.0,0.0,0.0,0.0,0.0,0.0,0.0,0.0,0.0,0.0,0.0,0.0,0.0,0.0,0.0,0.0,0.0,0.0,0.0,0.0,0.0,0.0,0.0,0.0,0.0,0.0,0.0,0.0,0.0,0.0,0.0,0.0,0.0,0.0,0.0,0.0,0.0,0.0,0.0,0.0,0.0,0.0,0.0,0.0,0.0,0.0,0.0,0.0,0.0,0.0,0.0,0.0,0.0,0.0,0.0,0.0,0.0,0.0,0.0,0.0,0.0,0.0,0.0,0.0,0.0,0.0,0.0,0.0,0.0,0.0,0.0,0.0,0.0,0.0,0.0,0.0,0.0,0.0,0.0,0.0,0.0,0.0,0.0,0.0,0.0,0.0,0.0,0.0,0.0,0.0,0.0,0.0,0.0,0.0,0.0,0.0,0.0,0.0,0.0,0.0,0.0,0.0,0.0,0.0,0.0,0.0,0.0,0.0,0.0,0.0,0.0,0.0,0.0,0.0,0.0,0.0,0.0,0.0,0.0,0.0,0.0,0.0,0.0,0.0,0.0,0.0,0.0,0.0,0.0,0.0,0.0,0.0,0.0,0.0,0.0,0.0,0.0,0.0,0.0,0.0,0.0,0.0,0.0,0.0,0.0,0.0,0.0,0.0,0.0,0.0,0.0,0.0,0.0,0.0,0.0,0.0,0.0,0.0,0.0,0.0,0.0,0.0,0.0,0.0,0.0,0.0,0.0,0.0,0.0,0.0,0.0,0.0,0.0,0.0,0.0,0.0,0.0,0.0,0.0,0.0,0.0,0.0,0.0,0.0,0.0,0.0,0.0,0.0,0.0,0.0,0.0,0.0,0.0,0.0,0.0,0.0,0.0,0.0,0.0,0.0,0.0,0.0,0.0,0.0,0.0,0.0,0.0,0.0,0.0,0.0,0.0,0.0,0.0,0.0,0.0,0.0,0.0,0.0,0.0,0.0,0.0,0.0,0.0,0.0,0.0,0.0,0.0,0.0,0.0,0.0,0.0,0.0,0.0,0.0,0.0,0.0,0.0,0.0,0.0,0.0,0.0,0.0,0.0,0.0,0.0,0.0,0.0,0.0,0.0,0.0,0.0,0.0,0.0,0.0,0.0,0.0,0.0,0.0,0.0,0.0,0.0,0.0,0.0,0.0,0.0,0.0,0.0,0.0,0.0,0.0,0.0,0.0,0.0,0.0,0.0,0.0,0.0,0.0,0.0,0.0,0.0,0.0,0.0,0.0,0.0,0.0,0.0,0.0,0.0,0.0,0.0,0.0,0.0,0.0,0.0,0.0,0.0,0.0,0.0,0.0,0.0,0.0,0.0,0.0,0.0,0.0,0.0,0.0,0.0,0.0,0.0,0.0,0.0,0.0,0.0,0.0,0.0,0.0,0.0,0.0,0.0,0.0,0.0,0.0,0.0,0.0,0.0,0.0,0.0,0.0,0.0,0.0,0.0,0.0,0.0,0.0,0.0,0.0,0.0,0.0,0.0,0.0,0.0,0.0,0.0,0.0,0.0,1.8008,0.0,0.0,0.0,0.0,0.0,0.0,0.0,0.0,0.0,0.0,0.0,0.0,0.0,0.0,0.0,0.0,0.0,0.0,0.0,0.0,0.0,0.0,0.0,0.0,0.0,0.0,0.0,0.0,0.0,0.0,0.0,0.0,0.0,0.0,0.0,0.0,0.0,0.0,0.0,0.0,0.0,0.0,0.0,0.0,0.0,0.0,0.0,0.0,0.0,0.0,0.0,0.0,0.0,0.0,0.0,0.0,0.0,0.0,0.0,0.0,0.0,0.0,0.0,0.0,0.0,0.0,0.0,0.0,0.0,0.0,0.0,0.0,0.0,0.0,0.0,0.0,0.0,0.0,0.0,0.0,0.0,0.0,0.0,0.0,0.0,0.0,0.0,0.0,0.0,0.0,0.0,0.0,0.0,0.0,0.0,0.0,0.0,0.0,0.0,0.0,0.0,0.0,0.0,0.0,0.0,0.0,0.0,0.0,0.0,0.0,1.8008,1.8008,1.8008,1.8008,1.8008,0.0,0.0,0.0,0.0,0.0,0.0,0.0,0.0,0.0,0.0,0.0,0.0,0.0,0.0,0.0,0.0,0.0,0.0,0.0,0.0,0.0,0.0,0.0,0.0,0.0,0.0,0.0,0.0,0.0,0.0,0.0,0.0,0.0,0.0,0.0,0.0,0.0,0.0,0.0,0.0,0.0,0.0,0.0,0.0,0.0,0.0,0.0,0.0,0.0,0.0,0.0,0.0,0.0,0.0,0.0,0.0,0.0,0.0,0.0,0.0,0.0,0.0,0.0,0.0,0.0,0.0,0.0,0.0,0.0,0.0,0.0,0.0,0.0,0.0,0.0,0.0,0.0,0.0,0.0,0.0,0.0,0.0,0.0,0.0,0.0,0.0,0.0,0.0,0.0,0.0,0.0,0.0,0.0,0.0,0.0,0.0,0.0,0.0,0.0,0.0,0.0,0.0,0.0,0.0,0.0,0.0,0.0,0.0,0.0,0.0,0.0,0.0,1.8008,1.8066,1.8236,0.0,0.0,0.0,0.0,0.0,0.0,0.0,0.0,0.0,0.0,0.0,0.0,0.0,0.0,0.0,0.0,0.0,0.0,0.0,0.0,0.0,0.0,0.0,0.0,0.0,0.0,0.0,0.0,0.0,0.0,0.0,0.0,0.0,0.0,0.0,0.0,0.0,0.0,0.0,0.0,0.0,0.0,0.0,0.0,0.0,0.0,0.0,0.0,0.0,0.0,0.0,0.0,0.0,0.0,0.0,0.0,0.0,0.0,0.0,0.0,0.0,0.0,0.0,0.0,0.0,0.0,0.0,0.0,0.0,0.0,0.0,0.0,0.0,0.0,0.0,0.0,0.0,0.0,0.0,0.0,0.0,0.0,0.0,0.0,0.0,0.0,0.0,0.0,0.0,0.0,0.0,0.0,0.0,0.0,0.0,0.0,0.0,0.0,0.0,0.0,0.0,0.0,0.0,0.0,0.0,0.0,0.0,0.0,0.0,0.0,1.8008,1.8008,1.8008,0.0,1.8861,0.0,0.0,0.0,0.0,0.0,0.0,0.0,0.0,0.0,0.0,0.0,0.0,0.0,0.0,0.0,0.0,0.0,0.0,0.0,0.0,0.0,0.0,0.0,0.0,0.0,0.0,0.0,0.0,0.0,0.0,0.0,0.0,0.0,0.0,0.0,0.0,0.0,0.0,0.0,0.0,0.0,0.0,0.0,0.0,0.0,0.0,0.0,0.0,0.0,0.0,0.0,0.0,0.0,0.0,0.0,0.0,0.0,0.0,0.0,0.0,0.0,0.0,0.0,0.0,0.0,0.0,0.0,0.0,0.0,0.0,0.0,0.0,0.0,0.0,0.0,0.0,0.0,0.0,0.0,0.0,0.0,0.0,0.0,0.0,0.0,0.0,0.0,0.0,0.0,0.0,0.0,0.0,0.0,0.0,0.0,0.0,0.0,0.0,0.0,0.0,0.0,0.0,0.0,0.0,0.0,0.0,0.0,0.0,0.0,0.0,1.8008,1.8008,1.8008,1.8293,0.0,0.0,0.0,0.0,0.0,0.0,0.0,0.0,0.0,0.0,0.0,0.0,0.0,0.0,0.0,0.0,0.0,0.0,0.0,0.0,0.0,0.0,0.0,0.0,0.0,0.0,0.0,0.0,0.0,0.0,0.0,0.0,0.0,0.0,0.0,0.0,0.0,0.0,0.0,0.0,0.0,0.0,0.0,0.0,0.0,0.0,0.0,0.0,0.0,0.0,0.0,0.0,0.0,0.0,0.0,0.0,0.0,0.0,0.0,0.0,0.0,0.0,0.0,0.0,0.0,0.0,0.0,0.0,0.0,0.0,0.0,0.0,0.0,0.0,0.0,0.0,0.0,0.0,0.0,0.0,0.0,0.0,0.0,0.0,0.0,0.0,0.0,0.0,0.0,0.0,0.0,0.0,0.0,0.0,0.0,0.0,0.0,0.0,0.0,0.0,0.0,0.0,0.0,0.0,0.0,0.0,0.0,0.0,0.0,0.0,1.8547,1.8108,1.8018,1.8195,1.8613,1.9282,0.0,0.0,0.0,0.0,0.0,0.0,0.0,0.0,0.0,0.0,0.0,0.0,0.0,0.0,0.0,0.0,0.0,0.0,0.0,0.0,0.0,0.0,0.0,0.0,0.0,0.0,0.0,0.0,0.0,0.0,0.0,0.0,0.0,0.0,0.0,0.0,0.0,0.0,0.0,0.0,0.0,0.0,0.0,0.0,0.0,0.0,0.0,0.0,0.0,0.0,0.0,0.0,0.0,0.0,0.0,0.0,0.0,0.0,0.0,0.0,0.0,0.0,0.0,0.0,0.0,0.0,0.0,0.0,0.0,0.0,0.0,0.0,0.0,0.0,0.0,0.0,0.0,0.0,0.0,0.0,0.0,0.0,0.0,0.0,0.0,0.0,0.0,0.0,0.0,0.0,0.0,0.0,0.0,0.0,0.0,0.0,0.0,0.0,0.0,0.0,0.0,0.0,0.0,0.0,0.0,0.0,0.0,0.0,1.9305,1.881,1.8401,1.8044,1.862,1.9309,0.0,0.0,0.0,0.0,0.0,0.0,0.0,0.0,0.0,0.0,0.0,0.0,0.0,0.0,0.0,0.0,0.0,0.0,0.0,0.0,0.0,0.0,0.0,0.0,0.0,0.0,0.0,0.0,0.0,0.0,0.0,0.0,0.0,0.0,0.0,0.0,0.0,0.0,0.0,0.0,0.0,0.0,0.0,0.0,0.0,0.0,0.0,0.0,0.0,0.0,0.0,0.0,0.0,0.0,0.0,0.0,0.0,0.0,0.0,0.0,0.0,0.0,0.0,0.0,0.0,0.0,0.0,0.0,0.0,0.0,0.0,0.0,0.0,0.0,0.0,0.0,0.0,0.0,0.0,0.0,0.0,0.0,0.0,0.0,0.0,0.0,0.0,0.0,0.0,0.0,0.0,0.0,0.0,0.0,0.0,0.0,0.0,0.0,0.0,0.0,0.0,0.0,0.0,0.0,0.0,0.0,0.0,0.0,0.0,1.9323,1.8994,1.8782,1.8664,1.9326,2.0031,0.0,0.0,0.0,0.0,0.0,0.0,0.0,0.0,0.0,0.0,0.0,0.0,0.0,0.0,0.0,0.0,0.0,0.0,0.0,0.0,0.0,0.0,0.0,0.0,0.0,0.0,0.0,0.0,0.0,0.0,0.0,0.0,0.0,0.0,0.0,0.0,0.0,0.0,0.0,0.0,0.0,0.0,0.0,0.0,0.0,0.0,0.0,0.0,0.0,0.0,0.0,0.0,0.0,0.0,0.0,0.0,0.0,0.0,0.0,0.0,0.0,0.0,0.0,0.0,0.0,0.0,0.0,0.0,0.0,0.0,0.0,0.0,0.0,0.0,0.0,0.0,0.0,0.0,0.0,0.0,0.0,0.0,0.0,0.0,0.0,0.0,0.0,0.0,0.0,0.0,0.0,0.0,0.0,0.0,0.0,0.0,0.0,0.0,0.0,0.0,0.0,0.0,0.0,0.0,0.0,0.0,0.0,0.0,0.0,1.9912,0.0,1.9613,1.9619,2.014,2.0645,0.0,0.0,0.0,0.0,0.0,0.0,0.0,0.0,0.0,0.0,0.0,0.0,0.0,0.0,0.0,0.0,0.0,0.0,0.0,0.0,0.0,0.0,0.0,0.0,0.0,0.0,0.0,0.0,0.0,0.0,0.0,0.0,0.0,0.0,0.0,0.0,0.0,0.0,0.0,0.0,0.0,0.0,0.0,0.0,0.0,0.0,0.0,0.0,0.0,0.0,0.0,0.0,0.0,0.0,0.0,0.0,0.0,0.0,0.0,0.0,0.0,0.0,0.0,0.0,0.0,0.0,0.0,0.0,0.0,0.0,0.0,0.0,0.0,0.0,0.0,0.0,0.0,0.0,0.0,0.0,0.0,0.0,0.0,0.0,0.0,0.0,0.0,0.0,0.0,0.0,0.0,0.0,0.0,0.0,0.0,0.0,0.0,0.0,0.0,0.0,0.0,0.0,0.0,0.0,0.0,0.0,0.0,0.0,2.1574,2.1086,2.0958,2.0874,2.0885,2.1021,2.1108,0.0,0.0,0.0,0.0,0.0,0.0,0.0,0.0,0.0,0.0,0.0,0.0,0.0,0.0,0.0,0.0,0.0,0.0,0.0,0.0,0.0,0.0,0.0,0.0,0.0,0.0,0.0,0.0,0.0,0.0,0.0,0.0,0.0,0.0,0.0,0.0,0.0,0.0,0.0,0.0,0.0,0.0,0.0,0.0,0.0,0.0,0.0,0.0,0.0,0.0,0.0,0.0,0.0,0.0,0.0,0.0,0.0,0.0,0.0,0.0,0.0,0.0,0.0,0.0,0.0,0.0,0.0,0.0,0.0,0.0,0.0,0.0,0.0,0.0,0.0,0.0,0.0,0.0,0.0,0.0,0.0,0.0,0.0,0.0,0.0,0.0,0.0,0.0,0.0,0.0,0.0,0.0,0.0,0.0,0.0,0.0,0.0,0.0,0.0,0.0,0.0,0.0,0.0,0.0,0.0,0.0,0.0,0.0,0.0,2.1428,2.1525,2.1415,2.107,2.1576,2.1847,0.0,0.0,0.0,0.0,0.0,0.0,0.0,0.0,0.0,0.0,0.0,0.0,0.0,0.0,0.0,0.0,0.0,0.0,0.0,0.0,0.0,0.0,0.0,0.0,0.0,0.0,0.0,0.0,0.0,0.0,0.0,0.0,0.0,0.0,0.0,0.0,0.0,0.0,0.0,0.0,0.0,0.0,0.0,0.0,0.0,0.0,0.0,0.0,0.0,0.0,0.0,0.0,0.0,0.0,0.0,0.0,0.0,0.0,0.0,0.0,0.0,0.0,0.0,0.0,0.0,0.0,0.0,0.0,0.0,0.0,0.0,0.0,0.0,0.0,0.0,0.0,0.0,0.0,0.0,0.0,0.0,0.0,0.0,0.0,0.0,0.0,0.0,0.0,0.0,0.0,0.0,0.0,0.0,0.0,0.0,0.0,0.0,0.0,0.0,0.0,0.0,0.0,0.0,0.0,0.0,0.0,0.0,0.0,0.0,2.2684,2.2791,2.2629,2.2138,2.2365,2.2417,2.2197,0.0,0.0,0.0,0.0,0.0,0.0,0.0,0.0,0.0,0.0,0.0,0.0,0.0,0.0,0.0,0.0,0.0,0.0,0.0,0.0,0.0,0.0,0.0,0.0,0.0,0.0,0.0,0.0,0.0,0.0,0.0,0.0,0.0,0.0,0.0,0.0,0.0,0.0,0.0,0.0,0.0,0.0,0.0,0.0,0.0,0.0,0.0,0.0,0.0,0.0,0.0,0.0,0.0,0.0,0.0,0.0,0.0,0.0,0.0,0.0,0.0,0.0,0.0,0.0,0.0,0.0,0.0,0.0,0.0,0.0,0.0,0.0,0.0,0.0,0.0,0.0,0.0,0.0,0.0,0.0,0.0,0.0,0.0,0.0,0.0,0.0,0.0,0.0,0.0,0.0,0.0,0.0,0.0,0.0,0.0,0.0,0.0,0.0,0.0,0.0,0.0,0.0,0.0,0.0,0.0,0.0,0.0,0.0,2.4578,2.4549,2.4273,2.3789,2.326,2.2782,0.0,0.0,0.0,0.0,0.0,0.0,0.0,0.0,0.0,0.0,0.0,0.0,0.0,0.0,0.0,0.0,0.0,0.0,0.0,0.0,0.0,0.0,0.0,0.0,0.0,0.0,0.0,0.0,0.0,0.0,0.0,0.0,0.0,0.0,0.0,0.0,0.0,0.0,0.0,0.0,0.0,0.0,0.0,0.0,0.0,0.0,0.0,0.0,0.0,0.0,0.0,0.0,0.0,0.0,0.0,0.0,0.0,0.0,0.0,0.0,0.0,0.0,0.0,0.0,0.0,0.0,0.0,0.0,0.0,0.0,0.0,0.0,0.0,0.0,0.0,0.0,0.0,0.0,0.0,0.0,0.0,0.0,0.0,0.0,0.0,0.0,0.0,0.0,0.0,0.0,0.0,0.0,0.0,0.0,0.0,0.0,0.0,0.0,0.0,0.0,0.0,0.0,0.0,0.0,0.0,0.0,0.0,0.0,0.0,2.5294,2.516,2.4675,2.383,2.3272,2.2935,0.0,0.0,0.0,0.0,0.0,0.0,0.0,0.0,0.0,0.0,0.0,0.0,0.0,0.0,0.0,0.0,0.0,0.0,0.0,0.0,0.0,0.0,0.0,0.0,0.0,0.0,0.0,0.0,0.0,0.0,0.0,0.0,0.0,0.0,0.0,0.0,0.0,0.0,0.0,0.0,0.0,0.0,0.0,0.0,0.0,0.0,0.0,0.0,0.0,0.0,0.0,0.0,0.0,0.0,0.0,0.0,0.0,0.0,0.0,0.0,0.0,0.0,0.0,0.0,0.0,0.0,0.0,0.0,0.0,0.0,0.0,0.0,0.0,0.0,0.0,0.0,0.0,0.0,0.0,0.0,0.0,0.0,0.0,0.0,0.0,0.0,0.0,0.0,0.0,0.0,0.0,0.0,0.0,0.0,0.0,0.0,0.0,0.0,0.0,0.0,0.0,0.0,0.0,0.0,0.0,0.0,0.0,0.0,2.5377,2.5465,2.5365,2.5011,2.4451,2.3934,2.344,0.0,0.0,0.0,0.0,0.0,0.0,0.0,0.0,0.0,0.0,0.0,0.0,0.0,0.0,0.0,0.0,0.0,0.0,0.0,0.0,0.0,0.0,0.0,0.0,0.0,0.0,0.0,0.0,0.0,0.0,0.0,0.0,0.0,0.0,0.0,0.0,0.0,0.0,0.0,0.0,0.0,0.0,0.0,0.0,0.0,0.0,0.0,0.0,0.0,0.0,0.0,0.0,0.0,0.0,0.0,0.0,0.0,0.0,0.0,0.0,0.0,0.0,0.0,0.0,0.0,0.0,0.0,0.0,0.0,0.0,0.0,0.0,0.0,0.0,0.0,0.0,0.0,0.0,0.0,0.0,0.0,0.0,0.0,0.0,0.0,0.0,0.0,0.0,0.0,0.0,0.0,0.0,0.0,0.0,0.0,0.0,0.0,0.0,0.0,0.0,0.0,0.0,0.0,0.0,0.0,0.0,0.0,0.0,2.5329,2.5365,2.5329,2.53,2.5317,2.4824,2.4148,0.0,0.0,0.0,0.0,0.0,0.0,0.0,0.0,0.0,0.0,0.0,0.0,0.0,0.0,0.0,0.0,0.0,0.0,0.0,0.0,0.0,0.0,0.0,0.0,0.0,0.0,0.0,0.0,0.0,0.0,0.0,0.0,0.0,0.0,0.0,0.0,0.0,0.0,0.0,0.0,0.0,0.0,0.0,0.0,0.0,0.0,0.0,0.0,0.0,0.0,0.0,0.0,0.0,0.0,0.0,0.0,0.0,0.0,0.0,0.0,0.0,0.0,0.0,0.0,0.0,0.0,0.0,0.0,0.0,0.0,0.0,0.0,0.0,0.0,0.0,0.0,0.0,0.0,0.0,0.0,0.0,0.0,0.0,0.0,0.0,0.0,0.0,0.0,0.0,0.0,0.0,0.0,0.0,0.0,0.0,0.0,0.0,0.0,0.0,0.0,0.0,0.0,0.0,0.0,0.0,0.0,0.0,0.0,2.5465,2.5758,2.5453,2.5365,2.5535,2.5014,2.4841,0.0,0.0,0.0,0.0,0.0,0.0,0.0,0.0,0.0,0.0,0.0,0.0,0.0,0.0,0.0,0.0,0.0,0.0,0.0,0.0,0.0,0.0,0.0,0.0,0.0,0.0,0.0,0.0,0.0,0.0,0.0,0.0,0.0,0.0,0.0,0.0,0.0,0.0,0.0,0.0,0.0,0.0,0.0,0.0,0.0,0.0,0.0,0.0,2.4522,0.0,0.0,0.0,0.0,0.0,0.0,0.0,0.0,0.0,0.0,0.0,0.0,0.0,0.0,0.0,0.0,0.0,0.0,0.0,0.0,0.0,0.0,0.0,0.0,0.0,0.0,0.0,0.0,0.0,0.0,0.0,0.0,0.0,0.0,0.0,0.0,0.0,0.0,0.0,0.0,0.0,0.0,0.0,0.0,0.0,0.0,0.0,0.0,0.0,0.0,0.0,0.0,0.0,0.0,0.0,0.0,0.0,0.0,0.0,2.6,2.5915,2.5943,2.604,2.6213,2.6266,2.6138,0.0,0.0,0.0,0.0,0.0,0.0,0.0,0.0,0.0,0.0,0.0,0.0,0.0,0.0,0.0,0.0,0.0,0.0,0.0,0.0,0.0,0.0,0.0,0.0,0.0,0.0,0.0,0.0,0.0,0.0,0.0,0.0,0.0,0.0,0.0,0.0,0.0,0.0,0.0,0.0,0.0,0.0,0.0,0.0,0.0,0.0,0.0,0.0,0.0,0.0,0.0,0.0,0.0,0.0,0.0,0.0,0.0,0.0,0.0,0.0,0.0,0.0,0.0,0.0,0.0,0.0,0.0,0.0,0.0,0.0,0.0,0.0,0.0,0.0,0.0,0.0,0.0,0.0,0.0,0.0,0.0,0.0,0.0,0.0,0.0,0.0,0.0,0.0,0.0,0.0,0.0,0.0,0.0,0.0,0.0,0.0,0.0,0.0,0.0,0.0,0.0,0.0,0.0,0.0,0.0,0.0,0.0,2.6492,2.6641,2.6267,2.6641,2.6905,2.7086,2.7805,2.7632,2.6505,0.0,0.0,0.0,0.0,0.0,0.0,0.0,0.0,0.0,0.0,0.0,0.0,0.0,0.0,0.0,0.0,0.0,0.0,0.0,0.0,0.0,0.0,0.0,0.0,0.0,0.0,0.0,0.0,0.0,0.0,0.0,0.0,0.0,0.0,0.0,0.0,0.0,0.0,2.4281,2.4281,0.0,0.0,0.0,0.0,0.0,0.0,0.0,0.0,2.5009,0.0,0.0,0.0,0.0,0.0,0.0,0.0,0.0,0.0,0.0,0.0,0.0,0.0,0.0,0.0,0.0,0.0,0.0,0.0,0.0,0.0,0.0,0.0,0.0,0.0,0.0,0.0,0.0,0.0,0.0,0.0,0.0,0.0,0.0,0.0,0.0,0.0,0.0,0.0,0.0,0.0,0.0,0.0,0.0,0.0,0.0,0.0,0.0,0.0,0.0,0.0,0.0,0.0,0.0,0.0,0.0,2.7166,2.6727,2.6862,2.7637,2.7577,2.763,2.7838,2.8648,2.8973,2.8722,0.0,0.0,0.0,0.0,0.0,0.0,0.0,0.0,0.0,0.0,0.0,0.0,0.0,0.0,0.0,0.0,0.0,0.0,0.0,0.0,0.0,0.0,0.0,0.0,0.0,0.0,0.0,0.0,0.0,0.0,0.0,0.0,0.0,0.0,0.0,0.0,0.0,0.0,0.0,2.4281,2.4281,0.0,0.0,0.0,0.0,0.0,0.0,0.0,0.0,2.515,0.0,0.0,0.0,0.0,0.0,0.0,0.0,0.0,0.0,0.0,0.0,0.0,0.0,0.0,0.0,0.0,0.0,0.0,0.0,0.0,0.0,0.0,0.0,0.0,0.0,0.0,0.0,0.0,0.0,0.0,0.0,0.0,0.0,0.0,0.0,0.0,0.0,0.0,0.0,0.0,0.0,0.0,0.0,0.0,0.0,0.0,0.0,0.0,0.0,0.0,0.0,0.0,0.0,0.0,0.0,2.7855,2.7986,2.8133,2.8263,2.8443,2.862,2.8823,2.9482,2.9869,0.0,0.0,0.0,0.0,0.0,0.0,0.0,0.0,0.0,0.0,0.0,0.0,0.0,0.0,0.0,0.0,0.0,0.0,0.0,0.0,0.0,0.0,0.0,0.0,0.0,0.0,0.0,0.0,0.0,0.0,0.0,0.0,0.0,0.0,0.0,0.0,0.0,0.0,0.0,0.0,2.497,2.4976,2.4976,0.0,0.0,0.0,0.0,0.0,0.0,2.5246,2.5346,0.0,0.0,0.0,0.0,0.0,0.0,0.0,0.0,0.0,0.0,0.0,0.0,0.0,0.0,0.0,0.0,0.0,0.0,0.0,0.0,0.0,0.0,0.0,0.0,0.0,0.0,0.0,0.0,0.0,0.0,0.0,0.0,0.0,0.0,0.0,0.0,0.0,0.0,0.0,0.0,0.0,0.0,0.0,0.0,0.0,0.0,0.0,0.0,0.0,0.0,0.0,0.0,0.0,0.0,0.0,2.8521,2.9141,2.9282,2.8876,2.9296,2.9576,2.9731,3.0145,3.0447,0.0,0.0,0.0,0.0,0.0,0.0,0.0,0.0,0.0,0.0,0.0,0.0,0.0,0.0,0.0,0.0,0.0,0.0,0.0,0.0,0.0,0.0,0.0,0.0,0.0,0.0,0.0,0.0,0.0,0.0,0.0,0.0,0.0,0.0,0.0,0.0,0.0,0.0,0.0,0.0,0.0,2.5606,2.5619,2.56,0.0,0.0,0.0,0.0,2.5597,2.5635,0.0,0.0,0.0,0.0,0.0,0.0,0.0,0.0,0.0,0.0,0.0,0.0,0.0,0.0,0.0,0.0,0.0,0.0,0.0,0.0,0.0,0.0,0.0,0.0,0.0,0.0,0.0,0.0,0.0,0.0,0.0,0.0,0.0,0.0,0.0,0.0,0.0,0.0,0.0,0.0,0.0,0.0,0.0,0.0,0.0,0.0,0.0,0.0,0.0,0.0,0.0,0.0,0.0,0.0,0.0,0.0,2.9434,2.919,2.9423,3.0068,3.0145,3.019,3.0221,3.0447,3.0582,0.0,0.0,0.0,0.0,0.0,0.0,0.0,0.0,0.0,0.0,0.0,0.0,0.0,0.0,0.0,0.0,0.0,0.0,0.0,0.0,0.0,0.0,0.0,0.0,0.0,0.0,0.0,0.0,0.0,0.0,0.0,0.0,0.0,0.0,0.0,0.0,0.0,0.0,0.0,0.0,0.0,2.5628,2.5673,2.563,2.5619,0.0,0.0,2.567,2.5609,2.5766,0.0,0.0,0.0,0.0,0.0,0.0,0.0,0.0,0.0,0.0,0.0,0.0,0.0,0.0,0.0,0.0,0.0,0.0,0.0,0.0,0.0,0.0,0.0,0.0,0.0,0.0,0.0,0.0,0.0,0.0,0.0,0.0,0.0,0.0,0.0,0.0,0.0,0.0,0.0,0.0,0.0,0.0,0.0,0.0,0.0,0.0,0.0,0.0,0.0,0.0,0.0,0.0,0.0,0.0,0.0,3.0572,3.0645,3.0164,3.01,3.0447,3.0477,3.0462,3.0477,3.0553,3.0612,0.0,0.0,0.0,0.0,0.0,0.0,0.0,0.0,0.0,0.0,0.0,0.0,0.0,0.0,0.0,0.0,0.0,0.0,0.0,0.0,0.0,0.0,0.0,0.0,0.0,0.0,0.0,0.0,0.0,0.0,0.0,0.0,0.0,0.0,0.0,0.0,0.0,0.0,0.0,0.0,0.0,0.0,2.5691,2.567,0.0,0.0,0.0,2.5726,2.5742,0.0,0.0,0.0,0.0,0.0,0.0,0.0,0.0,0.0,0.0,0.0,0.0,0.0,0.0,0.0,0.0,0.0,0.0,0.0,0.0,0.0,0.0,0.0,0.0,0.0,0.0,0.0,0.0,0.0,0.0,0.0,0.0,0.0,0.0,0.0,0.0,0.0,0.0,0.0,0.0,0.0,0.0,0.0,0.0,0.0,0.0,0.0,0.0,0.0,0.0,0.0,0.0,0.0,0.0,0.0,0.0,0.0,3.1496,3.0902,3.0612,3.0612,3.0612,3.0612,3.0612,3.0612,0.0,0.0,0.0,0.0,0.0,0.0,0.0,0.0,0.0,0.0,0.0,0.0,0.0,0.0,0.0,0.0,0.0,0.0,0.0,0.0,0.0,0.0,0.0,0.0,0.0,0.0,0.0,2.967,0.0,0.0,0.0,0.0,0.0,0.0,0.0,0.0,0.0,0.0,0.0,0.0,0.0,0.0,2.5728,2.5765,2.5756,2.5791,0.0,0.0,2.5793,2.5881,2.5952,2.5945,0.0,0.0,0.0,0.0,0.0,0.0,0.0,0.0,0.0,0.0,0.0,0.0,0.0,0.0,0.0,0.0,0.0,0.0,0.0,0.0,0.0,0.0,0.0,0.0,0.0,0.0,0.0,0.0,0.0,0.0,0.0,0.0,0.0,0.0,0.0,0.0,0.0,0.0,0.0,0.0,0.0,0.0,0.0,0.0,0.0,0.0,0.0,0.0,0.0,0.0,0.0,0.0,0.0,0.0,0.0,3.1496,3.0887,3.0612,3.0612,3.0612,3.0612,3.0612,3.0612,3.0612,0.0,0.0,0.0,0.0,0.0,0.0,0.0,0.0,0.0,0.0,0.0,0.0,0.0,0.0,0.0,0.0,0.0,0.0,0.0,0.0,0.0,0.0,0.0,0.0,0.0,0.0,0.0,0.0,0.0,0.0,0.0,0.0,0.0,0.0,0.0,0.0,0.0,0.0,0.0,0.0,0.0,2.5765,2.5956,2.5927,2.5908,0.0,0.0,2.5956,2.5915,2.6052,2.6114,2.5917,0.0,0.0,0.0,0.0,0.0,0.0,0.0,0.0,0.0,0.0,0.0,0.0,0.0,0.0,0.0,0.0,0.0,0.0,0.0,0.0,0.0,0.0,0.0,0.0,0.0,0.0,0.0,0.0,0.0,0.0,0.0,0.0,0.0,0.0,0.0,0.0,0.0,0.0,0.0,0.0,0.0,0.0,0.0,0.0,0.0,0.0,0.0,0.0,0.0,0.0,0.0,0.0,0.0,3.2788,3.2104,3.1467,3.0989,3.0627,3.0612,3.0612,3.0612,3.0612,3.0612,0.0,0.0,0.0,0.0,0.0,0.0,0.0,0.0,0.0,0.0,0.0,0.0,0.0,0.0,0.0,0.0,0.0,0.0,0.0,0.0,0.0,0.0,0.0,0.0,0.0,0.0,0.0,0.0,2.9935,2.9697,2.9054,0.0,0.0,0.0,0.0,0.0,0.0,0.0,0.0,0.0,0.0,2.591,2.6008,2.5965,0.0,0.0,2.6054,2.6017,2.6061,2.615,2.6184,2.6105,2.6157,0.0,0.0,0.0,0.0,0.0,0.0,0.0,0.0,0.0,0.0,0.0,0.0,0.0,0.0,0.0,0.0,0.0,0.0,0.0,0.0,0.0,0.0,0.0,0.0,0.0,0.0,0.0,0.0,0.0,0.0,0.0,0.0,0.0,0.0,0.0,0.0,0.0,0.0,0.0,0.0,0.0,0.0,0.0,0.0,0.0,0.0,0.0,0.0,0.0,0.0,0.0,0.0,3.3255,3.2787,3.1945,3.1278,3.0872,3.0699,3.0612,3.0612,3.0612,3.0612,0.0,0.0,0.0,0.0,0.0,0.0,0.0,0.0,0.0,0.0,0.0,0.0,0.0,0.0,0.0,0.0,0.0,0.0,0.0,0.0,0.0,0.0,0.0,0.0,0.0,0.0,0.0,0.0,3.0033,2.9886,2.9474,0.0,0.0,0.0,0.0,0.0,0.0,0.0,0.0,0.0,0.0,2.6026,2.6054,2.6054,2.6097,2.6176,2.6115,2.6097,2.6176,2.6194,2.6194,2.6194,0.0,0.0,0.0,0.0,0.0,0.0,0.0,0.0,0.0,0.0,0.0,0.0,0.0,0.0,0.0,0.0,0.0,0.0,0.0,0.0,0.0,0.0,0.0,0.0,0.0,0.0,0.0,3.4397,0.0,0.0,3.4397,0.0,0.0,0.0,0.0,0.0,0.0,0.0,0.0,0.0,0.0,0.0,0.0,0.0,0.0,0.0,0.0,0.0,0.0,0.0,0.0,0.0,0.0,3.3489,3.346,3.2193,3.151,3.1452,3.0901,3.0612,3.0612,3.0612,3.0612,3.0642,0.0,0.0,0.0,0.0,0.0,0.0,0.0,0.0,0.0,0.0,0.0,0.0,0.0,0.0,0.0,0.0,0.0,0.0,0.0,0.0,0.0,0.0,0.0,0.0,0.0,0.0,3.0189,3.0205,3.0189,0.0,0.0,0.0,0.0,0.0,0.0,0.0,0.0,0.0,0.0,2.6008,2.6045,2.6168,2.6176,2.6185,2.6194,2.6176,2.6176,2.6194,2.6194,2.6194,0.0,0.0,0.0,0.0,0.0,0.0,0.0,0.0,0.0,0.0,0.0,0.0,0.0,0.0,0.0,0.0,0.0,0.0,0.0,0.0,0.0,0.0,0.0,0.0,0.0,0.0,0.0,3.4397,3.4397,0.0,0.0,0.0,0.0,0.0,0.0,0.0,0.0,0.0,0.0,0.0,3.6538,3.698,0.0,0.0,0.0,0.0,0.0,0.0,0.0,0.0,0.0,0.0,0.0,0.0,3.3908,3.3503,3.3066,3.2382,3.1525,3.1292,3.1003,3.0627,3.0612,3.0836,3.132,0.0,0.0,0.0,0.0,0.0,0.0,0.0,0.0,0.0,0.0,0.0,0.0,0.0,0.0,0.0,0.0,0.0,0.0,0.0,0.0,0.0,0.0,0.0,0.0,0.0,3.0248,0.0,0.0,0.0,0.0,0.0,0.0,0.0,0.0,0.0,0.0,0.0,2.6705,2.6733,2.6385,2.6159,2.6185,2.6194,2.6194,0.0,0.0,0.0,0.0,0.0,0.0,0.0,0.0,0.0,0.0,0.0,0.0,0.0,0.0,2.8129,2.8189,2.8189,2.8202,2.8253,0.0,0.0,0.0,0.0,0.0,0.0,0.0,0.0,0.0,0.0,0.0,0.0,0.0,0.0,3.5054,0.0,3.5222,0.0,0.0,0.0,0.0,0.0,0.0,0.0,0.0,3.6949,3.7279,3.7382,3.7807,3.7778,0.0,3.7324,3.695,0.0,0.0,0.0,0.0,0.0,0.0,0.0,0.0,3.4194,3.3821,3.3589,3.3066,3.2238,3.1945,3.1629,3.1233,3.1249,3.1592,3.2334,3.27,3.3153,0.0,0.0,0.0,0.0,0.0,0.0,0.0,0.0,0.0,0.0,0.0,0.0,0.0,0.0,0.0,0.0,0.0,0.0,0.0,0.0,0.0,0.0,0.0,3.0321,0.0,0.0,0.0,0.0,0.0,0.0,0.0,0.0,0.0,2.8642,2.7963,2.7557,2.7557,2.7217,2.6956,2.6956,0.0,0.0,0.0,0.0,0.0,0.0,0.0,2.6194,2.6194,2.6284,2.6452,2.6683,2.7173,2.7612,2.7825,0.0,0.0,2.8243,2.825,2.8284,2.8327,2.8333,2.8347,2.8404,2.8413,2.8432,0.0,0.0,0.0,0.0,0.0,0.0,0.0,0.0,3.5913,3.6228,0.0,3.6737,0.0,0.0,0.0,0.0,0.0,3.7219,0.0,0.0,3.8409,3.8791,3.8791,3.8791,3.8805,3.8805,3.8641,3.8315,3.7793,3.7054,0.0,0.0,0.0,0.0,0.0,0.0,3.445,3.4471,3.392,3.3567,3.3496,3.2879,3.2497,3.2437,3.2493,3.2833,3.3543,3.3624,3.3894,3.4472,3.4497,0.0,0.0,0.0,0.0,0.0,0.0,0.0,0.0,0.0,0.0,0.0,0.0,0.0,0.0,0.0,0.0,0.0,0.0,0.0,0.0,3.0537,0.0,0.0,0.0,0.0,0.0,0.0,0.0,0.0,0.0,0.0,2.9512,2.8837,2.8442,2.8416,0.0,0.0,0.0,0.0,2.8392,2.8376,2.7796,2.7341,2.7332,2.675,2.6294,2.6294,0.0,0.0,2.7575,2.7968,2.8175,2.8213,2.8209,2.8248,2.8347,2.8376,2.838,2.8411,2.84,2.8411,2.8406,2.8465,2.8517,3.4966,0.0,0.0,0.0,0.0,3.5348,3.5689,3.5928,3.6353,3.663,3.6813,3.6813,0.0,0.0,0.0,0.0,0.0,0.0,3.7366,3.7994,3.8067,3.8381,3.8942,3.8942,3.8942,3.8925,3.8903,3.8819,3.8648,3.8423,3.7366,3.5579,0.0,0.0,0.0,0.0,3.5544,3.5914,3.5477,3.4923,3.4364,3.4698,3.4408,3.3437,3.3329,3.3427,3.3735,3.4161,3.4468,3.4631,3.4643,0.0,0.0,0.0,0.0,0.0,0.0,0.0,0.0,0.0,0.0,0.0,0.0,0.0,0.0,0.0,0.0,0.0,0.0,0.0,3.0506,3.1014,3.1133,0.0,0.0,0.0,0.0,0.0,0.0,0.0,0.0,0.0,3.0208,2.9556,2.9109,0.0,0.0,2.8409,2.8409,2.8409,2.8409,2.8409,2.8227,0.0,2.8078,2.7902,2.777,2.777,2.7646,2.7529,2.7446,2.7742,2.8059,2.8304,2.8373,2.8581,2.913,2.8757,2.842,2.8452,2.846,2.8491,2.853,2.8555,2.8592,3.5606,3.5494,3.5365,3.5363,3.5462,3.6102,3.6554,3.6874,3.7233,3.7559,3.7791,3.7791,3.7617,3.7307,3.7217,0.0,0.0,0.0,3.8009,3.8562,3.8451,3.8664,3.9107,3.9121,3.9121,3.9121,3.9037,3.9037,3.9121,3.9037,3.8179,3.6645,0.0,0.0,3.6103,3.6119,3.6322,3.6645,3.6399,3.6014,3.5538,3.6015,3.5718,3.4635,3.453,3.4403,3.4263,3.4578,3.4775,3.4792,3.478,3.4792,0.0,0.0,0.0,0.0,0.0,0.0,0.0,0.0,0.0,0.0,0.0,3.4527,3.3868,0.0,0.0,0.0,3.1509,3.0803,3.0522,3.0935,0.0,0.0,0.0,0.0,0.0,0.0,0.0,3.0489,3.0489,3.0489,3.0489,3.0357,3.0168,2.9877,2.9483,2.9244,2.9234,0.0,2.9228,2.9244,2.8979,2.878,2.8797,2.8565,2.8517,2.884,2.8704,2.8643,2.8715,2.8901,2.9112,2.9307,2.9382,2.9566,3.008,2.9706,2.9373,2.945,2.9477,2.9508,2.9541,2.9554,2.9547,3.6538,3.6477,3.6212,3.6165,3.6352,3.6951,3.7618,3.8292,3.8348,3.8717,3.9285,3.9315,3.8901,3.8195,3.801,0.0,3.9023,3.904,3.9091,3.9315,3.9315,3.9315,3.9315,3.9299,3.9315,3.9315,3.9107,3.9121,3.9285,3.9107,3.8747,3.821,3.8195,3.7762,3.6964,3.6903,3.6934,3.6994,3.6949,3.6933,3.6978,3.6893,3.6545,3.6013,3.5885,3.5555,3.5003,3.4916,3.4911,3.4911,3.4911,3.4911,3.4911,0.0,0.0,0.0,0.0,0.0,0.0,0.0,0.0,0.0,0.0,0.0,0.0,0.0,0.0,0.0,3.2251,0.0,3.0711,3.0616,0.0,0.0,0.0,3.0489,3.0489,3.0555,3.0588,3.0572,0.0,0.0,3.0671,3.1267,3.1443,3.0791,3.0682,3.0638,3.0588,3.0572,3.0561,3.0423,2.993,2.9499,2.9489,2.9055,2.891,2.9461,2.9669,2.9897,3.0407,3.0679,3.0772,3.0721,3.0811,3.0843,3.0964,3.0953,3.1035,3.1159,3.1028,3.0948,3.0901,3.0865,3.0846,3.7663,3.7191,3.7559,3.7501,3.7161,3.7764,3.8123,3.8337,3.8857,3.9148,3.9315,3.9315,3.9188,3.9026,3.8969,3.905,3.9232,3.9215,3.9258,3.9315,3.9315,3.9315,3.9315,3.9315,3.9315,3.9315,3.9258,3.9258,3.9315,3.9258,3.9161,3.9023,3.9023,3.8606,3.7806,3.7794,3.8026,3.8479,3.8137,3.8193,3.8659,3.7658,3.7275,3.7621,3.6539,3.5889,3.5744,3.5197,3.4911,3.4911,3.4911,3.4911,3.4911,3.4911,0.0,0.0,0.0,0.0,0.0,0.0,0.0,0.0,0.0,3.58,3.5234,0.0,3.4651,0.0,3.4083,3.3072,3.1975,3.1609,0.0,0.0,3.0489,3.0489,3.0506,3.1002,3.135,3.135,3.1835,3.2194,3.2166,3.2332,3.2426,3.2341,3.2232,3.1984,3.1449,3.135,3.1135,3.0648,3.0483,3.037,3.0222,3.02,3.0039,2.9801,3.022,3.0467,3.0119,3.0567,3.0943,3.0961,3.0943,3.1185,3.1796,3.188,3.214,3.2589,3.1861,3.1009,3.1009,3.1028,3.1028,3.9149,3.8841,3.9422,3.9479,3.9172,3.8867,3.8745,3.8772,3.9134,3.9315,3.9315,3.9315,3.9315,3.9315,3.9315,3.9315,3.9315,3.9315,3.9315,3.9315,3.9315,3.9315,3.9315,3.9315,3.9315,3.9315,3.9315,3.9315,3.9315,3.9315,3.9315,3.9315,3.9315,3.908,3.8648,3.8637,3.8805,3.9137,3.8884,3.8925,3.9239,3.8534,3.8162,3.8186,3.7404,3.6671,3.6009,3.5611,3.5247,3.4916,3.4911,3.4911,3.4911,3.4911,3.4911,0.0,0.0,0.0,0.0,0.0,0.0,0.0,0.0,0.0,0.0,0.0,3.519,3.4881,3.4295,3.3546,3.2576,3.2269,3.1978,3.1541,3.1487,3.1487,3.1487,3.1835,3.2089,3.2072,3.2431,3.2685,3.2691,3.2989,3.3233,3.3384,3.3594,3.3405,3.2502,3.228,3.2113,3.1724,3.1433,3.112,3.0748,3.0733,3.0751,3.0668,3.0947,3.1168,3.1152,3.1495,3.1852,3.2036,3.2078,3.2205,3.2632,3.2723,3.2904,3.3103,3.2705,3.2151,3.2078,3.2071,3.2071,4.0692,4.067,4.1195,4.1411,4.1295,4.0081,3.9531,3.9431,3.9348,3.9315,3.9315,3.9315,3.9315,3.9315,3.9315,3.9315,3.9315,3.9315,3.9315,3.9315,3.9315,3.9315,3.9315,3.9315,3.9315,3.9315,3.9315,3.9315,3.9315,3.9315,3.9315,3.9315,3.9315,3.9315,3.9315,3.9315,3.9315,3.9315,3.9315,3.9315,3.9315,3.9315,3.9,3.8364,3.8248,3.7603,3.6344,3.6092,3.5711,3.5081,3.4949,3.4911,3.4911,3.4911,3.4911,0.0,3.4911,0.0,0.0,0.0,0.0,0.0,0.0,0.0,0.0,3.6043,3.5668,3.4155,3.3999,3.3678,3.3001,3.2846,3.2774,3.2702,3.2685,3.2685,3.2685,3.2785,3.284,3.2851,3.2923,3.2989,3.3055,3.3564,3.4019,3.4195,3.4663,3.462,3.3678,3.3326,3.3159,3.3141,3.2466,3.1692,3.124,3.1006,3.1058,3.1488,3.1634,3.1958,3.2577,3.2789,3.295,3.3247,3.3266,3.3321,3.3393,3.3357,3.3357,3.3375,3.3321,3.3266,3.3266,3.3248,3.3393,4.1783,4.1222,4.1335,4.1411,4.1378,4.1096,4.0696,4.016,3.9547,3.9315,3.9315,3.9315,3.9315,3.9315,3.9315,3.9315,3.9315,3.9315,3.9315,3.9315,3.9315,3.9315,3.9315,3.9315,3.9315,3.9315,3.9315,3.9315,3.9315,3.9315,3.9315,3.9315,3.9315,3.9315,3.9315,0.0,0.0,0.0,3.9315,3.9315,3.9315,3.9315,3.9235,3.9086,3.8526,0.0,3.7768,3.6626,3.5943,3.5794,3.5214,0.0,0.0,0.0,0.0,0.0,0.0,0.0,0.0,0.0,0.0,0.0,3.5672,3.5837,3.6062,3.6169,3.5947,3.5324,3.5029,3.4668,3.4182,3.3555,3.3041,3.2735,3.2702,3.2685,3.2718,3.3221,3.3591,3.3602,3.4116,3.448,3.4459,3.4712,3.4883,3.4994,3.5265,3.5334,3.5116,3.4438,3.3801,3.3197,3.2571,3.207,3.2043,3.1466,3.1205,3.1592,3.1976,3.2291,3.2708,3.3068,3.3271,3.3393,3.3393,3.3393,3.3393,3.3393,3.3393,3.3393,3.3393,3.3393,3.3393,3.3393,3.3393,4.2835,4.2473,4.2473,4.2504,0.0,4.2106,4.1759,4.1375,4.0663,4.0332,4.0346,4.0329,4.0346,4.0312,3.9998,3.9862,3.9829,3.9464,3.9315,3.9315,3.9315,3.9315,3.9315,3.9315,3.9315,3.9315,3.9315,3.9315,3.9315,3.9315,3.9315,3.9315,3.9315,3.9315,3.9315,3.9315,3.9315,3.9315,3.9315,3.9315,3.9315,3.9315,3.9315,3.9299,3.8937,0.0,0.0,0.0,0.0,0.0,0.0,0.0,0.0,3.4911,0.0,3.4911,3.4911,3.4911,3.4911,3.4911,3.509,3.5566,3.5938,3.6073,3.5913,3.5688,3.547,3.527,3.5105,3.4919,3.4706,3.4326,3.4007,3.3819,3.3784,3.3784,3.3817,3.4116,3.4371,3.4462,3.4761,3.5018,3.5093,3.5135,3.5273,3.5389,3.5457,3.552,3.556,3.5189,3.4628,3.3915,3.3527,3.3138,3.2834,3.2175,3.1695,3.1969,3.1992,3.2153,3.2485,3.2862,3.3144,3.3331,3.3393,3.3393,3.3393,3.3393,3.3393,3.3393,3.3393,3.3393,3.3393,3.3393,3.3393,4.3795,4.3779,4.3646,4.3615,4.3549,4.2953,4.2702,4.2622,0.0,0.0,0.0,4.1411,4.1411,4.1361,4.0812,4.0578,4.0528,3.9931,3.9696,3.968,3.9666,3.9666,3.9666,3.9683,3.9613,3.9497,3.9481,3.9415,3.9315,3.9315,3.9315,3.9315,3.9315,3.9315,3.9315,3.9315,3.9315,3.9315,3.9315,3.9315,3.9315,3.9315,3.9315,3.9315,3.9315,3.902,3.8414,3.8282,3.7636,3.6473,3.6257,3.586,3.516,3.5098,3.5015,3.4916,3.5015,3.5093,3.5081,3.5214,3.5459,3.5829,3.6442,3.6459,3.5728,3.543,3.5309,3.5299,3.5316,3.5328,3.5352,3.5364,3.5364,3.5369,3.5352,3.5364,3.5364,3.5352,3.5445,3.5495,3.5573,3.5575,3.572,3.5767,3.5696,3.5716,3.5778,3.5661,3.5611,3.5566,3.5318,3.4788,3.445,3.4218,3.3677,3.2983,3.2568,3.2614,3.2443,3.2357,3.2695,3.2968,3.3219,3.3612,3.3531,3.3411,3.3393,3.3393,3.3393,3.3393,3.3393,3.3393,3.3393,3.3393,3.34,4.4522,4.4489,4.3861,4.3615,4.3582,4.3497,4.3433,4.3332,4.2007,4.1411,4.1411,4.1411,4.1411,4.1394,4.1312,4.1245,4.1245,4.1146,4.1113,4.1113,4.1113,4.1096,4.1096,4.1096,4.0796,4.0293,4.0246,3.9912,3.9365,3.9332,3.9315,3.9315,3.9315,3.9315,3.9315,3.9315,3.9315,3.9315,3.9315,3.9315,3.9315,3.9315,3.9315,3.9315,3.9315,3.9265,3.9149,3.8543,3.8116,3.7884,3.7272,3.6622,3.5909,3.5843,3.5562,3.4998,3.5495,3.5843,3.586,3.6439,3.6812,3.6875,3.6999,3.6738,3.604,3.646,3.6837,3.6928,3.6874,3.7036,3.7134,3.7055,3.7022,3.7067,3.7113,3.7117,3.705,3.7034,3.7017,3.7025,3.7171,3.7104,3.7085,3.7191,3.7011,3.6604,3.6455,3.6338,3.5752,3.5628,3.5566,3.5391,3.4895,3.4516,3.4303,3.3728,3.3419,3.3708,3.3917,3.4073,3.4367,3.437,3.4336,3.441,3.3965,3.3567,3.3502,3.3393,3.3502,3.3538,3.3502,3.3465,3.3429,3.34,3.3415,4.53,4.5267,4.4937,4.4572,4.416,4.3779,4.3615,4.3549,4.2901,4.2603,4.2603,4.2587,4.2589,4.2539,4.2173,4.2007,4.199,4.1577,4.1411,4.1411,4.1411,4.1411,4.1411,4.1411,4.1245,4.0945,4.0945,4.0763,4.0464,4.0445,4.0263,3.9912,3.9501,3.9315,3.9315,3.9315,3.9315,3.9315,3.9315,3.9315,3.9315,3.9315,3.9315,3.9315,3.9315,3.9315,3.9315,3.897,3.8609,3.8215,3.7855,3.7392,3.675,3.6626,3.6477,3.6235,3.6444,3.6642,3.6696,3.7078,3.7328,3.7328,3.7682,3.7765,3.7444,3.7223,3.7127,3.7174,3.7186,3.7249,3.7357,3.7398,3.7423,3.7497,3.7509,3.7509,3.7509,3.7509,3.7538,3.7599,3.7623,3.7635,3.7708,3.7769,3.7708,3.7327,3.7082,3.6518,3.5735,3.5628,3.5628,3.5594,3.5295,3.5148,3.5053,3.4489,3.4134,3.4246,3.4443,3.4653,3.4854,3.4964,3.5232,3.525,3.4899,3.4744,3.4679,3.4707,3.4544,3.4117,3.4056,3.3929,3.3592,3.3459,3.3499,4.6045,4.6045,4.5863,4.5465,4.4902,4.4325,4.4011,4.3861,4.3845,4.3762,4.3615,4.3615,4.3615,4.3532,4.3,4.2752,4.2671,4.2156,4.1924,4.1908,4.1891,4.1908,4.1908,4.1877,4.1808,4.1676,4.1659,4.1577,4.1428,4.1411,4.1143,4.0597,4.0047,3.9699,3.9547,3.9547,3.9464,3.9315,3.9315,3.9315,3.9315,3.9315,3.9315,3.9315,3.9315,3.9315,3.9315,3.9315,3.9037,3.851,3.8444,3.8177,3.7603,3.7435,3.7382,3.7357,3.7403,3.7556,3.7816,3.792,3.7982,3.8016,3.8518,3.884,3.8777,3.8148,3.7701,3.771,3.7831,3.7848,3.7999,3.7991,3.797,3.8086,3.8081,3.8178,3.8115,3.8081,3.8118,3.8204,3.8245,3.8333,3.836,3.8396,3.835,3.8113,3.7511,3.6755,3.605,3.5864,3.5831,3.5633,3.5628,3.5577,3.5566,3.5165,3.4804,3.4736,3.4915,3.507,3.5194,3.558,3.5851,3.5848,3.58,3.5669,3.5757,3.5763,3.5507,3.5025,3.4913,3.4747,3.4283,3.4233,3.3963,4.6792,4.6692,4.6113,4.578,4.5697,4.5598,4.5185,4.4654,4.4604,4.4224,4.3714,4.3615,4.3615,4.3598,4.3499,4.3466,4.3481,4.3431,4.335,4.335,4.34,4.34,4.3317,4.3367,4.3067,4.2487,4.2404,4.2106,4.156,4.1444,4.1378,4.1312,4.1243,4.0862,4.0362,4.0279,3.9978,3.9332,3.9315,3.9315,3.9315,3.9315,3.9315,3.9315,3.9315,3.9315,3.9315,3.9315,3.9282,3.9216,3.9183,3.8934,3.8385,3.8298,3.8036,3.7606,3.8112,3.8748,3.9359,3.9506,3.9448,3.9519,3.9515,3.9566,3.9569,3.9476,3.9498,3.9512,3.9568,3.9539,3.9817,3.975,3.964,3.9602,3.9678,3.9842,3.9728,3.9855,3.9872,3.9872,3.9686,3.9868,3.9728,3.9711,3.9525,3.8848,3.8227,3.7533,3.6851,3.6665,3.6417,3.5864,3.5633,3.5633,3.5583,3.5577,3.5408,3.5458,3.5835,3.5956,3.6,3.6101,3.6264,3.6368,3.6176,3.6049,3.5991,3.5856,3.5973,3.5846,3.5775,3.5789,3.5742,3.5648,3.5195,4.7554,4.7504,4.7222,4.6841,4.6427,4.598,4.5632,4.5366,4.5366,4.5168,4.487,4.4456,4.3994,4.3615,4.3615,4.3615,4.3615,4.3615,4.3615,4.3615,4.3615,4.3615,4.3615,4.3615,4.3416,4.3168,4.3151,4.2986,4.2669,4.2272,4.2057,4.199,4.1626,4.1262,4.0994,4.0994,4.0644,3.9978,4.0029,3.9814,3.9365,3.9315,3.9315,3.9315,3.9315,3.9315,3.9299,3.9365,3.9422,3.9435,3.9498,3.9469,3.9297,3.9229,3.9079,3.8938,3.9202,3.9504,3.979,3.9884,3.9948,3.9918,3.9948,3.9931,3.9931,3.9931,3.9961,3.9986,3.9871,3.9833,3.9961,3.9986,4.0024,4.0087,4.0113,4.0113,4.0113,4.0113,4.0113,4.0113,4.0113,4.0113,4.0113,4.0113,3.9779,3.9169,3.87,3.8278,3.7584,3.7449,3.711,3.6518,3.6315,3.6079,3.5746,3.5628,3.5628,3.5689,3.5991,3.6273,3.6309,3.6765,3.7014,3.6979,3.7008,3.7082,3.7313,3.7225,3.7235,3.6874,3.6185,3.6001,3.6001,3.6043,3.57,4.8049,4.8033,4.8017,4.7703,4.7156,4.6626,4.6294,4.6096,4.6112,4.5996,4.5747,4.5233,4.4721,4.4193,4.3797,4.3615,4.3615,4.3615,4.3615,4.3615,4.3615,4.3615,4.3615,4.3615,4.3615,4.3615,4.3598,4.3598,4.3549,4.3102,4.2818,4.2719,4.2255,4.1893,4.1709,4.1752,4.1446,4.0796,4.0703,4.0347,3.9781,3.9505,3.9392,3.9352,3.9405,3.9405,3.9405,3.9514,3.955,3.955,3.9651,3.9755,3.9888,3.9811,3.982,3.9939,3.9965,3.9948,3.9948,4.0049,4.0113,4.0113,4.0113,4.0113,4.0113,4.0113,4.0113,4.0087,3.9918,3.9871,3.9922,3.9948,3.9999,4.0083,4.0113,4.0113,4.0113,4.0113,4.0113,4.0113,4.0113,4.0113,4.0113,4.0096,3.9893,3.9457,3.9322,3.9051,3.8413,3.8193,3.7939,3.7241,3.7105,3.6671,3.5847,3.5628,3.5628,3.5656,3.5904,3.6056,3.6142,3.6751,3.7256,3.695,3.765,3.8025,3.7908,3.8072,3.8198,3.7674,3.7119,3.6745,3.6987,3.6834,3.6856,4.8195,4.8163,4.8066,4.7967,4.7934,4.7885,4.7487,4.689,4.6858,4.6477,4.5963,4.5781,4.5715,4.5549,4.4325,4.3631,4.3664,4.3681,4.3664,4.3664,4.3615,4.3615,4.3615,4.3615,4.3615,4.3615,4.3615,4.363,4.3597,4.3563,4.3563,4.3514,4.3413,4.31,4.2597,4.2644,4.238,4.1694,4.117,4.0802,4.0652,4.0062,3.9679,3.9591,3.9599,3.9651,3.9677,3.969,3.969,3.9677,3.9716,3.9768,3.9888,3.9901,3.9948,4.0062,4.0087,4.0087,4.0087,4.01,4.0113,4.0113,4.0113,4.0113,4.0113,4.0113,4.0113,4.0113,4.0087,4.0058,4.0075,4.0075,4.007,4.0083,4.0113,4.0113,4.0113,4.0113,4.0113,4.0113,4.0113,4.0113,4.0113,4.0113,4.0079,3.9994,4.0011,3.9745,3.9169,3.8949,3.8616,3.8079,3.7741,3.7335,3.6017,3.5797,3.5763,3.5656,3.5723,3.5756,3.5816,3.6017,3.6488,3.6958,3.7469,3.7897,3.8179,3.8352,3.8438,3.8308,3.8318,3.8184,3.7905,3.8365,3.8299,4.8388,4.8388,4.834,4.8324,4.8324,4.8324,4.8077,4.7748,4.7732,4.7551,4.7155,4.6709,4.6526,4.646,4.5467,4.5019,4.4953,4.4539,4.4307,4.4257,4.3828,4.3615,4.3615,4.3615,4.3615,4.3615,4.3615,4.3673,4.3747,4.3674,4.3717,4.3879,4.3822,4.3687,4.3558,4.358,4.3273,4.2599,4.2375,4.2067,4.1493,4.0951,4.0591,4.0456,3.9968,3.9703,3.9703,3.9798,3.982,3.9836,3.9922,3.9986,4.0024,4.0024,4.0049,4.0083,4.0113,4.0113,4.0113,4.0113,4.0113,4.0113,4.0113,4.0113,4.0113,4.0113,4.0113,4.0113,4.0113,4.0113,4.0113,4.0113,4.0113,4.0113,4.0113,4.0113,4.0113,4.0113,4.0113,4.0113,4.0113,4.0113,4.0113,4.0113,4.0113,4.0113,4.0113,3.9977,3.9808,3.9706,3.9389,3.8819,3.8565,3.828,3.7425,3.6694,3.6304,3.5921,3.5795,3.6023,3.6146,3.6467,3.6931,3.7312,3.7667,3.7939,3.8303,3.8427,3.8528,3.8635,3.8699,3.8699,3.8681,3.8699,3.8699,4.8563,4.8499,4.8499,4.8499,4.8499,4.8499,4.842,4.8308,4.8292,4.8243,4.8063,4.7631,4.7415,4.7332,4.6883,4.6683,4.6534,4.5655,4.5175,4.5154,4.4662,4.4268,4.4084,4.4036,4.3903,4.3752,4.3732,4.3835,4.3925,4.382,4.3896,4.4085,4.4012,4.4012,4.4083,4.414,4.3898,4.3476,4.3337,4.2961,4.2381,4.1838,4.152,4.1323,4.0611,4.0038,3.9849,3.991,3.9961,3.999,4.0062,4.0113,4.0113,4.0113,4.0113,4.0113,4.0113,4.0113,4.0113,4.0113,4.0113,4.0113,4.0113,4.0113,4.0113,4.0113,4.0113,4.0113,4.0113,4.0113,4.0113,4.0113,4.0113,4.0113,4.0113,4.0113,4.0113,4.0113,4.0113,4.0113,4.0113,4.0113,4.0113,4.0113,4.0113,4.0113,4.0138,4.0163,4.0125,4.0116,4.0027,3.9524,3.9434,3.9151,3.859,3.8028,3.72,3.6718,3.6002,3.6221,3.6578,3.6935,3.7266,3.765,3.7948,3.8186,3.8368,3.8473,3.8578,3.8666,3.8699,3.8699,3.8699,3.8699,3.8699,4.8674,4.8531,4.8498,4.8531,4.8547,4.8564,4.8515,4.8499,4.8499,4.8483,4.8419,4.8401,4.8319,4.8401,4.8218,4.8349,4.8032,4.6915,4.6298,4.6245,4.6022,4.5577,4.5027,4.4932,4.4582,4.4014,4.4077,4.4133,4.4083,4.4068,4.4068,4.4112,4.4112,4.4112,4.4126,4.4239,4.4293,4.4136,4.3745,4.3443,4.3321,4.2692,4.2303,4.2219,4.1567,4.089,4.0223,4.0121,4.0087,4.007,4.01,4.0113,4.0113,4.0113,4.0113,4.0113,4.0113,4.0113,4.0113,4.0113,4.0113,4.0113,4.0113,4.0113,4.0113,4.0113,4.0113,4.0113,4.0113,4.0113,4.0113,4.0113,4.0113,4.0113,4.0113,4.0113,4.0113,4.0113,4.0113,4.0113,4.0113,4.0113,4.0113,4.0125,4.0138,4.015,4.0226,4.0275,4.0201,4.0251,4.0288,4.0237,4.0113,3.9805,3.9583,3.9296,3.8396,3.7547,3.6709,3.6386,3.6847,3.7239,3.7441,3.7765,3.8016,3.8251,3.8473,3.8585,3.8627,3.8699,3.8699,3.8699,3.8699,3.8699,3.8699,4.8893,4.8845,4.8829,4.8862,4.8846,4.8846,4.8816,4.8707,4.8707,4.8627,4.8532,4.8499,4.8499,4.8499,4.8499,4.8578,4.8688,4.8502,4.8,4.7134,4.6543,4.6161,4.5945,4.5863,4.5479,4.4907,4.4851,4.4622,4.4294,4.4155,4.4198,4.4386,4.4296,4.4312,4.4429,4.4485,4.4514,4.448,4.4336,4.4228,4.4178,4.347,4.3068,4.2983,4.2337,4.1843,4.1606,4.0641,4.013,4.013,4.0113,4.0113,4.0113,4.0113,4.0113,4.0113,4.0113,4.0113,4.0113,4.0113,4.0113,4.0113,4.0113,4.0113,4.0113,4.0113,4.0113,4.0113,4.0113,4.0113,4.0113,4.0113,4.0113,4.0113,4.0113,4.0113,4.0125,4.0113,4.0113,4.0113,4.0113,4.0113,4.0125,4.0175,4.0238,4.0251,4.035,4.0395,4.0399,4.0399,4.0419,4.0436,4.0397,4.0454,4.0297,4.0024,3.9393,3.8664,3.7886,3.7275,3.7562,3.7636,3.7811,3.7912,3.8124,3.8324,3.8544,3.8658,3.8673,3.8699,3.8699,3.8699,3.8699,3.8699,3.8699,4.9018,4.9018,4.9018,4.9018,4.9048,4.9214,4.9305,4.9243,4.9436,4.9415,4.9338,4.9323,4.9207,4.9102,4.922,4.9252,4.9288,4.9766,4.9505,4.8611,4.7859,4.7308,4.6844,4.6465,4.6225,4.5799,4.5528,4.5202,4.4819,4.4461,4.4403,4.4528,4.4468,4.4454,4.4584,4.4584,4.4584,4.4584,4.4567,4.4584,4.4499,4.4096,4.3842,4.3741,4.3098,4.2743,4.2625,4.1538,4.0777,4.0523,4.0269,4.0113,4.0113,4.0113,4.0113,4.0113,4.0113,4.0113,4.0113,4.0113,4.0113,4.0113,4.0113,4.0113,4.0113,4.0113,4.0113,4.0113,4.0113,4.0113,4.0113,4.0113,4.0113,4.0113,4.0113,4.0108,4.0163,4.0175,4.0213,4.0251,4.0258,4.0234,4.0275,4.0313,4.0375,4.037,4.0485,4.0534,4.0534,4.0546,4.0558,4.0571,4.0571,4.0693,4.0908,4.0678,4.0326,3.978,3.9196,3.882,3.8786,3.8534,3.8499,3.8371,3.8488,3.8488,3.8666,3.8673,3.8699,3.8699,3.8699,3.8699,3.8699,3.8699,3.8699,4.9018,4.9018,4.9018,4.9048,4.9153,4.9629,4.9875,4.9999,5.0401,5.0544,5.0572,5.0476,5.0317,5.0082,5.0272,5.0262,5.0099,5.0484,5.0626,5.0324,4.9793,4.9017,4.7964,4.7228,4.6892,4.671,4.6217,4.5826,4.5522,4.4984,4.4618,4.4601,4.457,4.4584,4.4584,4.4584,4.4584,4.4584,4.4584,4.4584,4.4584,4.4564,4.4516,4.4513,4.3842,4.3474,4.3369,4.2675,4.1914,4.1238,4.054,4.0218,4.0117,4.0113,4.0113,4.0113,4.0113,4.0113,4.0113,4.0113,4.0113,4.0113,4.0113,4.0113,4.0113,4.0108,4.0138,4.015,4.0146,4.0146,4.0163,4.0163,4.0163,4.0121,4.015,4.0188,4.0292,4.0305,4.035,4.0448,4.0497,4.0497,4.0456,4.0485,4.051,4.0517,4.0624,4.0631,4.0619,4.0655,4.0697,4.0709,4.0721,4.0924,4.1117,4.1122,4.0843,4.0956,4.0513,4.0328,3.9947,3.9599,3.9166,3.9029,3.8904,3.8865,3.8699,3.8718,3.8699,3.8699,3.8699,3.8699,3.8699,3.8699,3.8699,4.9018,4.9018,4.9018,4.926,4.9644,4.9846,5.0142,5.0484,5.0643,5.0774,5.072,5.0693,5.067,5.0538,5.0643,5.0616,5.0643,5.1091,5.1074,5.0787,5.1008,5.04,4.9414,4.8629,4.8027,4.7633,4.734,4.6786,4.5771,4.5526,4.5156,4.4615,4.4601,4.4584,4.4584,4.4584,4.4584,4.4584,4.4584,4.4598,4.4612,4.4626,4.4584,4.4567,4.4406,4.4273,4.4212,4.3538,4.2506,4.1322,4.1052,4.0641,4.0214,4.013,4.0113,4.0113,4.0113,4.0113,4.0113,4.0113,4.0113,4.0113,4.0113,4.0113,4.0113,4.0188,4.0226,4.028,4.0325,4.0382,4.0382,4.037,4.0399,4.0387,4.0313,4.0263,4.033,4.0404,4.0473,4.051,4.0522,4.0522,4.0546,4.0612,4.0648,4.0655,4.0728,4.0817,4.0764,4.0764,4.0817,4.0823,4.0883,4.1117,4.1294,4.1344,4.1497,4.1905,4.1853,4.1804,4.1306,4.0778,4.0264,3.9837,3.9709,3.9625,3.9066,3.8736,3.8718,3.8872,3.8707,3.8726,3.8699,3.8699,3.8699,4.9379,4.9409,4.9627,4.9913,5.0265,5.0487,5.0786,5.1087,5.135,5.1452,5.147,5.1457,5.1312,5.1113,5.1337,5.1299,5.1165,5.1706,5.1798,5.1545,5.1538,5.0907,4.9974,4.9288,4.8765,4.8406,4.8307,4.7665,4.6736,4.6252,4.5688,4.5134,4.4753,4.4584,4.4584,4.4584,4.4598,4.4584,4.4598,4.4665,4.4896,4.4889,4.5079,4.5156,4.5209,4.5156,4.4862,4.4303,4.3281,4.1991,4.1373,4.0984,4.0608,4.0235,4.0113,4.0113,4.0113,4.0113,4.0113,4.0113,4.0113,4.0108,4.0133,4.0188,4.0213,4.03,4.0387,4.0404,4.0461,4.0497,4.051,4.051,4.051,4.0485,4.0473,4.0448,4.0466,4.0539,4.0624,4.066,4.0685,4.0667,4.0667,4.0728,4.0764,4.0776,4.0823,4.0859,4.0871,4.0894,4.0894,4.0894,4.1111,4.1384,4.1637,4.1756,4.2108,4.2539,4.2669,4.2723,4.2295,4.1705,4.1196,4.0708,4.0524,4.0267,3.9772,3.9342,3.9276,3.9276,3.8964,3.8799,3.8836,3.9048,3.8993,4.9974,5.0014,5.0493,5.0751,5.0858,5.1355,5.1563,5.1798,5.2174,5.2399,5.2387,5.2445,5.2084,5.1731,5.2084,5.2144,5.1719,5.2174,5.2375,5.2174,5.1848,5.107,5.031,4.9686,4.9355,4.9234,4.9083,4.8586,4.7879,4.7083,4.6382,4.5783,4.513,4.4768,4.4814,4.4786,4.4748,4.4745,4.4879,4.5075,4.5333,4.5407,4.5563,4.5843,4.5805,4.5729,4.542,4.5005,4.4241,4.2836,4.1944,4.1603,4.1387,4.0692,4.0349,4.0282,4.026,4.0133,4.015,4.0175,4.015,4.0188,4.0258,4.0313,4.0337,4.0436,4.051,4.0522,4.0517,4.0583,4.0583,4.0558,4.0583,4.0595,4.066,4.0726,4.0709,4.0709,4.0769,4.0859,4.09,4.0883,4.0894,4.0894,4.0883,4.0835,4.0871,4.0883,4.0894,4.0894,4.0894,4.0894,4.122,4.1648,4.1938,4.2208,4.2675,4.3133,4.3178,4.3165,4.2827,4.2345,4.1941,4.1607,4.135,4.1075,4.0755,4.0432,4.012,3.9945,3.9808,3.9423,3.914,3.9507,3.9635,5.0538,5.0535,5.0657,5.0982,5.1381,5.1551,5.1872,5.2298,5.244,5.2498,5.2498,5.2498,5.241,5.2287,5.241,5.241,5.2275,5.2422,5.2498,5.2428,5.189,5.1538,5.1109,5.0593,5.0345,5.0279,5.0285,4.9681,4.8761,4.8136,4.7417,4.6429,4.5905,4.5567,4.5245,4.5494,4.5524,4.5307,4.5528,4.5754,4.5893,4.595,4.6024,4.6184,4.5948,4.5955,4.6039,4.5719,4.5512,4.5152,4.4147,4.313,4.2522,4.1716,4.1311,4.1157,4.0631,4.0334,4.0375,4.0359,4.0317,4.0387,4.0407,4.0461,4.0456,4.0571,4.0648,4.0685,4.0757,4.0793,4.0776,4.0799,4.0787,4.0787,4.0799,4.0852,4.0864,4.0847,4.0876,4.0888,4.0894,4.0894,4.0894,4.0894,4.0894,4.0894,4.0894,4.0894,4.0906,4.0906,4.0971,4.103,4.1523,4.198,4.2239,4.2557,4.2976,4.333,4.3427,4.3469,4.3157,4.2992,4.2616,4.2341,4.2103,4.1856,4.1635,4.1195,4.0846,4.0755,4.0653,4.0333,4.0149,4.0314,4.0259,5.1144,5.1152,5.1414,5.1743,5.2,5.2036,5.2198,5.2445,5.2498,5.2498,5.2498,5.2498,5.2498,5.2498,5.2498,5.2498,5.2498,5.2498,5.2498,5.2434,5.215,5.2048,5.2,5.1651,5.1337,5.0902,5.1008,5.0532,4.9796,4.9051,4.8332,4.7348,4.657,4.5983,4.5711,4.5992,4.593,4.5787,4.6017,4.6298,4.6531,4.6613,4.6798,4.6855,4.6601,4.6513,4.6716,4.6395,4.6323,4.6271,4.5736,4.4881,4.391,4.2865,4.2319,4.2305,4.1483,4.0995,4.0956,4.0653,4.0424,4.0497,4.0546,4.06,4.0619,4.0721,4.0793,4.0817,4.0847,4.0883,4.0894,4.0883,4.0894,4.0894,4.0894,4.0894,4.0894,4.0894,4.0894,4.0894,4.0894,4.0894,4.0894,4.0918,4.093,4.0942,4.093,4.093,4.1024,4.1041,4.1192,4.1389,4.1906,4.2328,4.2585,4.2864,4.3196,4.3401,4.3462,4.3488,4.3359,4.3322,4.3286,4.2992,4.2708,4.2763,4.2543,4.2057,4.1635,4.1544,4.1415,4.126,4.1077,4.092,4.0846,5.1731,5.1768,5.2287,5.2498,5.2498,5.2486,5.2475,5.2498,5.2498,5.2498,5.2498,5.2498,5.2498,5.2498,5.2498,5.2498,5.2498,5.2498,5.2498,5.2457,5.2434,5.2399,5.2387,5.2263,5.1945,5.11,5.15,5.134,5.0696,4.9888,4.9071,4.8345,4.71,4.6477,4.6322,4.637,4.6424,4.6359,4.6589,4.685,4.7167,4.7284,4.7517,4.771,4.7399,4.7234,4.7277,4.7057,4.6884,4.6947,4.6981,4.6554,4.5642,4.4269,4.3315,4.3696,4.2474,4.1742,4.1442,4.0969,4.0534,4.0558,4.0673,4.0733,4.074,4.0799,4.0876,4.0888,4.0894,4.0894,4.0894,4.0894,4.0894,4.0894,4.0894,4.0918,4.0989,4.1,4.1024,4.093,4.1128,4.1294,4.1088,4.0983,4.0989,4.1,4.1,4.1041,4.1169,4.1312,4.1512,4.1735,4.2236,4.2684,4.2967,4.305,4.3383,4.3436,4.3488,4.3488,4.3488,4.3451,4.3414,4.3451,4.3322,4.3286,4.3194,4.2808,4.247,4.2359,4.2249,4.2131,4.1856,4.1507,4.1525,5.2352,5.2364,5.2475,5.2498,5.2498,5.2498,5.2498,5.2498,5.2498,5.2498,5.2498,5.2498,5.2498,5.2498,5.2498,5.2498,5.2498,5.2498,5.2498,5.2498,5.2498,5.2498,5.2498,5.2491,5.2316,5.2298,5.2287,5.1982,5.1355,5.0473,4.9653,4.8942,4.7911,4.7254,4.71,4.7302,4.7284,4.708,4.7328,4.7648,4.7731,4.7832,4.7903,4.811,4.7728,4.7721,4.7897,4.7705,4.7632,4.7937,4.7682,4.7622,4.7272,4.6021,4.5185,4.4572,4.3384,4.2456,4.2125,4.1235,4.0838,4.0799,4.093,4.0912,4.0894,4.0889,4.0977,4.0942,4.0918,4.0894,4.0894,4.0906,4.0923,4.0912,4.0965,4.1076,4.1317,4.1452,4.1346,4.118,4.1468,4.1724,4.1468,4.1305,4.1384,4.1429,4.1429,4.1574,4.1731,4.1871,4.2032,4.2259,4.2545,4.2976,4.3358,4.3357,4.347,4.3462,4.3488,4.3488,4.3488,4.3488,4.3488,4.3488,4.3488,4.3433,4.3341,4.3249,4.3176,4.2947,4.2965,4.2992,4.2708,4.2433,4.2671,5.2498,5.2498,5.2498,5.2498,5.2498,5.2498,5.2498,5.2498,5.2498,5.2498,5.2498,5.2498,5.2498,5.2498,5.2498,5.2498,5.2498,5.2498,5.2498,5.2498,5.2498,5.2498,5.2503,5.2531,5.2536,5.2547,5.2588,5.249,5.2005,5.0751,5.0074,4.9589,4.8545,4.7765,4.7645,4.7767,4.7819,4.7702,4.7913,4.81,4.811,4.8121,4.8208,4.8159,4.8052,4.8082,4.8152,4.8124,4.8055,4.8191,4.8065,4.8123,4.7975,4.7587,4.6779,4.608,4.4589,4.3504,4.3095,4.2249,4.1569,4.1556,4.1563,4.144,4.13,4.1214,4.122,4.1175,4.0977,4.0983,4.118,4.1041,4.1006,4.1163,4.122,4.144,4.1767,4.2043,4.1895,4.1622,4.1864,4.2011,4.186,4.1785,4.1832,4.1864,4.1864,4.2043,4.2277,4.241,4.2529,4.2674,4.2873,4.3133,4.3454,4.3462,4.3488,4.3488,4.3488,4.3488,4.3488,4.3488,4.3488,4.3488,4.3488,4.3488,4.3469,4.3378,4.3451,4.3488,4.3359,4.3267,4.3396,4.3469,4.3496,5.2498,5.2498,5.2498,5.2498,5.2498,5.2498,5.2498,5.2498,5.2498,5.2498,5.2498,5.2498,5.2498,5.2498,5.2498,5.2491,5.2515,5.2526,5.2508,5.2538,5.2561,5.2561,5.2542,5.2593,5.2635,5.2654,5.2717,5.2659,5.2045,5.0911,5.0311,4.9656,4.861,4.804,4.803,4.802,4.8032,4.8082,4.8159,4.8217,4.8218,4.8267,4.8315,4.8315,4.8315,4.8287,4.8287,4.8267,4.8248,4.8305,4.8277,4.8305,4.8315,4.8315,4.8049,4.7318,4.5693,4.4839,4.4103,4.2974,4.2061,4.2061,4.2164,4.1969,4.1806,4.1666,4.1655,4.1572,4.1423,4.1346,4.1567,4.1356,4.1373,4.1534,4.167,4.1821,4.2239,4.2518,4.2635,4.248,4.246,4.23,4.2136,4.2267,4.2338,4.2338,4.2348,4.2509,4.2732,4.2874,4.3004,4.3087,4.3223,4.3348,4.347,4.347,4.3488,4.3488,4.3488,4.3488,4.3488,4.3488,4.3488,4.3488,4.3488,4.3488,4.3488,4.3488,4.3488,4.3488,4.3488,4.3488,4.3488,4.3513,4.3548,5.2498,5.2498,5.2498,5.2498,5.2498,5.2498,5.2498,5.2498,5.2498,5.2498,5.2498,5.2498,5.248,5.2491,5.251,5.2531,5.2581,5.2597,5.2586,5.2615,5.2672,5.2672,5.262,5.2728,5.2772,5.2794,5.2806,5.2357,5.1719,5.0797,5.0013,4.938,4.8662,4.807,4.8149,4.8159,4.8217,4.8248,4.8267,4.8277,4.8277,4.8287,4.8315,4.8315,4.8315,4.8315,4.8315,4.8315,4.8315,4.8315,4.8315,4.8315,4.8315,4.8315,4.7865,4.707,4.5995,4.4988,4.4377,4.321,4.236,4.238,4.232,4.2188,4.2126,4.2064,4.2043,4.2105,4.2001,4.2001,4.2064,4.2022,4.2064,4.2074,4.2126,4.2368,4.2721,4.2873,4.2995,4.3087,4.2977,4.2684,4.2448,4.2653,4.2825,4.2825,4.2854,4.3004,4.3124,4.3223,4.3286,4.3322,4.3339,4.3444,4.3488,4.3488,4.3488,4.3488,4.3488,4.3488,4.3488,4.3488,4.3515,4.3515,4.3496,4.3505,4.3523,4.3523,4.3496,4.3488,4.3488,4.3488,4.3488,4.3539,4.3649,5.2498,5.2498,5.2498,5.2498,5.2498,5.2498,5.2498,5.2498,5.2498,5.2498,5.2498,5.2498,5.2496,5.2536,5.2547,5.2615,5.2687,5.271,5.271,5.2728,5.2772,5.2783,5.2743,5.2839,5.2923,5.2934,5.2831,5.2244,5.1425,5.0725,5.013,4.9378,4.861,4.819,4.8237,4.8257,4.8258,4.8287,4.8315,4.8315,4.8315,4.8315,4.8315,4.8315,4.8315,4.8315,4.8315,4.8315,4.8315,4.8315,4.8315,4.8315,4.8315,4.8241,4.7938,4.714,4.6193,4.5356,4.4584,4.351,4.3037,4.2912,4.2884,4.2855,4.2635,4.2388,4.2378,4.2585,4.2348,4.233,4.2468,4.2338,4.2418,4.2478,4.2577,4.2808,4.3069,4.3196,4.3322,4.3418,4.3462,4.3114,4.2865,4.3004,4.3142,4.3142,4.3151,4.3232,4.3312,4.3383,4.3427,4.3444,4.3453,4.3479,4.3488,4.3488,4.3515,4.3515,4.3515,4.3515,4.3488,4.3488,4.354,4.3566,4.3556,4.3556,4.3566,4.354,4.3496,4.3488,4.3488,4.3513,4.3565,4.3787,4.3905,5.2498,5.2498,5.2498,5.2498,5.2498,5.2498,5.2498,5.2498,5.2498,5.2521,5.2538,5.2561,5.2611,5.2631,5.2665,5.2728,5.2839,5.2839,5.2839,5.2857,5.2861,5.2872,5.2893,5.2977,5.3042,5.3023,5.2765,5.2082,5.1147,5.0401,4.9888,4.9288,4.8589,4.8323,4.8315,4.8305,4.8296,4.8315,4.8315,4.8315,4.8315,4.8315,4.8315,4.8315,4.8315,4.8315,4.8315,4.8315,4.8315,4.8315,4.8315,4.8315,4.8315,4.8278,4.7709,4.692,4.6048,4.5324,4.4519,4.3731,4.3552,4.3488,4.3479,4.3259,4.3069,4.2693,4.2616,4.3032,4.2808,4.2808,4.2883,4.2732,4.2826,4.2949,4.305,4.3241,4.3401,4.3401,4.341,4.3453,4.3496,4.3505,4.3347,4.34,4.3462,4.347,4.3488,4.3488,4.3488,4.3488,4.3488,4.3488,4.3506,4.3488,4.3496,4.3496,4.3515,4.354,4.354,4.3558,4.3583,4.36,4.3644,4.3642,4.3651,4.3651,4.3678,4.3592,4.3523,4.3496,4.3505,4.3573,4.3672,4.3944,4.4158,5.2498,5.2498,5.2491,5.251,5.2498,5.2498,5.2498,5.2521,5.2491,5.2542,5.2608,5.2705,5.275,5.2783,5.2794,5.2861,5.2988,5.2988,5.2988,5.3039,5.3092,5.3071,5.3071,5.3092,5.3156,5.3028,5.2609,5.1756,5.082,5.0095,4.9324,4.848,4.8398,4.8333,4.8315,4.8315,4.8315,4.8315,4.8315,4.8315,4.8315,4.8315,4.8315,4.8315,4.8315,4.8315,4.8315,4.8315,4.8315,4.8315,4.8315,4.8315,4.8315,4.8315,4.7654,4.6471,4.6049,4.5186,4.4112,4.3653,4.3543,4.3488,4.3479,4.3462,4.3348,4.3401,4.3427,4.3356,4.3187,4.3268,4.3375,4.3418,4.3268,4.3268,4.3286,4.3357,4.3453,4.3453,4.3462,4.3479,4.3505,4.3539,4.3592,4.36,4.3539,4.3531,4.3488,4.3488,4.3488,4.3488,4.3515,4.3515,4.3515,4.3515,4.3523,4.354,4.3583,4.3617,4.3625,4.3678,4.3738,4.3754,4.3729,4.3753,4.3769,4.3769,4.3786,4.3773,4.3714,4.3565,4.3546,4.3769,4.4035,4.4355,4.4471,5.254,5.257,5.2645,5.2618,5.2498,5.2498,5.2526,5.2559,5.257,5.2627,5.2721,5.2783,5.2839,5.2893,5.2934,5.3006,5.3103,5.3114,5.3114,5.3143,5.3164,5.3164,5.3164,5.3164,5.3167,5.3012,5.238,5.1591,5.0802,4.9913,4.9132,4.8553,4.8315,4.8315,4.8315,4.8315,4.8315,4.8315,4.8315,4.8315,4.8315,4.8315,4.8315,4.8315,4.8315,4.8315,4.8315,4.8315,4.8315,4.8315,4.8315,4.8315,4.8315,4.8315,4.7462,4.6159,4.592,4.5066,4.3873,4.3488,4.3488,4.3488,4.3488,4.3488,4.3488,4.3488,4.3488,4.3479,4.3488,4.3488,4.3488,4.3479,4.3444,4.3479,4.3488,4.3496,4.3505,4.3513,4.3558,4.3575,4.3592,4.3617,4.3678,4.3711,4.3642,4.3573,4.3522,4.3488,4.3505,4.354,4.3558,4.3575,4.3575,4.3627,4.3635,4.3661,4.3686,4.3703,4.3728,4.3769,4.3829,4.3796,4.3769,4.3837,4.3899,4.3921,4.3958,4.3991,4.3921,4.3763,4.3905,4.4151,4.4452,4.4751,4.4825,5.2665,5.2676,5.2761,5.2724,5.2595,5.2583,5.2622,5.2654,5.2665,5.275,5.285,5.2901,5.2966,5.3042,5.3053,5.3092,5.3175,5.3185,5.3185,5.3185,5.3185,5.3196,5.3196,5.3196,5.3177,5.2957,5.2105,5.1224,5.0784,4.9729,4.893,4.8453,4.8315,4.8315,4.8315,4.8315,4.8315,4.8315,4.8315,4.8315,4.8315,4.8315,4.8315,4.8315,4.8315,4.8315,4.8315,4.8315,4.8315,4.8315,4.8315,4.8315,4.8315,4.8095,4.7397,4.6507,4.5746,4.514,4.3983,4.3488,4.3488,4.3488,4.3488,4.3488,4.3488,4.3488,4.3488,4.3488,4.3488,4.3496,4.3513,4.3513,4.3513,4.3522,4.3539,4.3548,4.3575,4.3592,4.3625,4.3678,4.3694,4.3711,4.3769,4.3802,4.3761,4.3676,4.36,4.3592,4.3644,4.3652,4.3661,4.3669,4.3659,4.3719,4.3779,4.3771,4.3753,4.3783,4.3808,4.3832,4.3849,4.3857,4.395,4.4086,4.414,4.4109,4.421,4.4341,4.4206,4.3989,4.4236,4.4534,4.4695,4.4966,4.5137,5.2776,5.2794,5.2806,5.2794,5.2802,5.2783,5.2783,5.2794,5.2806,5.2872,5.2999,5.3103,5.3153,5.3175,5.3146,5.3175,5.3185,5.3196,5.3196,5.3196,5.3196,5.3196,5.3196,5.3196,5.3177,5.2792,5.1848,5.0986,5.0765,4.9297,4.8508,4.8361,4.8315,4.8315,4.8315,4.8315,4.8315,4.8315,4.8315,4.8315,4.8315,4.8315,4.8315,4.8315,4.8315,4.8315,4.8315,4.8315,4.8315,4.8315,4.8315,4.8315,4.8315,4.8315,4.7507,4.6122,4.5938,4.5103,4.3708,4.3561,4.3488,4.3488,4.3488,4.3488,4.3488,4.3488,4.3505,4.3513,4.354,4.3566,4.3566,4.3575,4.3573,4.3582,4.3617,4.3625,4.3642,4.3659,4.3711,4.3761,4.3796,4.382,4.3867,4.3899,4.3859,4.3775,4.3676,4.3678,4.3728,4.3736,4.3728,4.3761,4.3759,4.381,4.3843,4.3818,4.3826,4.3883,4.395,4.4033,4.4075,4.4143,4.4243,4.4353,4.4388,4.4388,4.4559,4.4763,4.4624,4.4539,4.4701,4.4937,4.5069,4.518,4.5331,5.2915,5.2944,5.3039,5.306,5.3039,5.2897,5.2857,5.2944,5.3028,5.3092,5.3124,5.3185,5.3196,5.3196,5.3196,5.3196,5.3196,5.3196,5.3196,5.3196,5.3196,5.3196,5.3196,5.3196,5.3177,5.2755,5.1691,5.0802,5.0784,4.9104,4.8425,4.8315,4.8324,4.8315,4.8315,4.8315,4.8315,4.8315,4.8315,4.8315,4.8315,4.8315,4.8315,4.8315,4.8315,4.8315,4.8315,4.8315,4.8315,4.8324,4.8334,4.8334,4.8316,4.8316,4.7545,4.6296,4.5856,4.514,4.3983,4.3488,4.3488,4.3488,4.3496,4.3496,4.3515,4.3531,4.3548,4.3582,4.3625,4.3686,4.3719,4.3711,4.3719,4.3728,4.3736,4.3754,4.3763,4.3753,4.3777,4.3816,4.3875,4.3889,4.3945,4.3937,4.3905,4.3899,4.38,4.3742,4.3786,4.3804,4.3804,4.3824,4.3857,4.3889,4.3921,4.4028,4.4106,4.4192,4.4268,4.436,4.4409,4.4423,4.4538,4.4637,4.4663,4.4682,4.4855,4.5013,4.5143,4.5185,4.5196,4.5232,4.5332,4.5386,4.5476,5.3063,5.3082,5.3146,5.3196,5.3175,5.3017,5.2988,5.3063,5.3164,5.3196,5.3196,5.3196,5.3196,5.3196,5.3196,5.3196,5.3196,5.3196,5.3196,5.3196,5.3196,5.3196,5.3196,5.3141,5.2957,5.2517,5.1599,5.071,5.0251,4.8975,4.8388,4.8324,4.8353,4.8353,4.8334,4.8315,4.8315,4.8315,4.8315,4.8315,4.8315,4.8315,4.8315,4.8315,4.8315,4.8315,4.8315,4.8306,4.8316,4.8335,4.8372,4.8382,4.8382,4.8227,4.7564,4.6498,4.5284,4.4685,4.3858,4.3609,4.3617,4.3617,4.3548,4.3566,4.3592,4.3661,4.3659,4.3711,4.3753,4.3794,4.3818,4.3818,4.3802,4.3802,4.3826,4.3845,4.3826,4.3843,4.3883,4.3913,4.3937,4.3958,4.3981,4.3966,4.3961,4.3945,4.3929,4.3905,4.3881,4.3889,4.3961,4.4033,4.4098,4.4188,4.4257,4.4358,4.4443,4.4519,4.4585,4.4637,4.4637,4.4644,4.4801,4.4921,4.4925,4.4971,4.5102,4.5251,4.5337,4.5405,4.5415,4.5485,4.5586,4.5586,4.5577,5.3185,5.3196,5.3196,5.3196,5.3185,5.3175,5.3167,5.3196,5.3196,5.3196,5.3196,5.3196,5.3196,5.3196,5.3196,5.3196,5.3196,5.3196,5.3196,5.3196,5.3196,5.3196,5.3159,5.3067,5.2692,5.1977,5.1096,5.0235,4.9592,4.8814,4.8382,4.8372,4.8448,4.8429,4.8401,4.8363,4.8354,4.8363,4.8353,4.8372,4.8391,4.8429,4.8411,4.8411,4.842,4.842,4.8401,4.8363,4.8401,4.8448,4.8513,4.8532,4.855,4.8578,4.758,4.6316,4.4803,4.4085,4.3818,4.3754,4.3761,4.3744,4.3684,4.3693,4.3728,4.3779,4.3777,4.3794,4.3826,4.3867,4.3873,4.3857,4.3851,4.3865,4.3897,4.3897,4.3905,4.3929,4.3976,4.3981,4.3981,4.3997,4.3997,4.4,4.4067,4.4102,4.4132,4.4173,4.4136,4.4079,4.4173,4.4367,4.4443,4.4531,4.4604,4.4612,4.4707,4.4757,4.4812,4.4849,4.4868,4.4933,4.5069,4.518,4.5201,4.5253,4.5337,4.5429,4.5522,4.5568,4.5527,4.5555,4.5594,4.5594,4.5586,5.3196,5.3196,5.3196,5.3196,5.3196,5.3196,5.3196,5.3196,5.3196,5.3196,5.3196,5.3196,5.3196,5.3196,5.3196,5.3196,5.3196,5.3196,5.3196,5.3196,5.3196,5.3196,5.3012,5.2711,5.2281,5.1612,5.0777,4.9888,4.9552,4.8835,4.8504,4.855,4.8587,4.8569,4.8541,4.8504,4.8504,4.8495,4.8504,4.8532,4.8632,4.8747,4.8676,4.8623,4.8712,4.8695,4.8569,4.8532,4.8569,4.8596,4.8596,4.8587,4.8587,4.8541,4.7894,4.6287,4.4848,4.3796,4.3796,4.3796,4.3826,4.3873,4.3838,4.3802,4.381,4.3867,4.3881,4.3883,4.3945,4.4005,4.4041,4.4033,4.4041,4.4079,4.4083,4.4091,4.4098,4.4106,4.4143,4.4162,4.4155,4.4162,4.414,4.4109,4.4173,4.4243,4.4311,4.4395,4.4409,4.4346,4.4416,4.4624,4.4714,4.4782,4.477,4.4788,4.4908,4.5024,4.5063,4.5148,4.5243,4.5322,4.5381,4.5415,4.5386,4.5448,4.5531,4.5594,4.5594,4.5594,4.5577,4.5586,4.5594,4.5594,4.5594,5.3196,5.3196,5.3196,5.3196,5.3196,5.3196,5.3196,5.3196,5.3196,5.3196,5.3196,5.3196,5.3196,5.3196,5.3196,5.3196,5.3196,5.3196,5.3196,5.3196,5.3206,5.3196,5.2931,5.2424,5.1901,5.1231,5.0444,4.9581,4.9307,4.9012,4.8678,4.8605,4.8722,4.8818,4.8843,4.8908,4.8992,4.8927,4.8878,4.8843,4.8978,4.9121,4.9009,4.892,4.9071,4.8971,4.8834,4.8818,4.886,4.8967,4.8999,4.9023,4.8824,4.8514,4.7954,4.6426,4.5056,4.4277,4.4071,4.3945,4.3989,4.4048,4.4091,4.4166,4.4091,4.4109,4.4002,4.3942,4.4079,4.4188,4.4225,4.425,4.4294,4.4325,4.4325,4.4325,4.4325,4.4325,4.4332,4.4358,4.4365,4.4379,4.4351,4.4308,4.4332,4.4472,4.4605,4.4701,4.4707,4.4682,4.4745,4.4927,4.4979,4.5013,4.5013,4.5047,4.5161,4.5278,4.5337,4.5434,4.5586,4.5581,4.5517,4.5531,4.5573,4.5594,4.5594,4.5594,4.5594,4.5594,4.5594,4.5594,4.5594,4.5594,4.5594,5.3196,5.3196,5.3227,5.3238,5.3225,5.3272,5.3314,5.3259,5.3334,5.3241,5.3217,5.3196,5.3196,5.3196,5.3196,5.3196,5.3206,5.3217,5.322,5.3209,5.3269,5.3227,5.2888,5.2408,5.1665,5.0887,5.012,4.9361,4.8927,4.8811,4.888,4.8713,4.9061,4.9219,4.9211,4.9348,4.9449,4.9518,4.9382,4.9325,4.9435,4.9493,4.9427,4.9219,4.923,4.9222,4.9182,4.9222,4.9287,4.9496,4.961,4.9622,4.9213,4.8256,4.7513,4.6717,4.5363,4.4681,4.436,4.4257,4.4279,4.4353,4.4425,4.4511,4.4457,4.4353,4.4257,4.4243,4.4386,4.443,4.4464,4.4525,4.4559,4.4572,4.4572,4.4572,4.4572,4.4572,4.4572,4.4598,4.4598,4.4604,4.4604,4.4559,4.4618,4.4757,4.4855,4.4967,4.5036,4.5002,4.5058,4.5191,4.5222,4.5263,4.5347,4.5381,4.5462,4.5544,4.5544,4.5564,4.559,4.5594,4.5594,4.5594,4.5594,4.5594,4.5594,4.5594,4.5594,4.5594,4.5594,4.5594,4.5594,4.5594,4.5594,5.3196,5.3227,5.3482,5.3442,5.3303,5.3804,5.3851,5.3623,5.3916,5.3709,5.3282,5.3217,5.3248,5.3303,5.3303,5.3314,5.3303,5.3412,5.3297,5.3353,5.3385,5.3168,5.2726,5.2056,5.1378,5.0628,4.9882,4.9301,4.9144,4.9177,4.9354,4.9472,4.9632,4.9618,4.9611,4.9738,4.9859,5.0018,4.9962,4.9811,4.9798,4.9904,4.9911,4.9765,4.9718,4.9725,4.9683,4.9632,4.9667,4.9757,4.9757,4.9764,4.9728,4.8168,4.7422,4.6979,4.5729,4.4947,4.4669,4.4599,4.4599,4.4644,4.4707,4.4739,4.472,4.4644,4.4605,4.4618,4.4663,4.4695,4.4726,4.4788,4.4843,4.4843,4.4837,4.4837,4.4837,4.4837,4.4837,4.4831,4.4831,4.4837,4.4843,4.4872,4.4919,4.5007,4.5074,4.5185,4.5342,4.5366,4.5332,4.5424,4.5457,4.5522,4.5594,4.5594,4.5594,4.5594,4.5581,4.5586,4.5594,4.5594,4.5594,4.5594,4.5594,4.5594,4.5594,4.5594,4.5594,4.5594,4.5594,4.5594,4.5594,4.5594,4.5594,5.343,5.3462,5.3823,5.3851,5.3785,5.4123,5.4167,5.4024,5.4245,5.4113,5.3767,5.3709,5.3699,5.3719,5.3729,5.371,5.3729,5.3824,5.3897,5.3869,5.3376,5.3202,5.2611,5.1802,5.1262,5.0576,4.9901,4.9461,4.9465,4.9502,4.9665,4.9837,4.9903,4.9987,4.9987,5.0093,5.025,5.0416,5.041,5.0313,5.0161,5.0291,5.026,5.0141,5.0062,5.008,5.0075,5.0006,5.0075,5.0149,5.0214,5.0239,4.9868,4.8607,4.7802,4.719,4.6199,4.4985,4.4943,4.4902,4.4903,4.4925,4.4966,4.5013,4.5211,4.5129,4.4914,4.4933,4.495,4.4979,4.5047,4.5121,4.5217,4.5248,4.5248,4.5248,4.5248,4.5248,4.5248,4.5267,4.5248,4.5248,4.5253,4.5258,4.5288,4.5293,4.5381,4.5352,4.5517,4.5594,4.5594,4.5594,4.5594,4.5594,4.5594,4.5594,4.5594,4.5594,4.5594,4.5594,4.5594,4.5594,4.5594,4.5594,4.5594,4.5594,4.5594,4.5594,4.5594,4.5594,4.5594,4.5594,4.5594,4.5594,4.5594,5.3795,5.3842,5.4228,5.4347,5.4366,5.4428,5.4455,5.443,5.4517,5.458,5.4538,5.4485,5.4468,5.4392,5.4409,5.4439,5.4336,5.3969,5.4143,5.3941,5.3319,5.2873,5.2311,5.1693,5.1126,5.0649,5.0075,4.988,4.9825,4.9845,4.989,4.9949,5.0093,5.0252,5.0333,5.0493,5.0634,5.0624,5.0624,5.0663,5.0673,5.0688,5.0518,5.0347,5.0247,5.0272,5.0272,5.0306,5.0442,5.0509,5.0599,5.0565,5.0046,4.897,4.8313,4.7525,4.6251,4.5449,4.5217,4.5115,4.5129,4.5191,4.5227,4.5337,4.5517,4.5476,4.5267,4.5206,4.5222,4.5248,4.5327,4.539,4.5495,4.554,4.554,4.554,4.554,4.554,4.5564,4.5564,4.5564,4.554,4.5544,4.5573,4.5581,4.559,4.5594,4.5594,4.5594,4.5594,4.5594,4.5594,4.5594,4.5594,4.5594,4.5594,4.5594,4.5594,4.5594,4.5594,4.5594,4.5594,4.5594,4.5594,4.5594,4.5594,4.5594,4.5594,4.5594,4.5594,4.5594,4.5594,4.5594,4.5594,4.5594,5.4228,5.4292,5.464,5.4663,5.4577,5.5024,5.5113,5.4936,5.5146,5.5275,5.5231,5.5218,5.5019,5.4468,5.4479,5.4483,5.4394,5.3982,5.3611,5.3376,5.2821,5.2303,5.1864,5.1504,5.0964,5.0544,5.0251,5.0181,5.0155,5.0141,5.0254,5.0467,5.0488,5.0575,5.0585,5.0688,5.0688,5.0688,5.0688,5.0688,5.0688,5.0683,5.0697,5.0614,5.0609,5.0609,5.0609,5.0609,5.0653,5.0673,5.0688,5.0688,5.013,4.9163,4.8332,4.7692,4.6416,4.5701,4.541,4.5362,4.5415,4.5424,4.5452,4.5485,4.5586,4.5581,4.5448,4.5448,4.5457,4.5457,4.5513,4.5513,4.5581,4.5581,4.5581,4.5581,4.5581,4.5581,4.5581,4.5581,4.5581,4.5581,4.5581,4.5586,4.5586,4.5594,4.5594,4.5594,4.5594,4.5594,4.5594,4.5594,4.5594,4.5594,4.5594,4.5594,4.5594,4.5594,4.5594,4.5594,4.5594,4.5594,4.5594,4.5594,4.5594,4.5594,4.5594,4.5594,4.5594,4.5594,4.5594,4.5594,4.5594,4.5594,4.5594]}]]